[[{"header":{"parameterUnit":"m.s-1","parameterCategory":1,"la1":30.6,"la2":28.766,"lo1":-90.7593,"lo2":-88.6598,"dy":0.0162,"dx":0.0183,"nx":116,"ny":114,"refTime":"2024-05-11T12:00:00:Z","depth":0,"parameterNumber":2,"parameterNumberName":"U-component_of_WINDS"},"data":[0.0,0.0,0.0,0.0,0.0,0.0,0.0,0.0,0.0,0.0,0.0,0.0,0.0,0.0,0.0,0.0,0.0,0.0,0.0,0.0,0.0,0.0,0.0,0.0,0.0,0.0,0.0,0.0,0.0,0.0,0.0,0.0,0.0,0.0,0.0,0.0,0.0,0.0,0.0,0.0,0.0,0.0,0.0,0.0,0.0,0.0,0.0,0.0,0.0,0.0,0.0,0.0,0.0,0.0,0.0,0.0,0.0,0.0,0.0,0.0,0.0,0.0,0.0,0.0,0.0,0.0,0.0,0.0,0.0,0.0,0.0,0.0,0.0,0.0,0.0,0.0,0.0,0.0,0.0,0.0,0.0,0.0,0.0,0.0,0.0,0.0,0.0,0.0,0.0,0.0,0.0,0.0,0.0,0.0,0.0,0.0,0.0,0.0,0.0,0.0,0.0,0.0,0.0,0.0,0.0,0.0,0.0,0.0,0.0,0.0,0.0,0.0,0.0,0.0,0.0,0.0,0.0,0.0,0.0,0.0,0.0,0.0,0.0,0.0,0.0,0.0,0.0,0.0,0.0,0.0,0.0,0.0,0.0,0.0,0.0,0.0,0.0,0.0,0.0,0.0,0.0,0.0,0.0,0.0,0.0,0.0,0.0,0.0,0.0,0.0,0.0,0.0,0.0,0.0,0.0,0.0,0.0,0.0,0.0,0.0,0.0,0.0,0.0,0.0,0.0,0.0,0.0,0.0,0.0,0.0,0.0,0.0,0.0,0.0,0.0,0.0,0.0,0.0,0.0,0.0,0.0,0.0,0.0,0.0,0.0,0.0,0.0,0.0,0.0,0.0,0.0,0.0,0.0,0.0,0.0,0.0,0.0,0.0,0.0,0.0,0.0,0.0,0.0,0.0,0.0,0.0,0.0,0.0,0.0,0.0,0.0,0.0,0.0,0.0,0.0,0.0,0.0,0.0,0.0,0.0,0.0,0.0,0.0,0.0,0.0,0.0,0.0,0.0,0.0,0.0,0.0,0.0,0.0,0.0,0.0,0.0,0.0,0.0,0.0,0.0,0.0,0.0,0.0,0.0,0.0,0.0,0.0,0.0,0.0,0.0,0.0,0.0,0.0,0.0,0.0,0.0,0.0,0.0,0.0,0.0,0.0,0.0,0.0,0.0,0.0,0.0,0.0,0.0,0.0,0.0,0.0,0.0,0.0,0.0,0.0,0.0,0.0,0.0,0.0,0.0,0.0,0.0,0.0,0.0,0.0,0.0,0.0,0.0,0.0,0.0,0.0,0.0,0.0,0.0,0.0,0.0,0.0,0.0,0.0,0.0,0.0,0.0,0.0,0.0,0.0,0.0,0.0,0.0,0.0,0.0,0.0,0.0,0.0,0.0,0.0,0.0,0.0,0.0,0.0,0.0,0.0,0.0,0.0,0.0,0.0,0.0,0.0,0.0,0.0,0.0,0.0,0.0,0.0,0.0,0.0,0.0,0.0,0.0,0.0,0.0,0.0,0.0,0.0,0.0,0.0,0.0,0.0,0.0,0.0,0.0,0.0,0.0,0.0,0.0,0.0,0.0,0.0,0.0,0.0,0.0,0.0,0.0,0.0,0.0,0.0,0.0,0.0,0.0,0.0,0.0,0.0,0.0,0.0,0.0,0.0,0.0,0.0,0.0,0.0,0.0,0.0,0.0,0.0,0.0,0.0,0.0,0.0,0.0,0.0,0.0,0.0,0.0,0.0,0.0,0.0,0.0,0.0,0.0,0.0,0.0,0.0,0.0,0.0,0.0,0.0,0.0,0.0,0.0,0.0,0.0,0.0,0.0,0.0,0.0,0.0,0.0,0.0,0.0,0.0,0.0,0.0,0.0,0.0,0.0,0.0,0.0,0.0,0.0,0.0,0.0,0.0,0.0,0.0,0.0,0.0,0.0,0.0,0.0,0.0,0.0,0.0,0.0,0.0,0.0,0.0,0.0,0.0,0.0,0.0,0.0,0.0,0.0,0.0,0.0,0.0,0.0,0.0,0.0,0.0,0.0,0.0,0.0,0.0,0.0,0.0,0.0,0.0,0.0,0.0,0.0,0.0,0.0,0.0,0.0,0.0,0.0,0.0,0.0,0.0,0.0,0.0,0.0,0.0,0.0,0.0,0.0,0.0,0.0,0.0,0.0,0.0,0.0,0.0,0.0,0.0,0.0,0.0,0.0,0.0,0.0,0.0,0.0,0.0,0.0,0.0,0.0,0.0,0.0,0.0,0.0,0.0,0.0,0.0,0.0,0.0,0.0,0.0,0.0,0.0,0.0,0.0,0.0,0.0,0.0,0.0,0.0,0.0,0.0,0.0,0.0,0.0,0.0,0.0,0.0,0.0,0.0,0.0,0.0,0.0,0.0,0.0,0.0,0.0,0.0,0.0,0.0,0.0,0.0,0.0,0.0,0.0,0.0,0.0,0.0,0.0,0.0,0.0,0.0,0.0,0.0,0.0,0.0,0.0,0.0,0.0,0.0,0.0,0.0,0.0,0.0,0.0,0.0,0.0,0.0,0.0,0.0,0.0,0.0,0.0,0.0,0.0,0.0,0.0,0.0,0.0,0.0,0.0,0.0,0.0,0.0,0.0,0.0,0.0,0.0,0.0,0.0,0.0,0.0,0.0,0.0,0.0,0.0,0.0,0.0,0.0,0.0,0.0,0.0,0.0,0.0,0.0,0.0,0.0,0.0,0.0,0.0,0.0,0.0,0.0,0.0,0.0,0.0,0.0,0.0,0.0,0.0,0.0,0.0,0.0,0.0,0.0,0.0,0.0,0.0,0.0,0.0,0.0,0.0,0.0,0.0,0.0,0.0,0.0,0.0,0.0,0.0,0.0,0.0,0.0,0.0,0.0,0.0,0.0,0.0,0.0,0.0,0.0,0.0,0.0,0.0,0.0,0.0,0.0,0.0,0.0,0.0,0.0,0.0,0.0,0.0,0.0,0.0,0.0,0.0,0.0,0.0,0.0,0.0,0.0,0.0,0.0,0.0,0.0,0.0,0.0,0.0,0.0,0.0,0.0,0.0,0.0,0.0,0.0,0.0,0.0,0.0,0.0,0.0,0.0,0.0,0.0,0.0,0.0,0.0,0.0,0.0,0.0,0.0,0.0,0.0,0.0,0.0,0.0,0.0,0.0,0.0,0.0,0.0,0.0,0.0,0.0,0.0,0.0,0.0,0.0,0.0,0.0,0.0,0.0,0.0,0.0,0.0,0.0,0.0,0.0,0.0,0.0,0.0,0.0,0.0,0.0,0.0,0.0,0.0,0.0,0.0,0.0,0.0,0.0,0.0,0.0,0.0,0.0,0.0,0.0,0.0,0.0,0.0,0.0,0.0,0.0,0.0,0.0,0.0,0.0,0.0,0.0,0.0,0.0,0.0,0.0,0.0,0.0,0.0,0.0,0.0,0.0,0.0,0.0,0.0,0.0,0.0,0.0,0.0,0.0,0.0,0.0,0.0,0.0,0.0,0.0,0.0,0.0,0.0,0.0,0.0,0.0,0.0,0.0,0.0,0.0,0.0,0.0,0.0,0.0,0.0,0.0,0.0,0.0,0.0,0.0,0.0,0.0,0.0,0.0,0.0,0.0,0.0,0.0,0.0,0.0,0.0,0.0,0.0,0.0,0.0,0.0,0.0,0.0,0.0,0.0,0.0,0.0,0.0,0.0,0.0,0.0,0.0,0.0,0.0,0.0,0.0,0.0,0.0,0.0,0.0,0.0,0.0,0.0,0.0,0.0,0.0,0.0,0.0,0.0,0.0,0.0,0.0,0.0,0.0,0.0,0.0,0.0,0.0,0.0,0.0,0.0,0.0,0.0,0.0,0.0,0.0,0.0,0.0,0.0,0.0,0.0,0.0,0.0,0.0,0.0,0.0,0.0,0.0,0.0,0.0,0.0,0.0,0.0,0.0,0.0,0.0,0.0,0.0,0.0,0.0,0.0,0.0,0.0,0.0,0.0,0.0,0.0,0.0,0.0,0.0,0.0,0.0,0.0,0.0,0.0,0.0,0.0,0.0,0.0,0.0,0.0,0.0,0.0,0.0,0.0,0.0,0.0,0.0,0.0,0.0,0.0,0.0,0.0,0.0,0.0,0.0,0.0,0.0,0.0,0.0,0.0,0.0,0.0,0.0,0.0,0.0,0.0,0.0,0.0,0.0,0.0,0.0,0.0,0.0,0.0,0.0,0.0,0.0,0.0,0.0,0.0,0.0,0.0,0.0,0.0,0.0,0.0,0.0,0.0,0.0,0.0,0.0,0.0,0.0,0.0,0.0,0.0,0.0,0.0,0.0,0.0,0.0,0.0,0.0,0.0,0.0,0.0,0.0,0.0,0.0,0.0,0.0,0.0,0.0,0.0,0.0,0.0,0.0,0.0,0.0,0.0,0.0,0.0,0.0,0.0,0.0,0.0,0.0,0.0,0.0,0.0,0.0,0.0,0.0,0.0,0.0,0.0,0.0,0.0,0.0,0.0,0.0,0.0,0.0,0.0,0.0,0.0,0.0,0.0,0.0,0.0,0.0,0.0,0.0,0.0,0.0,0.0,0.0,0.0,0.0,0.0,0.0,0.0,0.0,0.0,0.0,0.0,0.0,0.0,0.0,0.0,0.0,0.0,0.0,0.0,0.0,0.0,0.0,0.0,0.0,0.0,0.0,0.0,0.0,0.0,0.0,0.0,0.0,0.0,0.0,0.0,0.0,0.0,0.0,0.0,0.0,0.0,0.0,0.0,0.0,0.0,0.0,0.0,0.0,0.0,0.0,0.0,0.0,0.0,0.0,0.0,0.0,0.0,0.0,0.0,0.0,0.0,0.0,0.0,0.0,0.0,0.0,0.0,0.0,0.0,0.0,0.0,0.0,0.0,0.0,0.0,0.0,0.0,0.0,0.0,0.0,0.0,0.0,0.0,0.0,0.0,0.0,0.0,0.0,0.0,0.0,0.0,0.0,0.0,0.0,0.0,0.0,0.0,0.0,0.0,0.0,0.0,0.0,0.0,0.0,0.0,0.0,0.0,0.0,0.0,0.0,0.0,0.0,0.0,0.0,0.0,0.0,0.0,0.0,0.0,0.0,0.0,0.0,0.0,0.0,0.0,0.0,0.0,0.0,0.0,0.0,0.0,0.0,0.0,0.0,0.0,0.0,0.0,0.0,0.0,0.0,0.0,0.0,0.0,0.0,0.0,0.0,0.0,0.0,0.0,0.0,0.0,0.0,0.0,0.0,0.0,0.0,0.0,0.0,0.0,0.0,0.0,0.0,0.0,0.0,0.0,0.0,0.0,0.0,0.0,0.0,0.0,0.0,0.0,0.0,0.0,0.0,0.0,0.0,0.0,0.0,0.0,0.0,0.0,0.0,0.0,0.0,0.0,0.0,0.0,0.0,0.0,0.0,0.0,0.0,0.0,0.0,0.0,0.0,0.0,0.0,0.0,0.0,0.0,0.0,0.0,0.0,0.0,0.0,0.0,0.0,0.0,0.0,0.0,0.0,0.0,0.0,0.0,0.0,0.0,0.0,0.0,0.0,0.0,0.0,0.0,0.0,0.0,0.0,0.0,0.0,0.0,0.0,0.0,0.0,0.0,0.0,0.0,0.0,0.0,0.0,0.0,0.0,0.0,0.0,0.0,0.0,0.0,0.0,0.0,0.0,0.0,0.0,0.0,0.0,0.0,0.0,0.0,0.0,0.0,0.0,0.0,0.0,0.0,0.0,0.0,0.0,0.0,0.0,0.0,0.0,0.0,0.0,0.0,0.0,0.0,0.0,0.0,0.0,0.0,0.0,0.0,0.0,0.0,0.0,0.0,0.0,0.0,0.0,0.0,0.0,0.0,0.0,0.0,0.0,0.0,0.0,0.0,0.0,0.0,0.0,0.0,0.0,0.0,0.0,0.0,0.0,0.0,0.0,0.0,0.0,0.0,0.0,0.0,0.0,0.0,0.0,0.0,0.0,0.0,0.0,0.0,0.0,0.0,0.0,0.0,0.0,0.0,0.0,0.0,0.0,0.0,0.0,0.0,0.0,0.0,0.0,0.0,0.0,0.0,0.0,0.0,0.0,0.0,0.0,0.0,0.0,0.0,0.0,-5.4812,-5.6482,0.0,0.0,0.0,0.0,0.0,0.0,0.0,0.0,0.0,0.0,0.0,0.0,0.0,0.0,0.0,0.0,0.0,0.0,0.0,0.0,0.0,0.0,0.0,-1.3189,-1.3238,-1.3238,-1.3409,-1.3783,-1.4466,0.0,0.0,0.0,0.0,0.0,-2.2015,-2.3509,-2.4415,-2.4549,-2.4979,-2.5052,-2.5066,-2.5227,-2.5213,-2.5052,0.0,0.0,0.0,0.0,0.0,0.0,0.0,0.0,0.0,0.0,0.0,0.0,0.0,0.0,0.0,0.0,0.0,0.0,0.0,0.0,0.0,0.0,0.0,0.0,0.0,0.0,0.0,0.0,0.0,0.0,0.0,0.0,0.0,0.0,0.0,0.0,0.0,0.0,0.0,0.0,0.0,0.0,0.0,0.0,0.0,0.0,0.0,0.0,0.0,0.0,0.0,0.0,0.0,0.0,0.0,0.0,0.0,0.0,0.0,0.0,0.0,0.0,0.0,0.0,0.0,0.0,0.0,0.0,0.0,0.0,-5.5649,-5.6359,0.0,0.0,0.0,0.0,0.0,0.0,0.0,0.0,0.0,0.0,0.0,0.0,0.0,0.0,0.0,0.0,0.0,0.0,0.0,0.0,0.0,-1.284,-1.284,-1.2962,-1.3051,-1.3051,-1.3214,-1.3857,-1.5334,-1.5643,0.0,0.0,-2.0377,-2.1437,-2.3028,-2.3691,-2.4113,-2.4569,-2.4891,-2.5052,-2.5052,-2.5322,-2.5457,-2.5457,-2.5457,0.0,0.0,0.0,0.0,0.0,0.0,0.0,0.0,0.0,0.0,0.0,0.0,0.0,0.0,0.0,0.0,0.0,0.0,0.0,0.0,0.0,0.0,0.0,0.0,0.0,0.0,0.0,0.0,0.0,0.0,0.0,0.0,0.0,0.0,0.0,0.0,0.0,0.0,0.0,0.0,0.0,0.0,0.0,0.0,0.0,0.0,0.0,0.0,0.0,0.0,0.0,0.0,0.0,0.0,0.0,0.0,0.0,0.0,0.0,0.0,0.0,0.0,0.0,-4.8763,-5.0026,-5.2641,-5.093,-5.1696,-5.4341,-5.6153,-5.5815,-5.4273,-5.5466,0.0,0.0,0.0,0.0,0.0,0.0,0.0,0.0,0.0,0.0,0.0,0.0,0.0,0.0,0.0,0.0,0.0,0.0,0.0,-1.284,-1.284,-1.2856,-1.2873,-1.2873,-1.3027,-1.3797,-1.5119,-1.6634,-1.8094,-1.9711,-2.1304,-2.2504,-2.3028,-2.3463,-2.3751,-2.4023,-2.4352,-2.4781,-2.5187,-2.6234,-2.6886,-2.6886,-2.6886,-2.6886,-2.7286,0.0,0.0,0.0,0.0,0.0,0.0,0.0,0.0,0.0,0.0,0.0,0.0,0.0,0.0,0.0,0.0,0.0,0.0,0.0,0.0,0.0,0.0,0.0,0.0,0.0,0.0,0.0,0.0,0.0,0.0,0.0,0.0,0.0,0.0,0.0,0.0,0.0,0.0,0.0,0.0,0.0,-3.7763,-4.058,0.0,0.0,0.0,0.0,0.0,0.0,0.0,0.0,0.0,0.0,0.0,0.0,0.0,-4.8893,-4.9041,-4.9041,-4.943,-5.0063,-4.9694,-5.0069,-5.1509,-5.1753,-5.2167,-5.2729,-5.4835,0.0,-5.5366,-5.5075,0.0,0.0,0.0,0.0,0.0,0.0,0.0,0.0,0.0,0.0,0.0,0.0,0.0,0.0,0.0,0.0,0.0,0.0,0.0,0.0,0.0,-1.284,-1.2873,-1.297,-1.2962,-1.3519,-1.5072,-1.6511,-1.7949,-1.9256,-2.0838,-2.2011,-2.251,-2.2692,-2.3145,-2.4037,-2.4434,-2.4742,-2.5187,-2.63,-2.6962,-2.7153,-2.8706,-2.9492,-2.9492,-3.0789,0.0,0.0,0.0,0.0,0.0,0.0,0.0,0.0,0.0,0.0,0.0,0.0,0.0,0.0,0.0,0.0,0.0,0.0,0.0,0.0,0.0,0.0,0.0,0.0,0.0,0.0,0.0,0.0,0.0,0.0,0.0,0.0,0.0,0.0,0.0,0.0,0.0,0.0,0.0,-3.8072,-3.9905,-4.0694,-4.2814,-4.4333,0.0,0.0,0.0,0.0,0.0,0.0,0.0,0.0,0.0,-4.8957,-4.9207,-4.9631,-4.9992,-4.9992,-5.0256,-5.0616,-5.0185,-5.0851,-5.2416,-5.1566,-5.1728,-5.2717,-5.2991,-5.3376,-5.3868,-5.5075,-5.5096,-5.455,0.0,0.0,0.0,0.0,-5.4593,-5.4459,0.0,0.0,0.0,0.0,0.0,0.0,0.0,0.0,0.0,0.0,0.0,0.0,-1.284,-1.2873,-1.2954,-1.3084,-1.3236,-1.4139,-1.5594,-1.6848,-1.8139,-1.9419,-2.0589,-2.1362,-2.1992,-2.2157,-2.2804,-2.3794,-2.413,-2.4569,-2.4937,-2.6367,-2.7149,-2.754,-3.0245,-3.1394,-3.1322,-3.1707,-3.2264,-3.2793,0.0,0.0,0.0,0.0,0.0,0.0,0.0,0.0,0.0,0.0,0.0,0.0,0.0,0.0,0.0,0.0,0.0,0.0,0.0,0.0,0.0,0.0,0.0,0.0,0.0,0.0,0.0,0.0,0.0,0.0,0.0,0.0,0.0,0.0,0.0,0.0,0.0,-3.8705,-4.0635,-4.0715,-4.3456,-4.5422,0.0,0.0,0.0,0.0,0.0,0.0,-4.7531,-4.7832,-4.8535,-4.9766,-4.9941,-5.0287,-5.0846,-5.0846,-5.0986,-5.1234,-5.0839,-5.1309,-5.2901,-5.1418,-5.1329,-5.2266,-5.1861,-5.1886,-5.2529,-5.455,-5.4498,-5.3279,-5.4103,-5.3867,-5.2992,-5.3419,-5.3411,-5.3173,0.0,0.0,0.0,0.0,0.0,0.0,0.0,0.0,0.0,0.0,0.0,-1.284,-1.284,-1.2986,-1.3084,-1.3092,-1.4272,-1.5594,-1.7071,-1.8277,-1.9559,-2.0982,-2.1109,-2.1235,-2.1614,-2.2285,-2.2722,-2.3135,-2.3422,-2.3724,-2.426,-2.6775,-2.8043,-2.8186,-3.0964,-3.1894,-3.1451,-3.2765,-3.3058,-3.2754,-3.2363,0.0,0.0,0.0,0.0,0.0,0.0,0.0,0.0,0.0,0.0,0.0,0.0,0.0,0.0,0.0,0.0,0.0,0.0,0.0,0.0,0.0,0.0,0.0,0.0,0.0,0.0,0.0,0.0,0.0,0.0,0.0,0.0,0.0,0.0,0.0,0.0,0.0,0.0,-4.0515,-4.2081,0.0,0.0,0.0,0.0,-4.628,-4.7757,-4.8661,-4.8686,-4.969,-5.0293,-5.0368,-5.0921,-5.1222,-5.1272,-5.1272,-5.1548,-5.2101,-5.1644,-5.1507,-5.1557,-5.1664,-5.1362,-5.062,-5.2104,-5.2579,-5.2278,-5.2829,-5.3351,-5.3843,-5.3868,-5.3535,-5.2992,-5.2603,-5.2092,-5.1582,0.0,0.0,0.0,0.0,0.0,-1.284,-1.284,-1.284,-1.284,-1.284,-1.284,-1.2881,-1.2994,-1.3059,-1.3189,-1.3425,-1.4567,-1.5405,-1.5942,-1.7848,-1.9164,-1.9686,-2.0589,-2.1109,-2.1235,-2.2412,-2.2836,-2.2836,-2.3321,-2.3752,-2.4201,-2.6624,-2.7895,-2.826,-3.103,-3.208,-3.198,-3.2642,-3.2773,-3.2402,-3.2519,-3.207,0.0,0.0,0.0,0.0,0.0,0.0,0.0,0.0,0.0,0.0,0.0,0.0,0.0,0.0,0.0,0.0,0.0,0.0,0.0,0.0,0.0,0.0,0.0,0.0,0.0,0.0,0.0,0.0,0.0,0.0,0.0,0.0,0.0,0.0,0.0,0.0,0.0,-4.0202,-4.3148,0.0,-4.5366,-4.7268,-4.8305,-4.7958,-4.8761,-4.9464,-4.9816,-5.0193,-5.0745,-5.1473,-5.1699,-5.18,-5.18,-5.2176,-5.2076,-5.1574,-5.179,-5.1765,-5.1305,-5.0962,-5.0528,-5.0357,-5.0665,-5.0798,-5.0815,-5.1117,-5.1979,-5.2779,-5.2427,-5.1992,-5.1427,-5.0636,-5.0401,-5.0385,0.0,0.0,0.0,-1.2576,-1.2708,-1.284,-1.284,-1.284,-1.284,-1.284,-1.284,-1.2905,-1.3076,-1.3149,-1.3311,-1.362,-1.5119,-1.6037,-1.605,-1.8415,-1.9686,-1.9686,-2.0589,-2.1109,-2.1109,-2.206,-2.2539,-2.2426,-2.3047,-2.3417,-2.3749,-2.5766,-2.7148,-2.7882,-3.0111,-3.1436,-3.1973,-3.2246,-3.2285,-3.2187,-3.2305,-3.1855,-3.1152,0.0,0.0,0.0,0.0,0.0,0.0,0.0,0.0,0.0,0.0,0.0,0.0,0.0,0.0,0.0,0.0,0.0,0.0,0.0,0.0,0.0,0.0,0.0,0.0,0.0,0.0,0.0,0.0,0.0,0.0,0.0,0.0,0.0,0.0,-3.7886,-3.9593,-3.9841,-4.3514,-4.5852,-4.5888,-4.8099,-4.942,-4.9364,-5.0017,-5.0594,-5.0971,-5.1172,-5.1523,-5.2076,-5.2277,-5.2201,-5.1825,-5.2377,-5.2176,-5.1297,-5.1649,-5.1523,-5.0996,-5.0504,-5.0235,-5.0087,-4.9989,-4.9947,-5.0132,-5.0271,-5.1003,-5.1722,-5.1353,-5.0937,-5.0359,-4.983,-4.9734,-4.983,0.0,-1.1512,-1.1909,-1.2173,-1.2576,-1.284,-1.284,-1.284,-1.284,-1.284,-1.284,-1.2905,-1.3084,-1.3262,-1.3449,-1.3628,-1.606,-1.7534,-1.7534,-1.9727,-2.1109,-2.1109,-2.1109,-2.1109,-2.1109,-2.1488,-2.174,-2.2104,-2.2355,-2.2731,-2.3106,-2.4456,-2.5806,-2.7021,-2.8206,-2.9755,-3.1385,-3.1365,-3.1618,-3.209,-3.1699,-3.1523,-3.1445,0.0,0.0,0.0,0.0,0.0,0.0,0.0,0.0,0.0,0.0,0.0,0.0,0.0,0.0,0.0,0.0,0.0,0.0,0.0,0.0,0.0,0.0,0.0,0.0,0.0,0.0,0.0,0.0,0.0,0.0,0.0,0.0,0.0,-3.5957,-3.7109,-3.8482,-3.9757,-4.2629,-4.4954,-4.6095,-4.8618,-5.0295,-5.0388,-5.1498,-5.2101,-5.2101,-5.2603,-5.2653,-5.2101,-5.2628,-5.2377,-5.1272,-5.18,-5.18,-5.1222,-5.1247,-5.0971,-5.0444,-5.0547,-5.0389,-4.9967,-5.0087,-5.0196,-5.0385,-5.0409,-5.0471,-5.0696,-5.0696,-5.0359,-4.995,-5.0455,-5.0287,-4.9806,-1.1115,-1.1247,-1.1512,-1.2173,-1.2437,-1.2576,-1.2708,-1.284,-1.284,-1.284,-1.284,-1.2954,-1.3262,-1.3344,-1.3855,-1.5005,-1.6596,-1.7872,-1.8765,-2.0272,-2.1109,-2.1109,-2.1109,-2.1109,-2.1109,-2.1488,-2.1614,-2.174,-2.2104,-2.223,-2.2355,-2.3961,-2.4949,-2.5301,-2.6608,-2.802,-2.9361,-2.9204,-2.9774,-3.0677,-3.1657,-3.1621,-3.1074,0.0,0.0,0.0,0.0,0.0,0.0,0.0,0.0,0.0,0.0,0.0,0.0,0.0,0.0,0.0,0.0,0.0,0.0,0.0,0.0,0.0,0.0,0.0,0.0,0.0,0.0,0.0,0.0,0.0,0.0,0.0,-3.4805,-3.5547,-3.5957,-3.7109,-3.8288,-3.9334,-4.2725,-4.5355,-4.6133,-4.9619,-5.1681,-5.1674,-5.1925,-5.2101,-5.2101,-5.2251,-5.2076,-5.1523,-5.2051,-5.18,-5.067,-5.1222,-5.1021,-5.0067,-5.0469,-5.0569,-5.0419,-4.9775,-4.9644,-4.9892,-4.9643,-4.9744,-4.9874,-5.0263,-5.061,-5.1047,-5.0379,-5.0263,-5.0359,-4.9325,-4.8603,-4.8195,-1.0982,-1.1115,-1.138,-1.2041,-1.218,-1.2444,-1.2708,-1.284,-1.284,-1.284,-1.284,-1.2946,-1.3222,-1.3254,-1.3866,-1.5422,-1.6736,-1.7873,-1.9197,-2.0362,-2.1109,-2.1109,-2.1109,-2.1109,-2.1109,-2.1235,-2.142,-2.1423,-2.1673,-2.1797,-2.1922,-2.2901,-2.3701,-2.444,-2.5162,-2.6244,-2.7469,-2.7452,-2.7692,-2.8361,-2.9174,-2.9961,-3.043,-3.0543,-3.0367,-3.0157,-2.9922,-2.8938,-2.7762,-2.7869,0.0,0.0,0.0,0.0,0.0,0.0,0.0,0.0,0.0,0.0,0.0,0.0,0.0,0.0,0.0,0.0,0.0,0.0,0.0,0.0,0.0,0.0,0.0,0.0,-3.5351,-3.6191,-3.6973,-3.7734,-3.8516,-3.9394,-4.246,-4.5099,-4.6413,-4.9535,-5.1648,-5.2341,-5.2452,-5.2452,-5.2452,-5.2452,-5.2201,-5.1649,-5.2176,-5.1925,-5.0795,-5.1122,-5.0946,-5.0293,-5.0368,-5.0544,-5.077,-5.0024,-5.0074,-5.0506,-5.0082,-5.0136,-5.0381,-5.0563,-5.0888,-5.1163,0.0,0.0,0.0,0.0,-4.8291,-4.7882,-1.0717,-1.0982,-1.1247,-1.1776,-1.2041,-1.2312,-1.2708,-1.284,-1.284,-1.284,-1.284,-1.2905,-1.3076,-1.3092,-1.3688,-1.5199,-1.6522,-1.7851,-1.9398,-2.0477,-2.1109,-2.1109,-2.1109,-2.1109,-2.1109,-2.1109,-2.1101,-2.1218,-2.1218,-2.1328,-2.1533,-2.1656,-2.24,-2.3777,-2.3777,-2.4501,-2.5741,-2.5741,-2.5741,-2.5863,-2.5984,-2.7331,-2.9431,-2.9431,-2.9431,-2.9431,-2.9313,-2.8343,-2.6987,-2.6987,0.0,0.0,0.0,0.0,0.0,0.0,0.0,0.0,0.0,0.0,0.0,0.0,0.0,0.0,0.0,0.0,0.0,0.0,0.0,0.0,0.0,0.0,0.0,0.0,-3.6133,-3.709,-3.834,-3.8633,-3.9043,-3.9863,-4.2045,-4.4358,-4.6837,-4.8817,-5.0741,-5.2792,-5.2879,-5.2829,-5.2829,-5.2829,0.0,0.0,0.0,-5.2327,-5.1297,-5.1272,-5.1272,-5.1272,-5.077,-5.082,-5.1373,-5.1005,-5.103,-5.1373,-5.108,-5.106,-5.1507,-5.1196,-5.119,-5.109,-5.0258,-5.0156,-5.0125,-4.939,-4.87,-4.8195,-1.0717,-1.0717,-1.0982,-1.1644,-1.1909,-1.2041,-1.2708,-1.284,-1.284,-1.284,-1.284,-1.2905,-1.3076,-1.3092,-1.3637,-1.5138,-1.643,-1.8165,-2.0566,-2.1009,-2.1109,-2.1109,-2.1109,-2.1109,-2.1109,-2.1109,-2.1082,-2.1155,-2.1155,-2.1034,-2.0916,-2.1163,-2.1437,-2.174,-2.174,-2.2595,-2.4054,-2.4054,-2.4548,-2.5162,-2.5513,-2.6106,-2.6712,-2.6486,-2.6365,-2.6365,-2.6017,-2.504,-2.3931,-2.3931,-2.3252,-2.2185,-2.1936,-2.2019,0.0,0.0,0.0,0.0,0.0,0.0,0.0,0.0,0.0,0.0,0.0,0.0,0.0,0.0,0.0,0.0,0.0,0.0,0.0,-3.5644,-3.6328,-3.6992,-3.793,-3.8965,-3.9824,-4.0332,-4.2208,-4.4484,-4.6837,-4.8794,-5.0857,-5.2767,-5.2528,-5.2251,-5.2251,-5.2251,-5.2026,-5.1448,-5.1975,-5.195,-5.1297,-5.1272,-5.1272,-5.1272,-5.1172,0.0,-5.1925,-5.1473,-5.1523,-5.195,-5.179,-5.1705,-5.1557,-5.2029,-5.1452,-5.0604,-5.0548,-4.9998,-4.9366,-4.9109,-4.8483,-4.7642,-1.0717,-1.0717,-1.085,-1.138,-1.1644,-1.1916,-1.2444,-1.27,-1.284,-1.284,-1.284,-1.2873,-1.2954,-1.2962,-1.3485,-1.4932,-1.6891,-1.8923,-2.0996,-2.1109,-2.1109,-2.1109,-2.1109,-2.1109,-2.1109,-2.1109,-2.1042,-2.0895,-2.0895,-2.0748,-2.0454,-2.0577,-2.0699,-2.0699,-2.0848,-2.1369,-2.2128,-2.227,-2.2591,-2.3076,-2.3201,-2.3435,-2.3668,-2.4794,-2.5285,-2.5285,-2.5056,-2.4193,-2.3076,-2.3076,-2.2314,-2.1309,-2.1162,-2.1216,-2.1296,0.0,0.0,0.0,0.0,0.0,0.0,0.0,0.0,0.0,0.0,0.0,0.0,0.0,0.0,-3.1753,-3.3797,0.0,-3.541,-3.6484,-3.7012,-3.7598,-3.8437,-3.9336,-3.998,-4.0195,-4.1898,-4.3715,-4.5723,-4.7804,-4.9843,-5.1607,-5.2241,-5.2528,-5.2528,-5.2528,-5.2402,-5.2126,-5.2377,-5.2377,-5.2101,-5.1825,-5.1825,-5.2101,-5.1825,-5.1975,-5.2503,-5.195,-5.2,-5.2503,-5.2226,-5.2116,-5.2254,-5.2114,-5.1509,-5.0591,-5.0857,-5.0132,-4.8947,-4.8811,-4.8329,-4.7762,-1.0717,-1.0717,-1.085,-1.1115,-1.1512,-1.1916,-1.2305,-1.2568,-1.284,-1.284,-1.284,-1.284,-1.284,-1.284,-1.3358,-1.4782,-1.698,-1.878,-2.0208,-2.0589,-2.0716,-2.0716,-2.0982,-2.1109,-2.1109,-2.1109,-2.0989,-2.0762,-2.0762,-2.0575,-2.0227,-2.0227,-2.0201,-2.016,-2.0454,-2.0615,-2.0695,-2.0989,-2.1109,-2.1109,-2.1109,-2.1109,-2.1362,-2.345,-2.4193,-2.4193,-2.4193,-2.3574,-2.2702,-2.2702,-2.2006,-2.1189,-2.1122,-2.1149,-2.1189,-2.1122,-2.1109,0.0,0.0,0.0,0.0,0.0,0.0,0.0,0.0,-2.4295,-2.6213,-2.8528,-2.9987,-3.1727,-3.4394,-3.5528,-3.6576,-3.7441,-3.7754,-3.8262,-3.9199,-3.959,-3.9824,-4.0,-4.1297,-4.2963,-4.4591,-4.6507,-4.8552,-5.0434,-5.1747,-5.2629,-5.2929,-5.2929,-5.2929,-5.2929,-5.2929,-5.2929,-5.2929,-5.2477,-5.2477,-5.2929,-5.2477,-5.2452,-5.2754,-5.2427,-5.2452,-5.2754,-5.2266,-5.2391,-5.2792,-5.2099,-5.1541,-5.0978,-5.1236,-5.036,-4.9145,-4.8874,-4.8536,-4.8185,-1.0717,-1.0717,-1.085,-1.1115,-1.1512,-1.1916,-1.2305,-1.2568,-1.284,-1.284,-1.284,-1.284,-1.284,-1.284,-1.3358,-1.4782,-1.5163,-1.5944,-1.7367,-1.8524,-1.9291,-1.9291,-2.0462,-2.1109,-2.1109,-2.1109,-2.1096,-2.1069,-2.1069,-2.0775,-2.0227,-2.0227,-2.0094,-1.9867,-2.0147,-2.0428,-2.0695,-2.0989,-2.1109,-2.1109,-2.1109,-2.1109,-2.1109,-2.1475,-2.1475,-2.1475,-2.1475,-2.1475,-2.1362,-2.1362,-2.141,-2.1456,-2.1189,-2.1296,-2.1456,-2.1189,-2.1109,-2.1109,-2.1109,-2.1109,-2.1109,-2.1109,-2.1235,-2.1429,0.0,-2.3006,-2.4491,-2.5358,-2.7541,-3.002,-3.2348,-3.3659,-3.5302,-3.8078,-3.8144,-3.8359,-3.9648,-3.9512,-3.957,-4.0351,-4.1322,-4.2657,-4.4591,-4.5319,-4.7073,-5.041,-5.0717,-5.1467,-5.2792,-5.2929,-5.2929,-5.2929,-5.2929,-5.2929,-5.2929,-5.2879,-5.2879,-5.2929,-5.2854,-5.2603,-5.2201,-5.2628,-5.2603,-5.2226,-5.2354,-5.2579,-5.2792,-5.2099,-5.196,-5.2099,-5.1516,-5.0962,-5.0676,-5.0239,-4.9624,-4.8844,-1.0717,-1.0717,-1.0717,-1.085,-1.1247,-1.1512,-1.1644,-1.2173,-1.2576,-1.2576,-1.27,-1.284,-1.284,-1.284,-1.3358,-1.4782,-1.4912,-1.5554,-1.685,-1.7496,-1.8139,-1.8908,-1.9559,-2.0208,-2.1109,-2.1109,-2.1109,-2.1109,-2.1109,-2.0895,-2.0494,-2.0307,-2.008,-1.9813,-2.0107,-2.0307,-2.0441,-2.0909,-2.1109,-2.1109,-2.1109,-2.1109,-2.1096,-2.0922,-2.0855,-2.0855,-2.0855,-2.0855,0.0,-2.0855,-2.0935,-2.1056,-2.1096,-2.1189,-2.1269,-2.1149,-2.1109,-2.1109,-2.1109,-2.1109,-2.1109,-2.1109,-2.1109,-2.1189,-2.1483,-2.2298,-2.3285,-2.507,-2.6907,-2.933,-3.2717,-3.4536,-3.6234,-3.8515,-3.9004,-3.9258,-3.9824,-3.9726,-3.9746,-4.0117,-4.0617,-4.1655,-4.3207,-4.4591,-4.6359,-4.9128,-5.0127,-5.1303,-5.2792,-5.2929,-5.2929,-5.2929,-5.2929,-5.2929,-5.2929,-5.2929,-5.2929,-5.2929,-5.2929,-5.2804,-5.2578,-5.2477,-5.2166,-5.1829,-5.2404,-5.2515,-5.2238,-5.2238,-5.1935,-5.1656,-5.1656,-5.137,-5.0986,-5.0392,-4.9793,-4.931,-1.0717,-1.0717,-1.0717,-1.0717,-1.085,-1.1115,-1.1247,-1.1776,-1.2173,-1.2305,-1.2576,-1.2708,-1.284,-1.2708,-1.3095,-1.4128,-1.4128,-1.452,-1.5554,-1.5934,-1.6581,-1.7485,-1.7999,-1.864,-1.9674,-2.0195,-2.0322,-2.0322,-2.0843,-2.0962,-2.0544,-2.0332,-1.9958,-1.9694,-1.9985,-2.0117,-2.0143,-2.0645,-2.0856,-2.0982,-2.0982,-2.0929,-2.0962,-2.0762,-2.0628,-2.0548,-2.0548,-2.0548,-2.0548,-2.0548,-2.0548,-2.0588,-2.0802,-2.0869,-2.0869,-2.0869,-2.0922,-2.0989,-2.0989,-2.1042,-2.1109,-2.1109,-2.1109,-2.1189,-2.1483,-2.1844,-2.2644,-2.4607,-2.6171,-2.8302,-3.2314,-3.4324,-3.6165,-3.8786,-3.9492,-3.9785,-4.0039,-3.9863,-3.9707,-3.9707,-3.9889,-4.0405,-4.1594,-4.3372,-4.5422,-4.7744,-4.9037,-5.064,-5.2566,-5.2703,-5.2779,-5.2929,-5.2929,-5.2929,-5.2929,-5.2779,-5.2779,-5.2929,-5.2779,-5.2703,-5.2678,-5.2277,-5.204,-5.1893,-5.2304,-5.2366,-5.2074,-5.1916,-5.159,-5.1296,-5.1436,-5.1296,-5.0968,-5.0331,-5.0035,-4.9713,-1.0717,-1.0717,-1.0717,-1.0717,-1.0717,-1.085,-1.1115,-1.1512,-1.1909,-1.2312,-1.2312,-1.2437,-1.2708,-1.2576,-1.2305,-1.2437,-1.2041,-1.1909,-1.1909,-1.3202,-1.3979,-1.3979,-1.5274,-1.6043,-1.6043,-1.7731,-1.864,-1.864,-2.0322,-2.0836,-2.0185,-2.0172,-1.9892,-1.9242,-1.9547,-1.9687,-1.9699,-1.9992,-2.0361,-2.0602,-2.0602,-2.0697,-2.0681,-2.0681,-2.0494,-2.0254,-2.0254,-2.0254,-2.0254,-2.0254,-2.0254,-2.0254,-2.0254,-2.0254,-2.0254,-2.0254,-2.0468,-2.0695,-2.0695,-2.0895,-2.1109,-2.1109,-2.1109,-2.1189,-2.1483,-2.1991,-2.2485,-2.2929,-2.4272,-2.6559,-2.9977,-3.182,-3.4337,-3.8542,-3.9219,-3.9531,-4.0391,-3.9766,-3.9219,-3.9219,-3.8867,-3.8935,-3.983,-4.1393,-4.3657,-4.6622,-4.7219,-4.8803,-5.199,-5.2126,-5.2377,-5.2904,-5.2929,-5.2929,-5.2929,-5.2402,-5.2402,-5.2929,-5.2377,-5.2126,-5.2126,-5.2126,-5.2402,-5.2879,-5.1918,-5.1992,-5.2717,-5.0962,-5.0839,-5.1582,-5.0734,-5.0433,-5.0506,-5.062,-5.0591,-5.0385,-1.0717,-1.0717,-1.0717,-1.0717,-1.0717,-1.0717,-1.085,-1.1115,-1.138,-1.1512,-1.1776,0.0,0.0,0.0,0.0,0.0,-1.2041,-1.1776,-1.1776,-1.2165,-1.2816,-1.3718,-1.4232,-1.4884,-1.5913,-1.6431,-1.6818,-1.6818,-1.7345,-1.7558,-1.7352,-1.7196,-1.6948,-1.6746,-1.6833,-1.7382,-1.8297,-1.8557,-1.9414,-2.0477,-2.0093,-2.0242,-2.0532,-1.982,-1.9546,-1.9548,0.0,-1.9536,-1.9947,-1.9947,-1.9947,-1.9987,-2.0174,-2.0227,-2.0227,-2.0227,-2.0441,-2.0681,-2.0681,-2.0895,-2.1109,-2.1109,-2.1109,-2.1189,-2.1483,-2.171,-2.1924,-2.2218,-2.3515,-2.5192,-2.7677,-3.0526,-3.3406,-3.6383,-3.8471,-3.9766,-4.0059,-4.0098,-3.9746,-3.8887,-3.8906,-3.8945,-3.8955,-4.0057,-4.2251,-4.6104,-4.6553,-4.8122,-5.1414,-5.19,-5.2176,-5.2377,-5.2729,-5.2929,-5.2929,-5.2754,-5.2754,-5.2929,-5.2729,-5.2653,-5.2653,-5.2653,-5.2391,-5.1918,-5.1904,-5.1705,-5.1369,-5.1021,-5.0861,-5.0604,-5.0332,-5.0255,-5.0433,-5.021,-5.0301,-5.0343,0.0,-1.0717,-1.0717,-1.0717,-1.0717,0.0,0.0,0.0,0.0,0.0,0.0,0.0,0.0,0.0,0.0,0.0,0.0,-1.138,-1.138,-1.138,-1.1769,-1.2676,-1.2676,-1.3062,-1.397,-1.4623,-1.5005,-1.5005,-1.5524,-1.5784,-1.5654,-1.5515,-1.5455,-1.5337,-1.5337,-1.5849,-1.6637,-1.6786,-1.7585,-1.8617,-1.8312,-1.8309,-1.8686,-1.8337,-1.8282,0.0,-1.8596,-1.8998,-1.9286,-1.9522,-1.9522,-1.9548,-1.9734,-1.9801,-1.9814,-2.004,-2.0281,-2.0535,-2.0641,-2.0895,-2.1109,-2.1109,-2.1109,-2.1162,-2.1349,-2.147,-2.1603,-2.179,-2.2965,-2.4409,-2.6313,-2.9264,-3.2246,-3.4733,-3.7066,-3.8672,-3.9121,-3.9414,-3.9277,-3.8437,-3.8574,-3.8691,-3.8594,-3.8983,-4.0966,-4.5259,-4.5907,-4.7492,-5.0838,-5.1498,-5.18,-5.18,-5.2528,-5.2729,-5.2352,-5.2352,-5.2352,-5.2352,-5.2528,-5.2628,-5.2628,-5.2628,-5.2191,-5.1369,-5.1439,-5.1264,-5.0955,-5.0581,-5.0265,-4.9903,-4.9768,-4.9694,-4.96,-4.9655,-4.9848,-5.0205,0.0,0.0,-1.0717,0.0,0.0,0.0,0.0,0.0,0.0,0.0,0.0,0.0,0.0,0.0,0.0,0.0,0.0,0.0,-1.0717,-1.0717,-1.0717,-1.0717,-1.0717,-1.0717,-1.0717,-1.2281,-1.3193,-1.3193,-1.4874,-1.5534,-1.5154,-1.5154,-1.5033,-1.4651,-1.4651,-1.4782,-1.4782,-1.4782,-1.5033,-1.5394,-1.516,-1.5197,-1.5474,-1.6464,-1.6709,-1.675,-1.7948,-1.8415,-1.8532,-1.9127,-1.9127,-1.8881,-1.8894,-1.8894,-1.9076,-1.9615,-2.0027,-2.0321,-2.0601,-2.0895,-2.1109,-2.1109,-2.1109,-2.1109,-2.1109,-2.1323,-2.1537,-2.1537,-2.2649,-2.408,-2.5798,-2.8178,-3.0711,-3.3367,-3.504,-3.6523,-3.7754,-3.7988,-3.8008,-3.793,-3.7969,-3.8144,-3.8496,-3.8203,-3.9841,-4.4302,-4.5377,-4.7258,-5.0131,-5.0921,-5.1247,-5.1247,-5.2277,-5.2352,-5.1297,-5.1272,-5.1272,-5.1297,-5.18,-5.2076,-5.2076,-5.2076,-5.1749,-5.1197,-5.067,-5.072,-5.1122,-4.9626,-4.924,-4.9313,-4.8913,-4.8536,-4.8363,-4.8844,-4.9373,-4.983,0.0,0.0,0.0,0.0,0.0,0.0,0.0,0.0,0.0,0.0,0.0,0.0,0.0,0.0,0.0,0.0,0.0,0.0,-1.0717,-1.0717,-1.0717,-1.0717,-1.0717,-1.0717,-1.0717,-1.1108,-1.1372,-1.1372,-1.1762,-1.2025,-1.1894,-1.1894,-1.1894,-1.1769,-1.1769,-1.2289,-1.3341,-1.3341,-1.3988,-1.5125,-1.476,-1.5327,-1.6339,-1.6057,-1.6808,-1.7948,-1.8077,-1.8194,-1.8415,-1.8661,-1.8648,-1.8687,-1.9377,-1.9443,-1.9365,-1.9907,-2.0334,-2.0575,-2.0655,-2.0895,-2.1109,-2.1109,-2.1109,-2.1109,-2.1109,-2.1162,-2.1229,-2.1229,-2.2332,-2.3243,-2.3465,-2.703,-3.0269,-3.1384,-3.4564,-3.7187,-3.7832,-3.8769,-3.9023,-3.8047,-3.8496,-3.8672,-3.8144,-3.8574,-4.0225,-4.3625,-4.4269,-4.5963,-4.9271,-5.0212,-5.0645,-5.0645,-5.1322,-5.1574,-5.1272,-5.1272,-5.1272,-5.1272,-5.1423,-5.1498,-5.1498,-5.1498,-5.1172,-5.0619,-5.0469,-5.0268,-4.9992,-4.9327,-4.9041,-4.8772,-4.8377,-4.8197,-4.8315,-4.8435,-4.882,-4.9229,0.0,0.0,0.0,0.0,0.0,0.0,0.0,0.0,0.0,0.0,0.0,0.0,0.0,0.0,0.0,0.0,0.0,0.0,0.0,-1.0982,-1.0982,-1.0982,-1.0717,-1.0717,-1.0717,-1.0717,-1.0717,-1.0717,-1.0717,-1.0717,-1.0717,-1.0717,-1.0717,-1.0717,-1.0717,-1.1115,-1.1901,-1.1901,-1.2684,0.0,0.0,-1.4537,-1.5888,-1.5899,-1.6605,-1.7553,-1.8064,-1.8382,-1.8606,-1.8711,-1.88,-1.8928,-1.9588,-1.9627,-1.9679,-2.0212,-2.0548,-2.0708,-2.0828,-2.0989,-2.1109,-2.1109,-2.1109,-2.1109,-2.1109,-2.1109,-2.1109,-2.1109,-2.2222,-2.2944,-2.2636,-2.6324,-2.9567,-3.0079,-3.3341,-3.623,-3.7226,-3.8164,-3.8613,-3.8262,-3.8633,-3.8809,-3.8516,-3.8574,-4.0022,-4.3309,-4.4041,-4.5711,-4.8942,-4.9987,-5.0318,-5.0067,-5.0845,-5.1147,-5.0896,-5.067,-5.067,-5.0896,-5.0896,-5.0896,-5.0896,-5.0896,-5.0594,-5.0067,-5.0067,-4.9736,-4.9332,-4.9202,-4.8812,-4.8313,-4.8026,-4.7955,-4.7954,-4.7954,-4.8291,-4.87,0.0,0.0,0.0,0.0,0.0,0.0,0.0,0.0,0.0,0.0,-1.0717,-1.0717,-1.0717,-1.0982,0.0,0.0,0.0,0.0,0.0,0.0,-1.1247,-1.1247,-1.085,-1.0717,-1.0717,-1.0717,-1.085,-1.0982,-1.0982,-1.1115,-1.1247,-1.1115,-1.1115,-1.1247,-1.1115,-1.1115,-1.1247,-1.1247,-1.1886,-1.3029,-1.2992,-1.3678,-1.5042,0.0,-1.6516,-1.6988,-1.8131,-1.8804,-1.9069,-1.9296,-1.9318,-1.9389,-1.9807,-1.9942,-1.9994,-2.0531,-2.0735,-2.0788,-2.1042,-2.1109,-2.1109,-2.1109,-2.1109,-2.1109,-2.1109,-2.1109,-2.1109,-2.1109,-2.2194,-2.3018,-2.2822,-2.5929,-2.8734,-2.957,-3.2245,-3.4766,-3.6504,-3.707,-3.7617,-3.8476,-3.8476,-3.8574,-3.8984,-3.8445,-3.9495,-4.293,-4.4157,-4.5916,-4.8843,-4.9812,-5.0017,-4.9615,-5.0544,-5.082,-5.0318,-4.9841,-4.9841,-5.0318,-5.0318,-5.0318,-5.0318,-5.0318,-5.0042,-4.959,-4.959,-4.9461,-4.9072,-4.9072,-4.8682,-4.8026,-4.7894,-4.7762,-4.7497,-4.7497,-4.7786,-4.8195,0.0,0.0,0.0,0.0,0.0,0.0,0.0,0.0,0.0,0.0,-1.0717,-1.085,0.0,0.0,0.0,0.0,0.0,0.0,0.0,0.0,0.0,-1.1247,-1.085,-1.0717,-1.0717,-1.0717,-1.124,-1.2421,-1.2421,-1.3079,-1.4128,-1.2947,-1.3079,-1.4128,-1.2947,-1.3079,-1.4128,-1.4128,-1.4289,-1.4391,-1.4354,-1.4993,-1.6074,-1.628,0.0,0.0,-1.9338,-1.9588,-1.9645,-1.9905,-1.9653,-1.9415,-2.0275,-2.0354,-2.0296,-2.0823,-2.1029,-2.1042,-2.1096,-2.1109,-2.1109,-2.1109,-2.1109,-2.1109,-2.1109,-2.1109,-2.1109,-2.1109,-2.1902,-2.2936,-2.3723,-2.621,-2.8841,-3.0846,-3.3028,-3.5195,-3.6934,-3.7246,-3.7617,-3.8476,-3.7949,-3.7676,-3.8105,-3.8789,-4.0013,-4.21,-4.3796,-4.574,-4.8273,-4.8885,-4.9213,-4.959,-4.9791,-4.9841,-4.9741,-4.964,-4.964,-4.9741,-4.9741,-4.9741,-4.9741,-4.9741,-4.969,-4.959,-4.959,-4.9461,-4.9072,-4.8837,-4.8445,-4.8026,-4.763,-4.7497,-4.7497,-4.7497,-4.7569,-4.7642,0.0,0.0,0.0,0.0,0.0,0.0,0.0,-1.0717,-1.0982,-1.1894,-1.2025,-1.1894,-1.1247,-1.2165,-1.2947,0.0,0.0,0.0,0.0,0.0,0.0,0.0,0.0,0.0,-1.3456,-1.3456,-1.3761,-1.4658,0.0,-1.4557,-1.5317,-1.4304,-1.425,-1.4912,-1.4128,-1.4259,-1.4912,-1.4912,-1.5235,-1.591,-1.591,-1.6743,-1.8034,0.0,0.0,0.0,0.0,-2.0067,-2.0296,-2.0433,-2.0309,-2.0335,-2.073,-2.0783,-2.0684,-2.1069,-2.1109,-2.1109,-2.1109,-2.1109,-2.1109,-2.1109,-2.1109,-2.1109,-2.1109,-2.1109,-2.1109,-2.1109,-2.2469,-2.3725,-2.4007,-2.686,-2.9511,-3.0644,-3.2867,-3.4902,-3.6426,-3.6836,-3.7285,-3.8144,-3.7676,-3.7645,-3.8528,-3.9096,-4.0281,-4.2804,-4.3741,-4.523,-4.7679,-4.8484,-4.9038,-4.9565,-4.959,-4.959,-4.959,-4.959,-4.959,-4.959,-4.959,-4.959,-4.959,-4.959,-4.959,-4.959,-4.959,-4.9332,-4.8837,-4.8706,-4.8313,-4.7762,-4.7497,-4.7497,-4.7497,-4.7497,-4.7497,-4.7497,0.0,0.0,0.0,0.0,0.0,0.0,-1.1115,-1.1534,-1.2344,-1.3647,-1.4033,-1.3647,-1.2476,-1.3884,-1.4903,0.0,0.0,0.0,0.0,0.0,0.0,0.0,0.0,0.0,-1.6055,0.0,0.0,-1.6992,-1.6419,0.0,0.0,0.0,0.0,0.0,-1.5564,-1.5554,-1.5944,-1.5814,-1.6462,0.0,0.0,-1.8407,-1.9711,0.0,0.0,0.0,0.0,-2.0526,-2.0775,-2.0775,-2.0922,-2.1109,-2.1109,-2.1109,-2.1109,-2.1109,-2.1149,-2.1203,-2.1203,-2.1243,-2.1296,-2.1296,-2.1243,-2.1203,-2.1203,-2.1149,-2.1235,-2.1601,-2.3155,-2.45,-2.4964,-2.7712,-3.0051,-3.0605,-3.242,-3.4297,-3.5684,-3.6172,-3.6738,-3.7676,-3.7344,-3.7589,-3.9172,-3.9416,-4.0672,-4.3425,-4.3927,-4.5059,-4.7209,-4.8284,-4.8962,-4.9414,-4.9414,-4.9464,-4.959,-4.959,-4.959,-4.959,-4.9464,-4.949,-4.959,-4.9339,-4.9364,-4.959,-4.9339,-4.9003,-4.8576,-4.8453,-4.8084,-4.7497,-4.7497,-4.7497,-4.7497,-4.7497,-4.7497,-4.7497,0.0,0.0,0.0,0.0,0.0,0.0,-1.2553,-1.413,-1.5433,-1.5565,-1.6095,-1.6491,-1.6359,-1.6306,-1.6322,0.0,0.0,0.0,0.0,0.0,0.0,0.0,0.0,0.0,0.0,0.0,0.0,-1.8719,-1.8562,0.0,0.0,0.0,0.0,0.0,0.0,-1.8022,-1.9188,-1.8804,0.0,0.0,0.0,0.0,0.0,0.0,0.0,0.0,0.0,-2.1069,-2.1069,-2.1069,-2.1082,-2.1109,-2.1109,-2.1109,-2.1109,-2.1109,-2.1296,-2.151,-2.151,-2.1697,-2.1911,-2.1911,-2.171,-2.151,-2.151,-2.1296,-2.1475,-2.3076,-2.3728,-2.4964,-2.7572,-2.86,-2.9647,-3.1667,-3.2455,-3.3496,-3.5215,-3.5488,-3.5976,-3.7207,-3.6641,-3.6816,-3.8541,-3.9862,-4.1069,-4.2397,-4.4328,-4.5905,-4.7032,-4.8209,-4.8786,-4.8837,-4.8837,-4.9088,-4.959,-4.959,-4.959,-4.959,-4.9088,-4.9113,-4.9565,-4.8535,-4.8636,-4.954,-4.851,-4.828,-4.8551,-4.8035,-4.7719,-4.7497,-4.7497,-4.7497,-4.7497,-4.7497,-4.7497,-4.7497,0.0,0.0,0.0,0.0,0.0,0.0,-1.4623,-1.558,-1.6522,-1.7577,-1.7971,-1.8507,-1.9565,-1.9597,-1.9277,-1.8629,-1.9374,0.0,0.0,0.0,0.0,0.0,0.0,0.0,0.0,0.0,-2.0306,-2.1015,-2.0597,0.0,0.0,0.0,0.0,0.0,0.0,-1.9328,-1.9839,-1.9724,0.0,0.0,0.0,0.0,0.0,0.0,0.0,0.0,0.0,0.0,-2.1109,-2.1109,-2.1109,-2.1109,-2.1109,-2.1109,-2.1109,-2.1109,-2.1323,-2.155,-2.155,-2.1764,-2.1991,-2.1991,-2.1897,-2.2024,-2.2594,-2.2836,-2.3184,-2.4456,-2.5757,-2.7091,-2.817,-2.9275,-3.0389,-3.1229,-3.1973,-3.2832,-3.4043,-3.4434,-3.5455,-3.7556,-3.7307,-3.7881,-4.0563,-4.1429,-4.2444,-4.411,-4.5296,-4.6175,-4.6627,-4.7355,-4.7933,-4.8234,-4.8259,-4.836,-4.8586,-4.8586,-4.8586,-4.8586,-4.836,-4.856,-4.9063,-4.8284,-4.8335,-4.9063,-4.8382,-4.8075,-4.8084,-4.7922,-4.77,-4.7497,-4.7497,-4.7497,-4.7497,-4.7497,-4.7497,-4.7497,0.0,0.0,0.0,0.0,0.0,-1.6193,-1.6441,-1.7293,-1.8267,-1.9543,-1.9744,-2.0253,-2.154,-2.1603,-2.1188,-2.0341,-2.1228,0.0,0.0,0.0,0.0,0.0,0.0,0.0,0.0,0.0,-2.2352,-2.2552,-2.1991,-2.1818,0.0,0.0,-2.0863,-2.0773,0.0,0.0,0.0,0.0,0.0,0.0,0.0,0.0,0.0,0.0,0.0,0.0,0.0,0.0,0.0,0.0,0.0,-2.1109,-2.1109,-2.1348,-2.1601,-2.1235,-2.1376,-2.1683,-2.1683,-2.1964,-2.2245,-2.2245,-2.2563,-2.3084,-2.3752,-2.4517,-2.525,-2.6487,-2.7783,-2.8853,-2.9241,-3.0329,-3.1035,-3.0918,-3.1504,-3.2266,-3.3125,-3.3974,-3.5308,-3.7439,-3.7817,-3.8937,-4.1891,-4.2697,-4.3747,-4.5579,-4.5773,-4.5949,-4.6301,-4.6677,-4.7129,-4.7657,-4.7682,-4.7757,-4.7908,-4.7908,-4.7908,-4.7908,-4.7757,-4.7983,-4.8485,-4.7782,-4.7933,-4.8761,-4.8081,-4.7824,-4.801,-4.767,-4.7472,-4.7473,-4.7329,-4.7377,-4.7497,-4.7497,-4.7497,-4.7497,0.0,0.0,0.0,0.0,0.0,-1.8011,-1.8011,-1.9665,-2.1137,-2.1424,-2.1476,-2.1657,-2.1951,-2.1724,-2.167,-2.1951,-2.2245,0.0,0.0,0.0,0.0,0.0,0.0,0.0,-2.2859,-2.2859,-2.2859,-2.2859,-2.2565,-2.2418,-2.2405,-2.2111,-2.183,-2.155,0.0,0.0,0.0,0.0,0.0,0.0,0.0,0.0,0.0,0.0,0.0,0.0,0.0,0.0,0.0,0.0,0.0,0.0,0.0,-2.1964,-2.2827,-2.1475,-2.1523,-2.1977,-2.1977,-2.2405,-2.2859,-2.2859,-2.3955,-2.5024,-2.5024,-2.6182,-2.7706,-2.9332,-2.9705,-3.0088,-3.1223,-3.1504,-3.1367,-3.0957,-3.125,-3.1816,-3.2676,-3.4245,-3.5728,-3.6639,-3.7868,-3.9427,-4.1715,-4.3288,-4.4768,-4.6225,-4.5271,-4.5121,-4.625,-4.6326,-4.6577,-4.7129,-4.7154,-4.738,-4.7908,-4.7908,-4.7908,-4.7908,-4.738,-4.7405,-4.7883,-4.6803,-4.723,-4.8711,-4.7234,-4.7329,-4.8502,-4.7012,-4.6819,-4.7449,-4.692,-4.704,-4.7497,-4.7497,-4.7497,-4.7497,0.0,0.0,0.0,0.0,0.0,0.0,-2.0081,-2.0837,-2.1461,-2.1553,-2.1603,-2.159,-2.1683,-2.1777,-2.1884,-2.1977,-2.2258,0.0,0.0,0.0,0.0,0.0,0.0,0.0,-2.2859,-2.2859,-2.2859,-2.2859,-2.2766,-2.2726,-2.2712,-2.2418,-2.2231,-2.2124,-2.1607,-2.1368,0.0,0.0,0.0,0.0,0.0,0.0,-2.1991,0.0,0.0,0.0,0.0,0.0,0.0,0.0,0.0,0.0,0.0,0.0,0.0,-2.4813,-2.4838,-2.4804,-2.5046,-2.5666,-2.6188,-2.6455,-2.6893,-2.7409,-2.8073,-2.8818,-2.9564,-3.0822,-3.1275,-3.1482,-3.1871,-3.1719,-3.1562,-3.1738,-3.2694,-3.3435,-3.4004,-3.5554,-3.7414,-3.9241,-4.1476,-4.2942,-4.3503,-4.4269,-4.5017,-4.5723,-4.5422,-4.5522,-4.6276,-4.5949,-4.5999,-4.6552,-4.6577,-4.6652,-4.6803,-4.6828,-4.6828,-4.6803,-4.6652,-4.6853,-4.7355,-4.6627,-4.6803,-4.7631,-4.6662,-4.6562,-4.6777,-4.6294,-4.6255,-4.6415,-4.6247,-4.6487,-4.6968,-4.6968,-4.6968,-4.6968,0.0,0.0,0.0,0.0,0.0,0.0,-2.1109,-2.1269,-2.143,-2.1537,-2.1456,-2.143,-2.1537,-2.1817,-2.1991,-2.1991,-2.2352,0.0,0.0,0.0,0.0,0.0,0.0,0.0,-2.2859,-2.2752,-2.2752,-2.2859,-2.2645,-2.2645,-2.2859,-2.2445,-2.2311,-2.2392,-2.1817,-2.155,0.0,0.0,0.0,0.0,0.0,0.0,-2.388,0.0,0.0,0.0,0.0,0.0,0.0,0.0,0.0,0.0,0.0,0.0,0.0,0.0,-2.7889,-2.8069,-2.7289,-2.7458,-2.7916,-2.818,-2.8689,-2.9275,-2.997,-3.081,-3.1533,-3.22,-3.2513,-3.2598,-3.2441,-3.2532,-3.2735,-3.2855,-3.4031,-3.5007,-3.5332,-3.685,-3.8716,-4.1184,-4.3313,-4.4544,-4.455,-4.4718,-4.5085,-4.5773,-4.5397,-4.5422,-4.5974,-4.5673,-4.5648,-4.5999,-4.5799,-4.5874,-4.6301,-4.61,-4.61,-4.6301,-4.6301,-4.6502,-4.6803,-4.6476,-4.6481,-4.6884,-4.639,-4.6238,0.0,-4.6118,-4.6054,-4.6199,-4.6006,-4.6247,-4.6704,-4.6704,-4.6704,-4.6752,0.0,0.0,0.0,0.0,0.0,0.0,0.0,-2.1109,-2.1203,-2.1483,-2.1283,-2.1216,-2.1496,-2.1804,-2.1991,-2.1991,-2.2525,0.0,0.0,0.0,0.0,0.0,0.0,-2.2859,-2.2859,-2.2592,-2.2579,-2.2859,-2.2311,-2.2325,-2.2846,-2.2285,-2.2164,-2.2392,-2.1817,-2.1679,0.0,0.0,0.0,0.0,-2.4819,-2.5662,0.0,0.0,0.0,0.0,0.0,0.0,0.0,0.0,0.0,0.0,0.0,0.0,0.0,0.0,0.0,0.0,0.0,-2.8307,-2.8558,-2.8558,-2.9735,-3.1029,-3.1029,-3.2237,0.0,-3.3418,-3.3418,-3.3301,-3.3034,-3.3882,-3.4569,-3.4414,-3.5371,-3.6318,-3.6824,-3.8015,-3.9802,-4.2147,-4.3555,-4.4476,-4.4898,-4.4736,-4.5146,-4.6225,-4.5296,-4.492,-4.5472,-4.5447,-4.5422,-4.5422,-4.4819,-4.5095,-4.6301,-4.5773,-4.5773,-4.6301,-4.6301,-4.6301,-4.6301,-4.6301,-4.6334,-4.6563,-4.6192,-4.6406,-4.7029,-4.6135,-4.6126,-4.6559,-4.6054,-4.6199,-4.6655,-4.6655,-4.6631,-4.668,0.0,0.0,0.0,0.0,0.0,0.0,0.0,0.0,0.0,0.0,-2.1149,-2.1136,-2.1203,-2.167,-2.1991,0.0,0.0,0.0,0.0,0.0,0.0,0.0,-2.2859,-2.2859,-2.2859,-2.2792,-2.2792,-2.2859,-2.2726,-2.2726,-2.2859,-2.2485,-2.2352,-2.2392,-2.1817,-2.2181,0.0,0.0,0.0,0.0,-2.637,-2.6909,0.0,0.0,0.0,0.0,-2.7619,-2.8314,0.0,0.0,0.0,0.0,0.0,0.0,0.0,0.0,-3.22,-3.2478,-3.2137,0.0,-3.1854,-3.211,-3.2492,-3.2765,0.0,-3.3165,-3.3418,-3.3418,-3.3418,-3.3631,-3.4634,-3.4677,-3.5118,-3.6316,-3.7361,-3.8134,-3.8494,-4.0669,-4.22,-4.2242,-4.4116,-4.5266,-4.4778,-4.5095,-4.5573,-4.625,-4.5673,-4.5347,-4.5472,-4.507,-4.4819,-4.4819,-4.389,-4.4317,-4.6301,-4.5773,-4.5773,-4.6301,-4.6301,-4.6301,-4.6301,-4.6301,-4.6134,-4.6016,-4.565,-4.5428,-4.54,-4.488,-4.502,-4.5501,-4.5381,-4.5645,-4.6102,-4.6102,-4.5862,-4.5525,0.0,0.0,0.0,0.0,0.0,0.0,0.0,0.0,0.0,0.0,-2.1109,-2.1109,-2.1109,-2.151,-2.1844,0.0,0.0,0.0,0.0,0.0,0.0,-2.2859,-2.2859,-2.2859,-2.2859,-2.2605,-2.2525,-2.2659,-2.2659,-2.2726,-2.2859,-2.2846,-2.2752,-2.2592,-2.2662,-2.3609,0.0,0.0,0.0,-2.816,-2.8491,0.0,0.0,0.0,0.0,0.0,-3.0041,-3.0755,0.0,-3.1206,-3.1728,-3.2527,0.0,0.0,0.0,0.0,-3.3086,-3.3125,-3.3359,-3.3292,-3.3165,-3.3292,-3.3418,-3.3418,-3.3418,-3.3418,-3.3418,-3.3418,-3.3902,-3.4528,-3.5253,-3.6125,-3.71,-3.7985,-3.9127,-3.987,-4.0245,-4.1629,-4.2806,-4.3078,-4.4351,-4.516,-4.5045,-4.5296,-4.5497,-4.5547,-4.5271,-4.497,-4.4719,-4.4418,-4.4242,-4.4242,-4.3413,-4.3915,-4.5924,-4.5372,-4.5497,-4.6301,-4.618,-4.618,-4.6301,-4.618,-4.6088,-4.5945,-4.5699,-4.5475,-4.5344,-4.5333,-4.5453,-4.5501,-4.5501,-4.5669,-4.5886,-4.5645,-4.5381,-4.5164,0.0,0.0,0.0,0.0,0.0,0.0,0.0,0.0,0.0,0.0,0.0,0.0,0.0,0.0,0.0,0.0,0.0,0.0,0.0,0.0,-2.2859,-2.2859,-2.2859,-2.2859,-2.2859,-2.2378,-2.2271,-2.2552,-2.2552,-2.2712,-2.3006,-2.3498,-2.3542,-2.3582,-2.4496,-2.568,-2.7117,-2.7701,-2.8827,-3.016,-3.0549,0.0,0.0,0.0,0.0,0.0,0.0,0.0,0.0,-3.3292,-3.3418,-3.3418,-3.3418,0.0,0.0,0.0,0.0,0.0,-3.3418,-3.3418,-3.3418,-3.3418,-3.3418,-3.3418,-3.3418,-3.3418,-3.3418,-3.367,-3.4652,-3.55,-3.5848,-3.779,-3.9239,-3.9567,-4.0574,-4.1408,-4.1728,-4.2054,-4.2815,-4.4078,-4.4561,-4.5045,-4.5447,-4.5422,-4.5196,-4.4794,-4.4593,-4.4292,-4.3815,-4.379,-4.3765,-4.3689,-4.3212,-4.3714,-4.5221,-4.4744,-4.5095,-4.6301,-4.5985,-4.5985,-4.6301,-4.5939,-4.5822,-4.6019,-4.5968,-4.5886,-4.5838,-4.6295,-4.6247,-4.591,-4.5838,-4.5814,-4.5742,-4.5309,-4.5092,-4.5068,0.0,0.0,0.0,0.0,0.0,0.0,0.0,0.0,0.0,0.0,0.0,0.0,0.0,0.0,0.0,0.0,0.0,0.0,0.0,-2.2859,-2.2859,-2.2859,-2.2859,-2.2859,-2.2859,-2.2779,-2.2873,-2.3193,-2.3193,-2.334,-2.3621,-2.4776,-2.5576,-2.6315,-2.7877,-2.8614,-2.9084,-3.0847,-3.1707,-3.2019,-3.2019,0.0,0.0,0.0,0.0,0.0,0.0,0.0,0.0,-3.3418,-3.3418,-3.3418,-3.3418,0.0,0.0,0.0,0.0,0.0,-3.3418,-3.3418,-3.3418,-3.3418,-3.3418,-3.3418,-3.3418,-3.3418,-3.367,-3.4881,-3.5253,-3.6093,-3.8268,-3.898,-3.9731,-4.1282,-4.1729,-4.1962,-4.2311,-4.3026,-4.3629,-4.4178,-4.526,-4.5899,-4.5522,-4.5045,-4.492,-4.5321,-4.4468,-4.389,-4.3815,-4.379,-4.3589,-4.3112,-4.3011,-4.3313,-4.4041,-4.3966,-4.4719,-4.6301,-4.5849,-4.5849,-4.6301,-4.5939,-4.5624,-4.5478,-4.5548,-4.5566,-4.5261,-4.5333,-4.5597,-4.5886,-4.5429,-4.5261,-4.5237,-4.5164,-4.4852,-4.4491,0.0,0.0,0.0,0.0,0.0,0.0,0.0,0.0,0.0,0.0,0.0,0.0,0.0,0.0,0.0,0.0,0.0,0.0,-2.2619,-2.2779,-2.2859,-2.2859,-2.2712,-2.2699,-2.2859,-2.2699,-2.2766,-2.3073,-2.4053,-2.4693,-2.4989,-2.645,-2.7605,-2.874,-2.924,-3.0084,-3.1084,-3.22,-3.2676,-3.2676,0.0,0.0,0.0,0.0,0.0,0.0,0.0,0.0,0.0,0.0,-3.3418,-3.3418,-3.3418,0.0,0.0,0.0,0.0,0.0,-3.3418,-3.3418,-3.3476,-3.3711,-3.3594,-3.3418,-3.3418,-3.3902,-3.4652,-3.5253,-3.646,-3.779,-3.898,-3.9826,-4.0621,-4.1753,-4.2206,-4.2635,-4.3105,-4.3419,-4.4042,-4.4836,-4.5429,-4.5773,-4.5522,-4.5246,-4.4945,-4.4593,-4.4091,-4.3664,-4.3363,-4.3363,-4.3237,-4.2986,-4.2986,-4.3237,-4.379,-4.3514,-4.4192,-4.5849,-4.5178,-4.5379,-4.6301,-4.5519,-4.5329,-4.5773,-4.5646,-4.5392,-4.5164,-4.5453,-4.5549,-4.5477,-4.5237,-4.514,-4.5092,-4.4804,-4.4563,-4.4347,0.0,0.0,0.0,0.0,0.0,0.0,0.0,0.0,0.0,0.0,0.0,0.0,0.0,0.0,0.0,0.0,0.0,0.0,-2.2418,-2.2699,-2.2859,-2.2859,-2.2645,-2.2632,-2.2859,-2.2645,-2.2971,-2.3736,-2.5135,-2.6369,-2.7292,-2.8478,-2.9613,-3.0839,-3.0663,-3.1302,-3.2549,-3.2931,-3.3038,-3.3038,0.0,0.0,0.0,0.0,0.0,0.0,0.0,0.0,0.0,0.0,0.0,0.0,0.0,0.0,0.0,-3.3418,-3.3418,-3.3418,-3.3418,-3.3418,-3.3496,-3.3828,-3.3985,-3.408,-3.4179,-3.5187,-3.6308,-3.6533,-3.8154,-3.9518,-3.9777,-4.0737,-4.1509,-4.1918,-4.2423,-4.3046,-4.3762,-4.3905,-4.4339,-4.5504,-4.5673,-4.5673,-4.5673,-4.5447,-4.492,-4.4066,-4.374,-4.3413,-4.3011,-4.2986,-4.2986,-4.2986,-4.2986,-4.3187,-4.3614,-4.3075,-4.3626,-4.5271,-4.4486,-4.4811,-4.598,-4.4833,-4.4743,-4.5625,-4.54,-4.5199,-4.4996,-4.5525,-4.5501,-4.5116,-4.4996,-4.4948,-4.49,-4.4491,-4.4347,-4.4347,0.0,0.0,0.0,0.0,0.0,0.0,0.0,0.0,0.0,0.0,0.0,0.0,0.0,0.0,0.0,0.0,0.0,0.0,-2.2418,-2.2699,-2.2859,-2.2859,-2.2846,-2.2846,-2.2859,-2.2846,-2.4052,-2.6275,-2.6349,-2.8068,-3.1012,-3.1059,-3.1781,-3.2748,-3.2682,-3.2765,-3.2931,-3.3165,-3.3418,-3.3418,-3.3418,0.0,0.0,0.0,0.0,0.0,0.0,0.0,0.0,0.0,0.0,0.0,0.0,0.0,-3.3418,-3.3418,-3.3418,-3.3418,-3.3418,-3.3418,-3.3437,-3.3457,-3.4725,-3.6121,-3.6535,-3.7614,-3.8993,-4.0127,-4.0128,-4.0287,-4.1542,-4.1918,-4.1918,-4.1966,-4.2423,-4.3167,-4.4228,-4.4421,-4.4882,-4.6055,-4.625,-4.625,-4.625,-4.5296,-4.4644,-4.4568,-4.3614,-4.3011,-4.2986,-4.2986,-4.2986,-4.2986,-4.2986,-4.2986,-4.3037,-4.265,-4.3198,-4.4669,-4.4116,-4.4211,-4.5047,-4.4146,-4.3958,-4.4135,-4.4302,-4.4395,-4.4443,-4.4972,-4.5164,-4.5092,-4.4587,-4.4395,-4.4395,-4.4371,-4.4347,-4.4347,0.0,0.0,0.0,0.0,0.0,0.0,0.0,0.0,0.0,0.0,0.0,0.0,0.0,0.0,0.0,0.0,0.0,0.0,-2.2284,-2.2699,-2.2859,-2.2859,-2.3742,-2.4386,-2.4452,-2.4775,-2.5469,-2.652,-2.8614,-3.0668,-3.2771,-3.2766,-3.2767,-3.2906,-3.3116,-3.3165,-3.3165,-3.3292,-3.3418,-3.3418,-3.3418,-3.3418,0.0,0.0,0.0,0.0,0.0,0.0,0.0,0.0,-3.3418,-3.3418,-3.3418,-3.3418,-3.3418,-3.3418,-3.3418,-3.3418,-3.3418,-3.3418,-3.3603,-3.4745,-3.6165,-3.7121,-3.6144,-3.8043,-4.0127,-4.0318,-4.1111,-4.1733,-4.2038,-4.1966,-4.1966,-4.1966,-4.2925,-4.3673,-4.3909,-4.4713,-4.5445,-4.5824,-4.61,-4.6175,-4.5824,-4.5095,-4.4493,-4.4141,-4.3413,-4.2986,-4.2986,-4.2986,-4.2986,-4.2986,-4.2986,-4.2874,-4.2625,-4.2737,-4.2849,-4.3044,-4.3049,-4.3522,-4.4476,-4.3579,-4.3252,-4.3527,-4.3723,-4.3818,-4.3866,-4.4419,-4.4635,-4.4635,-4.4419,-4.4347,-4.4347,-4.4347,-4.4347,-4.4347,0.0,0.0,0.0,0.0,0.0,0.0,0.0,0.0,0.0,0.0,0.0,0.0,0.0,0.0,0.0,0.0,0.0,0.0,-2.2271,-2.2686,-2.3283,-2.3966,-2.4788,-2.5604,-2.646,-2.7367,-2.8052,-2.8224,-3.1271,-3.3035,-3.3576,-3.3681,-3.3444,-3.3038,-3.3292,-3.3418,-3.3418,-3.3418,-3.3418,-3.3418,-3.3418,-3.3418,0.0,0.0,0.0,0.0,0.0,0.0,0.0,0.0,-3.3418,-3.3418,-3.3418,-3.3418,-3.3418,-3.3418,-3.3418,-3.3418,-3.3418,-3.3418,-3.3729,-3.5374,-3.7018,-3.8073,-3.6832,-3.9264,-4.155,-4.1364,-4.2231,-4.2784,-4.211,-4.1966,-4.1966,-4.1966,-4.2804,-4.343,-4.3497,-4.4615,-4.5345,-4.506,-4.5723,-4.5824,-4.5271,-4.4694,-4.4217,-4.384,-4.3288,-4.2986,-4.2986,-4.2986,-4.2986,-4.2986,-4.2986,-4.2874,-4.2625,-4.265,-4.2538,-4.2199,-4.2199,-4.2667,-4.3671,-4.2897,-4.2671,-4.3117,-4.3241,-4.3361,-4.3553,-4.413,-4.4347,-4.4347,-4.4347,-4.4347,-4.4347,-4.4347,-4.4347,-4.4347,0.0,0.0,0.0,0.0,0.0,0.0,0.0,0.0,-2.1109,-2.1109,-2.2098,0.0,0.0,0.0,0.0,0.0,0.0,0.0,-2.211,-2.2549,-2.3966,-2.631,-2.5831,-2.646,-2.8557,-3.0443,-3.1715,-3.2132,-3.4337,-3.479,-3.3527,-3.3934,-3.3828,-3.3418,-3.3418,-3.3418,-3.3418,-3.3418,-3.3418,-3.3418,-3.3418,-3.3418,-3.3418,0.0,0.0,0.0,0.0,0.0,0.0,0.0,-3.3418,-3.3418,-3.3418,-3.3418,-3.3418,-3.3418,-3.3418,-3.3418,-3.3418,-3.3418,-3.3796,-3.5149,-3.7164,-3.8962,-3.9231,-4.1398,-4.3673,-4.4227,-4.389,-4.3192,-4.2158,-4.1966,-4.1966,-4.1966,-4.1966,-4.2276,-4.3114,-4.3888,-4.4393,-4.4252,-4.5028,-4.5246,-4.4669,-4.4116,-4.379,-4.379,-4.3288,-4.2986,-4.2986,-4.2986,-4.2986,-4.2986,-4.2986,-4.2986,-4.2986,-4.2425,-4.2199,-4.2513,-4.1834,-4.1874,-4.236,-4.1849,-4.2074,-4.276,-4.276,-4.3048,-4.3553,-4.413,-4.4347,-4.4347,-4.4347,-4.4347,-4.4347,-4.4347,-4.4347,-4.4347,0.0,0.0,0.0,0.0,0.0,0.0,0.0,0.0,-2.1049,-2.1107,-2.1384,0.0,0.0,0.0,0.0,0.0,0.0,0.0,-2.2593,-2.2809,-2.3955,-2.6284,-2.7752,-2.9031,-3.0153,-3.2171,-3.3478,-3.3898,-3.4008,-3.4057,-3.3934,-3.375,-3.3535,-3.3418,-3.3418,-3.3418,-3.3418,-3.3418,-3.3418,-3.3418,-3.3418,-3.3418,-3.3418,0.0,0.0,0.0,0.0,0.0,0.0,0.0,0.0,0.0,-3.3418,-3.3418,-3.3418,-3.3418,-3.3418,-3.3418,-3.3418,-3.3418,-3.3981,-3.6618,-3.7761,-3.9076,-4.1583,-4.3214,-4.4034,-4.3818,-4.3625,-4.3192,-4.2158,-4.1966,-4.1966,-4.1966,-4.22,-4.2628,-4.3399,-4.3949,-4.4351,-4.4411,-4.4653,-4.4669,-4.4091,-4.389,-4.3526,-4.2899,-4.295,-4.2874,-4.2625,-4.2849,-4.2874,-4.265,-4.2625,-4.24,-4.2061,-4.2086,-4.1883,-4.1631,-4.1606,-4.1679,-4.1825,-4.1679,-4.188,-4.223,-4.2591,-4.3048,-4.3553,-4.413,-4.4347,-4.4347,-4.4347,-4.4347,-4.4347,-4.4347,-4.4347,-4.4347,0.0,0.0,0.0,0.0,0.0,0.0,0.0,0.0,-2.1122,-2.112,-2.1058,-2.1608,0.0,0.0,0.0,0.0,0.0,0.0,-2.29,-2.5501,-2.77,-2.9117,-2.9155,-3.0041,-3.1817,-3.3142,-3.3945,-3.4199,-3.3843,-3.3727,-3.3809,-3.373,-3.3691,-3.3691,-3.3691,-3.3691,-3.3672,-3.3496,-3.3418,-3.3418,-3.3418,-3.3418,-3.3418,0.0,0.0,0.0,0.0,0.0,0.0,0.0,0.0,0.0,-3.3867,-3.3691,-3.3457,-3.3633,-3.3691,-3.3691,-3.3691,-3.4171,-3.5346,-3.773,-3.894,-4.0218,-4.2851,-4.377,-4.3866,-4.3337,-4.3216,-4.2952,-4.2134,-4.1966,-4.1894,-4.1701,-4.2001,-4.233,-4.2788,-4.3474,-4.3896,-4.3762,-4.4051,-4.4091,-4.3539,-4.335,-4.3112,-4.2787,-4.2737,-4.2737,-4.2737,-4.2737,-4.2737,-4.2513,-4.2425,-4.2199,-4.1859,-4.1859,-4.1745,-4.1402,-4.1402,-4.1499,-4.1692,-4.1474,-4.191,-4.2615,-4.3144,-4.3553,-4.3866,-4.4202,-4.4347,-4.4347,-4.4347,-4.4347,-4.4347,-4.4347,-4.4347,-4.4371,0.0,0.0,-2.1793,-2.1793,0.0,0.0,0.0,0.0,-2.202,-2.1988,-2.2038,-2.2268,0.0,0.0,0.0,0.0,0.0,-2.388,-2.3851,-2.9785,-3.3405,-3.3379,-3.0424,-3.0191,-3.3292,-3.3418,-3.3418,-3.3418,-3.3828,-3.3809,-3.3437,-3.3867,-3.4082,-3.4082,-3.4082,-3.4082,-3.4043,-3.3613,-3.3418,-3.3418,-3.3418,-3.3418,-3.3418,-3.3418,0.0,0.0,0.0,0.0,0.0,0.0,0.0,0.0,-3.457,-3.416,-3.3613,-3.4004,-3.4121,-3.4121,-3.4121,-3.5409,-3.7106,-3.8395,-4.0275,-4.2156,-4.3214,-4.3433,-4.3289,-4.2808,-4.2735,-4.2591,-4.2014,-4.1942,-4.1822,-4.1341,-4.1426,-4.1631,-4.1728,-4.2692,-4.3134,-4.2662,-4.3212,-4.3539,-4.3011,-4.2737,-4.2625,-4.2874,-4.2625,-4.2625,-4.2874,-4.2625,-4.2513,-4.24,-4.2199,-4.1997,-4.1997,-4.1745,-4.1606,-4.1606,-4.1287,-4.1485,-4.2014,-4.1509,-4.2086,-4.3553,-4.4106,-4.4347,-4.4347,-4.4347,-4.4347,-4.4347,-4.4347,-4.4347,-4.4347,-4.4395,-4.4395,-4.4419,0.0,0.0,-2.7277,-2.7277,0.0,0.0,0.0,0.0,0.0,-2.916,0.0,0.0,0.0,0.0,0.0,0.0,-3.1139,-3.1145,-3.1135,-3.2079,-3.2872,-3.332,-3.2727,-3.267,-3.3418,-3.3418,-3.3418,-3.3418,-3.3516,-3.3516,-3.3437,-3.3867,-3.4082,-3.4082,-3.4082,-3.4082,-3.4043,-3.3613,-3.3418,-3.3418,-3.3418,-3.3418,-3.3418,-3.3418,-3.3418,0.0,0.0,0.0,0.0,0.0,0.0,0.0,-3.4668,-3.457,-3.4453,-3.4531,-3.457,-3.457,-3.457,-3.563,-3.7168,-3.8933,-4.1571,-4.3569,-4.312,-4.2928,-4.276,-4.2254,-4.2471,-4.2471,-4.1533,-4.1701,-4.1942,-4.1822,-4.1552,-4.1692,-4.2749,-4.261,-4.2609,-4.3159,-4.325,-4.3,-4.265,-4.2762,-4.2762,-4.2312,-4.265,-4.2762,-4.2337,-4.2425,-4.2287,-4.1834,-4.172,-4.1631,-4.1426,-4.1287,-4.1287,-4.1287,-4.1172,-4.1677,-4.2567,-4.2038,-4.2423,-4.3553,-4.4106,-4.4347,-4.4347,-4.4347,-4.4347,-4.4347,-4.4347,-4.4347,-4.4395,-4.4804,-4.4708,-4.4491,0.0,0.0,0.0,0.0,0.0,0.0,0.0,0.0,0.0,0.0,0.0,0.0,0.0,0.0,0.0,0.0,-3.3345,-3.345,-3.3386,-3.3123,-3.3008,-3.3418,-3.3418,-3.3418,-3.3418,-3.3418,-3.3418,-3.3418,-3.3418,-3.3418,-3.3437,-3.3867,-3.4082,-3.4082,-3.4277,-3.4258,-3.4062,-3.3828,-3.3613,-3.3418,-3.3418,-3.3418,-3.3418,-3.3418,-3.3418,-3.3418,-3.3418,0.0,0.0,0.0,0.0,0.0,0.0,0.0,-3.4746,-3.4961,-3.5547,-3.5922,-3.5152,-3.7218,-3.9919,-4.1706,-4.3467,-4.4443,-4.3361,-4.312,-4.2832,-4.1798,-4.1822,-4.1846,-4.1293,-4.1413,-4.1605,-4.1605,-4.1456,-4.171,-4.2616,-4.234,-4.2322,-4.2935,-4.2824,-4.2625,-4.2513,-4.2625,-4.265,-4.2312,-4.2425,-4.2425,-4.211,-4.2086,-4.1948,-4.1606,-4.1492,-4.1287,-4.1172,-4.1437,-4.1557,-4.1557,-4.1822,-4.2351,-4.312,-4.312,-4.3265,-4.3553,-4.4106,-4.4347,-4.4347,-4.4347,-4.4347,-4.4347,-4.4347,-4.4515,-4.4756,-4.5044,-4.5116,-4.5213,0.0,0.0,0.0,0.0,0.0,0.0,0.0,0.0,0.0,0.0,0.0,0.0,0.0,0.0,-3.3412,0.0,0.0,0.0,-3.3408,-3.3457,-3.3418,-3.3418,-3.3418,-3.3418,-3.3418,-3.3418,-3.3418,-3.3418,-3.3418,-3.3457,-3.3555,-3.3906,-3.4082,-3.4082,-3.4434,-3.4394,-3.4062,-3.3984,-3.375,-3.3418,-3.3418,-3.3418,-3.3418,-3.3418,-3.3418,-3.3437,-3.3496,-3.3809,-3.4238,-3.4668,0.0,0.0,0.0,0.0,-3.5,-3.5391,-3.6535,-3.7308,-3.6137,-3.9064,-4.2905,-4.4642,-4.5213,-4.4972,-4.3794,-4.3505,-4.3096,-4.1629,-4.1317,-4.1293,-4.1196,-4.1268,-4.1293,-4.1196,-4.1402,-4.1606,-4.1883,-4.1997,-4.2199,-4.2425,-4.2513,-4.2538,-4.2425,-4.2513,-4.24,-4.24,-4.2199,-4.211,-4.1997,-4.172,-4.1606,-4.1492,-4.1287,-4.1172,-4.1172,-4.1701,-4.1966,-4.199,-4.2591,-4.3096,-4.3529,-4.4082,-4.4106,-4.3673,-4.4154,-4.4347,-4.4347,-4.4347,-4.4347,-4.4347,-4.4347,-4.4683,-4.514,-4.5237,-4.5501,-4.5886,0.0,0.0,0.0,0.0,0.0,0.0,0.0,0.0,0.0,0.0,-3.3085,-3.3193,0.0,-3.3428,-3.3369,-3.3369,-3.3457,-3.3437,-3.3437,0.0,0.0,-3.3418,-3.3418,-3.3418,-3.3418,-3.3418,-3.3418,-3.3418,-3.3418,-3.3633,-3.4152,-3.4191,-3.4082,-3.4082,-3.4141,-3.4121,-3.4043,-3.3672,-3.3476,-3.3418,-3.3418,-3.3418,-3.3418,-3.3418,-3.3418,-3.3476,-3.3848,-3.4258,-3.4687,-3.5137,-3.5547,0.0,0.0,0.0,-3.5859,-3.5918,-3.6978,-3.8026,-3.776,-4.0323,-4.3345,-4.4737,-4.5477,-4.5405,-4.3866,-4.3505,-4.3192,-4.2086,-4.187,-4.1725,-4.1268,-4.1557,-4.1725,-4.1268,-4.1172,-4.1287,-4.1287,-4.1769,-4.211,-4.211,-4.265,-4.2762,-4.2199,-4.2312,-4.2287,-4.172,-4.1972,-4.1972,-4.172,-4.1606,-4.1492,-4.1287,-4.1172,-4.1172,-4.1172,-4.1701,-4.1966,-4.199,-4.2952,-4.3433,-4.3529,-4.4082,-4.4299,-4.4251,-4.4323,-4.4347,-4.4347,-4.4347,-4.4347,-4.4347,-4.4347,-4.4683,-4.5188,-4.5645,-4.5573,-4.5453,0.0,0.0,0.0,0.0,0.0,0.0,0.0,0.0,0.0,0.0,0.0,-3.335,-3.335,-3.3437,-3.3418,-3.3418,-3.3418,-3.3418,-3.3418,-3.3418,-3.3418,-3.3418,-3.3418,-3.3418,-3.3418,-3.3418,-3.3418,-3.3418,-3.3418,-3.3486,-3.3875,-3.4418,-3.4566,-3.4082,-3.4082,-3.3945,-3.3711,-3.3769,-3.3652,-3.3418,-3.3418,-3.3418,-3.3418,-3.3418,-3.3418,-3.3476,-3.3926,-3.4199,-3.4453,-3.5156,-3.6043,-3.687,-3.7132,0.0,0.0,0.0,-3.9085,-4.0162,-4.0927,-4.182,-4.3136,-4.5047,-4.5742,-4.5669,-4.4659,-4.4419,-4.4034,-4.2687,-4.2639,-4.2687,-4.2158,-4.2014,-4.1894,-4.1677,-4.1389,-4.1287,-4.1402,-4.1516,-4.1631,-4.1859,-4.2061,-4.2061,-4.1859,-4.2086,-4.2086,-4.1606,-4.172,-4.1745,-4.1402,-4.1402,-4.1287,-4.1172,-4.1172,-4.1317,-4.1629,-4.2158,-4.2711,-4.3313,-4.377,-4.3986,-4.3986,-4.4227,-4.4347,-4.4347,-4.4347,-4.4347,-4.4347,-4.4347,-4.4347,-4.4347,-4.4347,-4.4852,-4.5597,-4.5838,-4.615,-4.6559,0.0,0.0,0.0,0.0,0.0,0.0,0.0,0.0,0.0,0.0,0.0,-3.3418,-3.3418,0.0,0.0,0.0,-3.3418,-3.3418,-3.3418,-3.3418,-3.3418,-3.3418,-3.3418,-3.3418,-3.3418,-3.3418,-3.3418,-3.3418,-3.3418,-3.3486,-3.3727,-3.4418,-3.4645,-3.4575,-3.4269,-3.3945,-3.375,-3.3867,-3.3789,-3.3574,-3.3476,-3.3418,-3.3418,-3.3418,-3.3418,-3.3476,-3.3926,-3.4398,-3.4854,-3.5647,-3.6892,-3.8199,-3.8534,-3.9408,0.0,0.0,0.0,-4.1946,-4.333,-4.3364,-4.3449,-4.527,-4.5934,-4.591,-4.5116,-4.5044,-4.4732,-4.3265,-4.3241,-4.3433,-4.3216,-4.2711,-4.2279,-4.2014,-4.1749,-4.1601,-4.1541,-4.1499,-4.1595,-4.1801,-4.1818,-4.1769,-4.1801,-4.1932,-4.1859,-4.1492,-4.1492,-4.1402,-4.1172,-4.1172,-4.1172,-4.1172,-4.1317,-4.1581,-4.1966,-4.2615,-4.3433,-4.4347,-4.4347,-4.4347,-4.4347,-4.4491,-4.4467,-4.4347,-4.4347,-4.4347,-4.4347,-4.4347,-4.4347,-4.4371,-4.4491,-4.5116,-4.5934,-4.6078,-4.6631,-4.7329,0.0,0.0,0.0,0.0,0.0,0.0,0.0,0.0,0.0,0.0,0.0,-3.3418,-3.3418,-3.3418,-3.3418,-3.3418,-3.3418,-3.3418,-3.3418,-3.3418,-3.3418,-3.3418,-3.3418,0.0,-3.3418,-3.3418,-3.3418,-3.3418,-3.3418,-3.3819,-3.4586,-3.3875,-3.4297,-3.5882,-3.4595,-3.4277,-3.459,-3.3789,-3.3691,-3.4004,-3.3594,-3.3418,-3.3418,-3.3418,-3.3418,-3.3476,-3.3926,-3.52,-3.6763,-3.7281,-3.8633,-4.004,-4.0062,-4.0192,-4.0192,0.0,0.0,0.0,-4.3927,-4.4559,-4.499,-4.5164,-4.5934,-4.6271,-4.4732,-4.478,-4.4828,-4.3697,-4.3505,-4.3673,-4.4178,-4.3818,-4.312,-4.2134,-4.2375,-4.2327,-4.1317,-4.1837,-4.236,-4.236,-4.2176,-4.2168,-4.2311,-4.1898,-4.1492,-4.1287,-4.1172,-4.1172,-4.1172,-4.1172,-4.1172,-4.1172,-4.1677,-4.1942,-4.1966,-4.2976,-4.377,-4.4347,-4.4347,-4.4347,-4.4371,-4.4876,-4.4828,-4.4347,-4.4347,-4.4347,-4.4347,-4.4347,-4.4347,-4.4395,-4.49,-4.5429,-4.5982,-4.6487,-4.6704,-4.6824,0.0,0.0,0.0,0.0,0.0,0.0,0.0,0.0,0.0,0.0,0.0,0.0,0.0,-3.3418,-3.3418,-3.3418,-3.3418,-3.3418,-3.3418,-3.3418,-3.3418,-3.3418,-3.3418,-3.3418,-3.3418,-3.3418,-3.3418,-3.3418,-3.3418,-3.3506,-3.3895,-3.3895,-3.4446,-3.5198,-3.489,-3.4414,-3.3902,-3.3817,-3.3769,-3.3633,-3.3496,-3.3418,-3.3418,-3.3418,-3.3418,-3.3476,-3.3926,-3.504,-3.6411,-3.7177,-3.9088,-4.1054,-4.1392,-4.2143,-4.273,-4.2381,-4.2919,-4.363,-4.3767,-4.4202,-4.4708,-4.5044,-4.5429,-4.5549,-4.4972,-4.4996,-4.4924,-4.4202,-4.4058,-4.4227,-4.4756,-4.4106,-4.3385,-4.3024,-4.2856,-4.2735,-4.2687,-4.2951,-4.3192,-4.3554,-4.295,-4.2632,-4.2684,-4.191,-4.1432,-4.1653,-4.1365,-4.1341,-4.1677,-4.2014,-4.2206,-4.2206,-4.3048,-4.3505,-4.3505,-4.4202,-4.4491,-4.4347,-4.4347,-4.4347,-4.4347,-4.4539,-4.4539,-4.4371,-4.4708,-4.4852,-4.4828,-4.4491,-4.4756,-4.5333,-4.5188,-4.5669,-4.6463,-4.6631,-4.692,-4.7257,0.0,0.0,0.0,0.0,0.0,-3.3418,-3.3418,-3.3418,-3.3418,-3.3418,0.0,0.0,0.0,0.0,-3.3262,-3.3418,-3.3418,-3.3418,-3.3418,-3.3418,-3.3418,-3.3418,-3.3418,-3.3418,-3.3418,-3.3418,-3.3418,-3.3418,-3.3418,-3.3408,-3.3367,-3.3817,-3.405,-3.4303,-3.4648,-3.4531,-3.3902,-3.3805,-3.3739,-3.3633,-3.3476,-3.3418,-3.3437,-3.408,-3.4013,-3.3819,-3.5255,-3.637,-3.734,-3.8488,-4.0472,-4.2459,-4.2832,-4.3576,-4.4275,-4.389,-4.4058,-4.4275,-4.389,-4.4058,-4.4467,-4.4996,-4.4996,-4.4924,-4.5092,-4.4996,-4.4828,-4.4635,-4.4611,-4.4828,-4.5549,-4.4924,-4.4275,-4.4082,-4.3938,-4.3818,-4.3794,-4.3938,-4.4202,-4.4563,-4.3842,-4.3361,-4.3529,-4.276,-4.2399,-4.2735,-4.2447,-4.2399,-4.276,-4.3096,-4.3385,-4.3553,-4.4082,-4.4515,-4.4876,-4.4876,-4.478,-4.4611,-4.4443,-4.4347,-4.4347,-4.4539,-4.4611,-4.4635,-4.5164,-4.5188,-4.4876,-4.4876,-4.5188,-4.5645,-4.5669,-4.6102,-4.6728,-4.692,-4.7209,-4.7497,0.0,0.0,-3.3418,-3.3418,-3.3418,-3.3418,-3.3418,-3.3418,-3.3418,-3.3418,0.0,0.0,0.0,0.0,0.0,-3.3379,-3.3418,-3.3418,-3.3418,-3.3418,-3.3418,-3.3418,-3.3418,-3.3418,-3.3418,-3.3418,-3.3418,-3.3418,-3.3418,-3.3418,-3.3437,-3.3347,-3.3354,-3.3392,-3.3985,-3.4478,-3.4629,-3.3733,-3.3708,-3.4043,-3.3613,-3.3457,-3.3623,-3.5411,-3.5341,-3.4507,-3.7698,-3.9138,-3.966,-4.1092,-4.2856,-4.4323,-4.4347,-4.4347,-4.4347,-4.4347,-4.4347,-4.4347,0.0,0.0,0.0,-4.4972,-4.4708,-4.4467,-4.4972,-4.4683,-4.4467,-4.4996,-4.5116,-4.5453,-4.6487,-4.6271,-4.579,-4.5285,-4.5597,-4.5573,-4.4563,-4.4852,-4.5188,-4.5213,-4.4732,-4.4587,-4.5116,-4.4659,-4.4347,-4.4371,-4.4347,-4.4347,-4.4371,-4.4395,-4.4635,-4.5188,-4.4708,-4.4924,-4.5934,-4.4924,-4.4635,-4.5116,-4.4611,-4.4347,-4.4371,-4.4876,-4.5116,-4.5164,-4.5694,-4.5333,-4.4467,-4.5501,-4.5645,-4.5309,-4.6319,-4.6728,-4.68,-4.7305,-4.7497,-4.7497,0.0,-3.3418,-3.3418,-3.3418,-3.3418,-3.3418,-3.3418,-3.3418,-3.3418,0.0,0.0,0.0,-3.2535,-3.2971,-3.3301,-3.3418,-3.3418,-3.3418,-3.3418,-3.3418,-3.3418,-3.3418,-3.3418,-3.3418,-3.3418,-3.3418,-3.3418,-3.3418,-3.3125,-3.3125,-3.3418,-3.3078,-3.3136,-3.3447,-3.354,-3.3727,-3.3789,-3.3817,-3.4043,-3.4062,-3.3945,-3.4082,-3.4355,-3.4992,-3.4902,-3.4792,-3.668,-3.8059,-3.922,-4.0955,-4.2597,-4.3818,-4.4227,-4.4347,-4.4347,-4.4347,-4.4347,-4.4347,-4.4347,0.0,0.0,0.0,0.0,0.0,-4.3767,-4.3695,-4.389,-4.4443,-4.4876,-4.5333,-4.603,-4.6343,-4.6583,-4.68,-4.6319,-4.5958,-4.6054,-4.6175,-4.6415,-4.68,-4.6054,-4.5549,-4.5694,-4.4876,-4.4515,-4.49,-4.4563,-4.4515,-4.49,-4.5285,-4.591,-4.6824,-4.6704,-4.6583,-4.6487,-4.5814,-4.5381,-4.5116,-4.4611,-4.4347,-4.4347,-4.4491,-4.478,-4.5164,-4.5694,-4.5766,-4.5501,-4.5814,-4.6295,-4.6848,-4.6752,-4.6944,-4.7305,-4.7449,-4.7497,-4.7497,-3.3434,-3.3466,-3.3418,-3.3418,-3.3418,-3.3418,-3.3418,-3.3418,-3.3418,0.0,0.0,0.0,-3.2469,-3.2991,-3.3359,-3.3184,-3.3164,-3.3086,-3.291,-3.2891,-3.2891,-3.2891,-3.3066,-3.3164,-3.3164,-3.332,-3.334,-3.3164,-3.3086,-3.3086,-3.3164,-3.3086,-3.3184,-3.3437,-3.3359,-3.3339,-3.3437,-3.3691,-3.3809,-3.3828,-3.4004,-3.4219,-3.4603,-3.548,-3.5882,-3.6032,-3.7607,-3.9215,-4.0666,-4.1536,-4.2708,-4.3914,-4.4251,-4.4347,-4.4347,-4.4347,-4.4347,-4.4347,-4.4347,-4.4347,-4.4347,-4.4618,0.0,0.0,-4.3599,-4.3481,-4.3409,-4.4178,-4.478,-4.5357,-4.6102,-4.6511,-4.6896,-4.7425,-4.6992,-4.6776,-4.7305,-4.7185,-4.7233,-4.7762,-4.7088,-4.6583,-4.6583,-4.603,-4.579,-4.6102,-4.5838,-4.579,-4.6102,-4.6415,-4.6872,-4.7473,-4.7281,-4.7016,-4.6704,-4.5982,-4.5453,-4.514,-4.4828,-4.4563,-4.4371,-4.4804,-4.5164,-4.5501,-4.603,-4.6391,-4.6583,-4.6583,-4.6824,-4.7161,-4.7064,-4.7233,-4.7497,-4.7497,-4.7353,-4.7161,0.0,-3.3348,-3.3418,-3.3418,-3.3418,-3.3418,-3.3418,-3.3418,-3.3418,0.0,-3.3434,-3.3178,-3.2754,-3.3144,-3.3242,-3.2832,-3.2793,-3.2637,-3.2266,-3.2187,-3.2187,-3.2226,-3.2598,-3.2812,-3.2871,-3.3223,-3.3223,-3.2793,-3.3125,-3.3105,-3.2793,-3.3125,-3.332,-3.3418,-3.3418,-3.3418,-3.3418,-3.3418,-3.3418,-3.3457,-3.3945,-3.418,-3.4426,-3.6546,-3.7267,-3.757,-3.9541,-4.1258,-4.2761,-4.2581,-4.3326,-4.4347,-4.4347,-4.4347,-4.4347,-4.4347,-4.4347,-4.4347,-4.4347,-4.4347,-4.4443,-4.4876,-4.3914,0.0,-4.4058,-4.3529,-4.312,-4.413,-4.478,-4.5429,-4.6367,-4.6583,-4.6776,-4.7257,-4.7377,-4.7593,-4.8122,-4.781,-4.7666,-4.8147,-4.7786,-4.7497,-4.7497,-4.7497,-4.7497,-4.7497,-4.7497,-4.7497,-4.7497,-4.7497,-4.7497,-4.7497,-4.6992,-4.6704,-4.6704,-4.5669,-4.514,-4.514,-4.514,-4.49,-4.4467,-4.5477,-4.5958,-4.603,-4.6511,-4.7016,-4.7497,-4.7497,-4.7233,-4.6848,-4.7329,-4.7497,-4.7497,-4.7497,-4.7209,-4.693,-3.3164,-3.3379,-3.3418,-3.3418,-3.3418,-3.3418,-3.3418,-3.3418,-3.3418,-3.3418,-3.3359,-3.3066,-3.2363,-3.2969,-3.3242,-3.2832,-3.2793,-3.2754,-3.2676,-3.2363,-3.2324,-3.2656,-3.2754,-3.2949,-3.3301,-3.3379,-3.3223,-3.2793,-3.2539,-3.2539,-3.2793,-3.2539,-3.2773,-3.3418,-3.3418,-3.3418,-3.3418,-3.3418,-3.3418,-3.3496,-3.4258,-3.4805,-3.5195,-3.5953,-3.6285,-3.6689,-3.9256,-4.0388,-4.1102,-4.3224,-4.4099,-4.4347,-4.4347,-4.4347,-4.4347,-4.4347,-4.4347,-4.4347,-4.4347,-4.4347,-4.4299,-4.4499,-4.3965,0.0,-4.4208,-4.3747,-4.3553,-4.4202,-4.478,-4.5188,-4.5405,-4.579,-4.6102,-4.6223,-4.6583,-4.704,-4.7569,-4.7569,-4.7545,-4.7642,-4.7569,-4.7497,-4.7497,-4.7497,-4.7497,-4.7497,-4.7497,-4.7497,-4.7497,-4.7497,-4.7497,-4.7497,-4.6992,-4.6704,-4.6704,-4.5669,-4.514,-4.514,-4.514,-4.5092,-4.4996,-4.5645,-4.615,-4.6559,-4.6655,-4.7016,-4.7497,-4.7497,-4.7449,-4.7353,-4.7473,-4.7497,-4.7497,-4.7497,-4.7557,-4.7676,-3.3251,-3.3336,-3.3379,-3.3348,-3.3446,-3.3418,-3.3418,-3.3418,-3.3418,-3.3418,-3.3223,-3.2851,-3.2226,-3.2539,-3.2637,-3.2187,-3.2148,-3.207,-3.1855,-3.1641,-3.1621,-3.1836,-3.2051,-3.2363,-3.2793,-3.2793,-3.2695,-3.248,-3.2266,-3.2168,-3.2168,-3.2383,-3.2598,-3.2812,-3.3242,-3.3301,-3.3125,-3.332,-3.3418,-3.3496,-3.4355,-3.4844,-3.5117,-3.5781,-3.6403,-3.7193,-3.8639,-4.0084,-4.155,-4.3884,-4.4563,-4.4347,-4.4347,-4.4347,-4.4347,-4.4347,-4.4347,-4.4347,-4.4347,-4.4347,-4.4371,-4.4567,-4.4109,0.0,0.0,-4.3916,-4.3601,-4.3866,-4.4371,-4.4732,-4.4732,-4.5164,-4.5525,-4.5525,-4.5982,-4.6415,-4.668,-4.7161,-4.7593,-4.7858,-4.7666,-4.7497,-4.7497,-4.7497,-4.7497,-4.7497,-4.7497,-4.7497,-4.7497,-4.7497,-4.7497,-4.7497,-4.7233,-4.6968,-4.6704,-4.5934,-4.5405,-4.514,-4.514,-4.514,-4.5164,-4.5694,-4.6223,-4.6704,-4.6704,-4.7016,-4.7497,-4.7497,-4.7497,-4.7497,-4.763,-4.763,-4.7497,-4.7918,-4.771,-4.7223,-3.3315,-3.3129,-3.3086,-3.3342,-3.3414,-3.3359,-3.3418,-3.3418,-3.3379,-3.3155,-3.2844,-3.2455,-3.209,-3.2109,-3.2031,-3.168,-3.1562,-3.1406,-3.1152,-3.0976,-3.0918,-3.1016,-3.1328,-3.1719,-3.2148,-3.2168,-3.2129,-3.2051,-3.2051,-3.1855,-3.1543,-3.2226,-3.2402,-3.2207,-3.2969,-3.3105,-3.2832,-3.3242,-3.3418,-3.3496,-3.4355,-3.4779,-3.506,-3.5779,-3.6749,-3.7984,-3.8333,-4.0322,-4.2869,-4.4451,-4.4708,-4.4347,-4.4347,-4.4347,-4.4347,-4.4347,-4.4347,-4.4347,-4.4347,-4.4419,-4.4587,-4.49,-4.4395,-4.3914,0.0,0.0,0.0,-4.3673,-4.4034,-4.4347,-4.4347,-4.4611,-4.4852,-4.4972,-4.5333,-4.5645,-4.5766,-4.6583,-4.7353,-4.7786,-4.7449,-4.7233,-4.7329,-4.7449,-4.7497,-4.7497,-4.7497,-4.7497,-4.7497,-4.7497,-4.7497,-4.7497,-4.7401,-4.7088,-4.6559,-4.615,-4.5645,-4.514,-4.5333,-4.5453,-4.5453,-4.5886,-4.6367,-4.6872,-4.6752,-4.7016,-4.7497,-4.7497,-4.7497,-4.7497,-4.7894,-4.7894,-4.763,-4.8313,-4.7832,-4.692,-3.3155,-3.2207,-3.1616,-3.308,-3.3342,-3.3355,-3.3379,-3.3418,-3.3136,-3.242,-3.2649,-3.248,-3.168,-3.1934,-3.2148,-3.209,-3.1738,-3.166,-3.1992,-3.1309,-3.1055,-3.1426,-3.1504,-3.1719,-3.2148,-3.2168,-3.1973,-3.1582,-3.1582,-3.1562,-3.1523,-3.1621,-3.1836,-3.2187,-3.2656,-3.2832,-3.2832,-3.3242,-3.3418,-3.3496,-3.4355,-3.5102,-3.5886,-3.5929,-3.6569,-3.757,-3.9389,-4.1761,-4.4099,-4.4295,-4.4395,-4.4347,-4.4347,-4.4347,-4.4347,-4.4347,-4.4347,-4.4347,-4.4347,-4.4683,-4.4948,-4.4539,-4.4708,-4.4852,-4.4443,0.0,-4.4251,-4.4251,0.0,-4.4347,-4.4347,0.0,0.0,-4.4347,-4.4491,-4.4683,-4.5164,-4.5742,-4.6126,-4.6199,-4.615,-4.6295,-4.6752,-4.7233,-4.7497,-4.7497,-4.7497,-4.7497,-4.7497,-4.7497,-4.7497,-4.7497,-4.704,-4.6535,-4.603,-4.5958,-4.5645,-4.514,-4.6078,-4.6535,-4.6535,-4.6583,-4.692,-4.7377,-4.692,-4.7016,-4.7497,-4.7497,-4.7497,-4.7497,-4.7894,-4.8026,-4.8026,-4.8445,-4.8337,-4.8075,-3.1841,-3.1339,-3.1104,-3.188,-3.2779,-3.3421,-3.3379,-3.3418,-3.3164,-3.2338,-3.2402,-3.2109,-3.125,-3.1328,-3.1426,-3.1426,-3.1269,-3.123,-3.1406,-3.1094,-3.0976,-3.1152,-3.1152,-3.1348,-3.1777,-3.1543,-3.1465,-3.1523,-3.1269,-3.1152,-3.1152,-3.1406,-3.1484,-3.1465,-3.2383,-3.2656,-3.248,-3.3144,-3.3418,-3.3476,-3.4082,-3.4812,-3.5686,-3.5666,-3.6282,-3.7161,-3.7866,-4.0151,-4.2708,-4.2708,-4.344,-4.4347,-4.4347,-4.4347,-4.4347,-4.4347,-4.4347,-4.4347,-4.4347,-4.4515,-4.4708,-4.478,-4.4732,-4.4708,-4.478,-4.4563,-4.4347,-4.4347,0.0,0.0,0.0,0.0,0.0,0.0,-4.4347,-4.4419,-4.4635,-4.4587,-4.4876,-4.5814,-4.5934,-4.6006,-4.6223,-4.6463,-4.6583,-4.6583,-4.6872,-4.704,-4.704,-4.7329,-4.7497,-4.7497,-4.7281,-4.7064,-4.6848,-4.6223,-4.5958,-4.6054,-4.5573,-4.5814,-4.668,-4.6078,-4.6415,-4.7473,-4.6944,-4.7016,-4.7497,-4.7762,-4.7762,-4.7894,-4.842,-4.842,-4.8158,-4.8837,-4.8749,-4.8352,-3.0859,-3.0895,-3.0863,-3.0863,-3.225,-3.3434,-3.3355,-3.3172,-3.2878,-3.2246,-3.207,-3.1719,-3.0976,-3.0996,-3.1113,-3.123,-3.1133,-3.1113,-3.123,-3.1016,-3.0898,-3.0898,-3.0898,-3.1035,-3.1348,-3.1055,-3.1035,-3.1348,-3.1035,-3.0898,-3.0898,-3.1211,-3.1191,-3.0937,-3.2109,-3.2461,-3.2226,-3.3066,-3.3418,-3.3457,-3.3887,-3.4505,-3.5062,-3.5411,-3.6022,-3.685,-3.7212,-3.9073,-4.1406,-4.1777,-4.2796,-4.3914,-4.3914,-4.3914,-4.3938,-4.4082,-4.413,-4.4154,-4.4299,-4.4443,-4.4635,-4.4852,-4.4732,-4.4635,-4.4876,-4.4732,-4.4563,-4.4563,-4.4563,0.0,0.0,0.0,-4.4347,-4.4347,0.0,-4.4347,-4.4347,-4.3866,-4.401,-4.5333,-4.5621,-4.5645,-4.5501,-4.5742,-4.5934,-4.5934,-4.6271,-4.6559,-4.6704,-4.7064,-4.7281,-4.7281,-4.7281,-4.7209,-4.7064,-4.6319,-4.6199,-4.6704,-4.5405,-4.5525,-4.6896,-4.5838,-4.615,-4.7473,-4.6944,-4.7016,-4.7497,-4.7894,-4.8026,-4.8026,-4.8812,-4.8812,-4.842,-4.9332,-4.9135,-4.8505,-3.0897,-3.084,-3.0918,-3.0918,-3.2347,-3.3464,-3.3377,-3.2795,-3.2216,-3.225,-3.1797,-3.1367,-3.0937,-3.125,-3.166,-3.209,-3.1738,-3.168,-3.209,-3.1348,-3.0898,-3.0898,-3.0898,-3.0898,-3.0918,-3.0898,-3.0898,-3.0918,-3.0898,-3.0898,-3.0898,-3.0898,-3.0898,-3.0937,-3.1797,-3.2187,-3.2226,-3.3066,-3.3418,-3.3457,-3.3887,-3.4062,-3.43,-3.5448,-3.6349,-3.6957,-3.8204,-3.9601,-4.0999,-4.228,-4.2784,-4.2808,-4.2808,-4.2808,-4.2904,-4.3385,-4.3553,-4.3649,-4.4202,-4.4732,-4.4996,-4.4491,-4.4732,-4.4972,-4.4491,-4.4756,-4.5116,-4.5116,-4.5116,-4.5116,-4.5116,-4.4683,-4.4347,-4.4347,-4.4347,0.0,0.0,-4.3866,-4.3721,-4.4323,-4.4852,-4.4972,-4.4443,-4.5333,-4.5934,-4.5934,-4.5934,-4.6175,-4.668,-4.6728,-4.6728,-4.6728,-4.6728,-4.6487,-4.5982,-4.5934,-4.6199,-4.6704,-4.615,-4.6439,-4.7449,-4.6391,-4.6487,-4.7473,-4.6944,-4.7016,-4.7497,-4.7894,-4.8026,-4.8026,-4.8812,-4.9072,-4.9072,-4.9461,-4.9238,-4.8862,-3.0898,-2.7401,-2.5852,-3.0122,-3.0431,-3.0045,-3.0065,-3.1301,-3.1997,-3.145,-3.1711,-3.1777,-3.1348,-3.1699,-3.2012,-3.2148,-3.2031,-3.2012,-3.2148,-3.1894,-3.1738,-3.1738,-3.1738,-3.1601,-3.1309,-3.1309,-3.1172,-3.0898,-3.0898,-3.1035,-3.1309,-3.1016,-3.1035,-3.1328,-3.1914,-3.2168,-3.2226,-3.3066,-3.3418,-3.3437,-3.3574,-3.3984,-3.4583,-3.4675,-3.4732,-3.4719,-3.6061,-3.7616,-3.9254,-4.0491,-4.1708,-4.276,-4.276,-4.276,-4.2784,-4.2952,-4.3241,-4.3553,-4.3746,-4.4202,-4.4563,-4.4395,-4.4491,-4.4563,-4.4395,-4.4756,-4.514,-4.514,-4.5405,-4.5645,-4.5645,-4.5501,-4.5285,-4.4924,-4.4876,-4.4611,0.0,-4.3625,-4.3337,-4.2832,-4.3866,-4.4539,-4.4371,-4.4347,-4.4323,-4.4323,-4.4659,-4.4972,-4.514,-4.5814,-4.6343,-4.6704,-4.6367,-4.6271,-4.6439,-4.5742,-4.5669,-4.6175,-4.5645,-4.5766,-4.6463,-4.6439,-4.6631,-4.6992,-4.7161,-4.7329,-4.7497,-4.8182,-4.8445,-4.8445,-4.9202,-4.9461,-4.9461,-4.959,-4.949,-4.9339,-2.749,-2.4122,-2.3067,-2.8899,-2.9086,-2.8483,-2.9102,-3.0937,-3.1878,-3.1022,-3.1474,-3.1836,-3.1543,-3.2031,-3.2383,-3.2383,-3.2383,-3.2324,-3.2187,-3.2168,-3.209,-3.1953,-3.1934,-3.1816,-3.1523,-3.1523,-3.1309,-3.0898,-3.1035,-3.1172,-3.1289,-3.1016,-3.1035,-3.1328,-3.1914,-3.2168,-3.2226,-3.3066,-3.3418,-3.3418,-3.3418,-3.375,-3.4219,-3.3945,-3.3848,-3.3956,-3.5003,-3.6406,-3.8011,-3.934,-4.0786,-4.2206,-4.2206,-4.2206,-4.2279,-4.2639,-4.3,-4.3337,-4.3697,-4.4082,-4.4347,-4.4347,-4.4347,-4.4347,-4.4347,-4.4756,-4.514,-4.514,-4.5549,-4.5814,-4.5429,-4.5669,-4.5621,-4.4708,-4.4876,-4.4708,0.0,-4.3241,-4.3,-4.2327,-4.3505,-4.4202,-4.3818,-4.3625,-4.3433,-4.3265,-4.3577,-4.3938,-4.4323,-4.4996,-4.5597,-4.6126,-4.5814,-4.5814,-4.615,-4.5285,-4.5309,-4.6199,-4.5477,-4.5501,-4.6223,-4.6559,-4.6704,-4.6752,-4.7281,-4.7497,-4.7497,-4.8313,-4.86,-4.8731,-4.9357,-4.959,-4.959,-4.959,-4.959,-4.959,-2.1457,-2.1225,-2.2605,-2.7141,-2.8128,-2.8917,-3.0631,-3.1584,-3.1942,-3.1072,-3.1265,-3.1582,-3.1582,-3.2324,-3.2832,-3.2832,-3.2832,-3.2656,-3.2246,-3.2226,-3.2051,-3.1621,-3.1601,-3.1601,-3.1601,-3.1562,-3.1367,-3.0976,-3.1328,-3.1309,-3.0957,-3.0937,-3.0918,-3.0957,-3.1816,-3.2187,-3.2226,-3.3066,-3.3418,-3.3418,-3.3418,-3.3437,-3.3476,-3.3437,-3.3945,-3.4701,-3.5207,-3.6215,-3.7407,-3.8744,-4.0083,-4.1057,-4.1172,-4.1172,-4.1389,-4.2423,-4.2711,-4.2952,-4.401,-4.4299,-4.4323,-4.4347,-4.4347,-4.4347,-4.4347,-4.4756,-4.514,-4.514,-4.5549,-4.5621,-4.4611,-4.5237,-4.5405,-4.3818,-4.4223,-4.4319,-4.2928,-4.2592,-4.2616,-4.276,-4.3527,-4.3767,-4.2904,-4.3192,-4.3241,-4.276,-4.2735,-4.3192,-4.4202,-4.4323,-4.4587,-4.5116,-4.514,-4.514,-4.514,-4.4659,-4.5164,-4.6631,-4.5669,-4.5718,-4.668,-4.6728,-4.6728,-4.6752,-4.7281,-4.7497,-4.763,-4.8313,-4.86,-4.8731,-4.9332,-4.959,-4.959,-4.959,-4.959,-4.959,-2.122,-2.1156,-2.1582,-2.2779,-2.5892,-2.8859,-3.0596,-3.1616,-3.2037,-3.1576,-3.2085,-3.2461,-3.2461,-3.2949,-3.3262,-3.3262,-3.3262,-3.3223,-3.3105,-3.3105,-3.3047,-3.293,-3.293,-3.293,-3.293,-3.2324,-3.2109,-3.2305,-3.1465,-3.1328,-3.1836,-3.1504,-3.1367,-3.1387,-3.2246,-3.2461,-3.2226,-3.3066,-3.3418,-3.3418,-3.3418,-3.3809,-3.4297,-3.3672,-3.3945,-3.4701,-3.5207,-3.5623,-3.6215,-3.8506,-3.9474,-3.9826,-4.0942,-4.1172,-4.1317,-4.199,-4.2182,-4.2399,-4.3433,-4.3721,-4.3818,-4.4251,-4.4347,-4.4347,-4.4347,-4.4756,-4.514,-4.514,-4.5549,-4.5838,-4.5573,-4.5742,-4.5525,-4.4323,-4.2485,-4.1126,-4.0731,-3.9916,-4.0197,-4.2568,-4.2107,-4.2174,-4.3168,-4.2735,-4.2303,-4.2182,-4.2543,-4.288,-4.3144,-4.3914,-4.4587,-4.5116,-4.514,-4.514,-4.514,-4.5381,-4.5525,-4.5549,-4.6054,-4.6247,-4.615,-4.6944,-4.7088,-4.6752,-4.7281,-4.763,-4.7894,-4.8445,-4.8706,-4.8942,-4.9461,-4.959,-4.959,-4.959,-4.959,-4.959,-2.1191,-2.1151,-2.1868,-2.3981,-2.7713,-3.0777,-3.1378,-3.1572,-3.1564,-3.1385,-3.2144,-3.2734,-3.2539,-3.3223,-3.3633,-3.3437,-3.3418,-3.334,-3.3164,-3.332,-3.334,-3.3164,-3.3144,-3.3144,-3.3144,-3.25,-3.2187,-3.2246,-3.1523,-3.1309,-3.1601,-3.1348,-3.125,-3.1289,-3.2148,-3.2383,-3.2226,-3.3066,-3.332,-3.3164,-3.334,-3.3711,0.0,-3.3613,-3.373,-3.4211,-3.4458,-3.4881,-3.5623,-3.7067,-3.8268,-3.9334,-4.0083,-4.0687,-4.1293,-4.1822,-4.1966,-4.2158,-4.2976,-4.3168,-4.3313,-4.3842,-4.3986,-4.4034,-4.4299,-4.4587,-4.478,-4.478,-4.5213,-4.5429,-4.4948,-4.5261,-4.5309,-4.4491,-4.2239,-4.064,-4.064,-3.9333,-3.9007,-4.103,-4.05,-4.0299,-4.1568,-4.1322,-4.0763,-4.0032,-4.0167,-4.0898,-4.1848,-4.2414,-4.3346,-4.4756,-4.478,-4.49,-4.514,-4.5213,-4.5429,-4.5838,-4.6199,-4.6343,-4.6295,-4.7112,-4.7209,-4.6752,-4.7281,-4.763,-4.8026,-4.8445,-4.8837,-4.9072,-4.9461,-4.959,-4.959,-4.959,-4.959,-4.959,-2.1195,-2.1197,-2.2704,-2.7511,-3.0948,-3.2895,-3.2425,-3.1734,-3.1189,-3.1035,-3.207,-3.2656,-3.2285,-3.3242,-3.3769,-3.3457,-3.3418,-3.3262,-3.291,-3.3223,-3.3262,-3.2891,-3.2871,-3.2871,-3.2871,-3.2422,-3.2012,-3.168,-3.1523,-3.1269,-3.0976,-3.0976,-3.0937,-3.0918,-3.1777,-3.2168,-3.2226,-3.3008,-3.3125,-3.2832,-3.3242,-3.3418,-3.3418,-3.3418,-3.3418,-3.3418,-3.3418,-3.4153,-3.5129,-3.5376,-3.6824,-3.8744,-3.8862,-3.9709,-4.0806,-4.1564,-4.1683,-4.1755,-4.2591,-4.2711,-4.2784,-4.3289,-4.3457,-4.3649,-4.413,-4.4299,-4.4347,-4.4347,-4.4708,-4.4756,-4.3794,-4.4347,-4.4631,-4.3802,-4.2366,-4.1397,-4.1126,-3.9744,-3.8925,-3.9555,-3.9034,0.0,-3.9085,-3.9422,-3.907,-3.7539,-3.7396,-3.8398,-4.0686,-4.09,-4.19,-4.4199,-4.4491,-4.4732,-4.514,-4.4876,-4.5429,-4.6704,-4.6319,-4.6367,-4.6824,-4.7281,-4.7257,-4.6848,-4.7305,-4.7762,-4.8158,-4.8445,-4.8837,-4.9202,-4.9461,-4.959,-4.959,-4.959,-4.959,-4.959,-2.1159,-2.1189,-2.2704,-2.7511,-3.0035,-3.1721,-3.3048,-3.3094,-3.2779,-3.2031,-3.2441,-3.2773,-3.2695,-3.2891,-3.3125,-3.3398,-3.3418,-3.3398,-3.332,-3.3379,-3.3379,-3.332,-3.332,-3.332,-3.332,-3.2559,-3.2305,-3.2578,-3.1523,-3.1133,-3.1406,-3.1406,-3.123,-3.0918,-3.1777,-3.2168,-3.2207,-3.2695,-3.2871,-3.2832,-3.3242,-3.3418,-3.3418,-3.3418,-3.3418,-3.3418,-3.3418,-3.3544,-3.3902,-3.5005,-3.5746,-3.6215,-3.7309,-3.779,-3.8238,-3.9836,-4.0055,-4.0176,-4.2233,-4.2447,-4.223,-4.276,-4.3192,-4.3529,-4.3625,-4.401,-4.4347,-4.4347,-4.4419,-4.4419,-4.4227,-4.3986,-4.3009,-4.0725,-4.0672,-4.0478,-3.9339,-3.9023,-3.9405,-4.0921,-3.9641,-3.8247,-3.7338,-3.7838,-3.8087,-3.7876,-3.7876,-3.8753,-4.0686,-4.1245,-4.2273,-4.4199,-4.5188,-4.5477,-4.514,-4.6343,-4.6872,-4.6728,-4.7064,-4.7281,-4.7377,-4.7473,-4.7449,-4.7377,-4.7714,-4.8182,-4.8576,-4.8812,-4.9202,-4.9461,-4.959,-4.959,-4.959,-4.959,-4.959,-4.959,-2.1203,-2.1181,-2.2495,-2.6768,-2.9335,-3.0859,-3.061,-3.2227,-3.3125,-3.2285,-3.2734,-3.3125,-3.3125,-3.3125,-3.3301,-3.373,-3.3359,-3.3184,-3.3398,-3.3418,-3.3418,-3.3418,-3.3418,-3.332,-3.3105,-3.248,-3.2266,-3.248,-3.1621,-3.1328,-3.1523,-3.1523,-3.1289,-3.0918,-3.1543,-3.1836,-3.1875,-3.2519,-3.2676,-3.2519,-3.3164,-3.3418,-3.3418,-3.3418,-3.3418,-3.3418,-3.3418,-3.3418,-3.3544,-3.4153,-3.4757,-3.55,-3.6093,-3.6824,-3.7473,-3.8297,-3.8447,-3.8596,-4.0432,-4.0763,-4.0811,-4.2088,-4.2519,-4.2856,-4.3385,-4.3721,-4.3986,-4.4275,-4.4347,-4.4347,-4.4347,-4.3488,-4.2654,-4.2131,-4.1171,-4.0509,-4.0509,-3.9365,-3.8809,-3.967,-3.8143,-3.6705,-3.6073,-3.5963,-3.581,-3.5583,-3.5914,-3.7,-3.9344,-3.9192,-4.0558,-4.3767,-4.3508,-4.3915,-4.5549,-4.5492,-4.6012,-4.7112,-4.6824,-4.6968,-4.7497,-4.7209,-4.7233,-4.7497,-4.7894,-4.8182,-4.86,-4.9202,-4.9461,-4.959,-4.959,-4.959,-4.959,-4.959,-4.959,-4.959,-2.1176,-2.1244,-2.2208,-2.5361,-2.8027,-2.9276,-2.8037,-3.0754,-3.2768,-3.2015,-3.2747,-3.3281,-3.3281,-3.3281,-3.3457,-3.3887,-3.332,-3.3066,-3.3398,-3.3418,-3.3418,-3.3418,-3.3418,-3.3184,-3.2676,-3.2344,-3.2129,-3.2031,-3.168,-3.1562,-3.166,-3.1562,-3.1289,-3.0898,-3.123,-3.1426,-3.1562,-3.2344,-3.2519,-3.2363,-3.3125,-3.3418,-3.3418,-3.3418,-3.3418,-3.3418,-3.3418,-3.3418,-3.3418,-3.3418,-3.4153,-3.5005,-3.5253,-3.6093,-3.7067,-3.7528,-3.7648,-3.8029,-3.9239,-3.9592,-3.9942,-4.1444,-4.1894,-4.2182,-4.3,-4.3361,-4.3625,-4.4082,-4.4003,-4.3974,-4.4223,-4.32,-4.2546,-4.3302,-4.1888,-4.0839,-4.1377,-3.9823,-3.8333,-3.7984,-3.6769,-3.5712,-3.5137,-3.457,-3.3984,-3.3457,-3.375,-3.5093,-3.7514,-3.7087,-3.8546,-4.248,-4.1539,-4.2433,-4.5372,-4.4519,-4.5162,-4.7497,-4.6655,-4.6704,-4.7497,-4.7064,-4.7112,-4.7497,-4.7894,-4.8445,-4.8837,-4.9332,-4.959,-4.959,-4.9177,-4.9177,-4.9047,-4.8787,-4.8632,-4.8632,-2.119,-2.1191,-2.1669,-2.3145,-2.4611,-2.5986,-2.7131,-2.9653,-3.1285,-3.0862,-3.2028,-3.2851,-3.2851,-3.2851,-3.3027,-3.3437,-3.3418,-3.3379,-3.3418,-3.3418,-3.3418,-3.3418,-3.3418,-3.3047,-3.2246,-3.2187,-3.1973,-3.1582,-3.1543,-3.1719,-3.209,-3.1699,-3.1289,-3.0898,-3.0937,-3.1152,-3.1543,-3.2031,-3.2422,-3.2773,-3.3242,-3.3418,-3.3418,-3.3418,-3.3418,-3.3418,-3.3418,-3.3418,-3.3418,-3.3418,-3.3418,-3.3796,-3.5005,-3.55,-3.5971,-3.8387,-3.898,-3.9334,-4.0687,-4.1057,-4.1081,-4.1244,-4.1629,-4.199,-4.2086,-4.2832,-4.3529,-4.3577,-4.2973,-4.2799,-4.4099,-4.32,-4.1888,-4.071,-4.1505,-4.1248,-3.8904,-3.9408,-3.9389,-3.7681,-3.7357,-3.6485,-3.4407,-3.4473,-3.4297,-3.3476,-3.3457,-3.4266,-3.6269,-3.6601,-3.7806,-3.9787,-4.0935,-4.2371,-4.4025,-4.4815,-4.5885,-4.7497,-4.7401,-4.7401,-4.7497,-4.7449,-4.7449,-4.7497,-4.8182,-4.8967,-4.9461,-4.959,-4.959,-4.9461,-4.8109,-4.7557,-4.7425,-4.6043,-4.5638,-4.5638,-2.1698,-2.2053,-2.2557,-2.3354,-2.5167,-2.621,-2.5751,-2.8914,-3.0992,-2.9948,-3.1739,-3.3281,-3.3535,-3.3105,-3.3066,-3.375,-3.334,-3.3144,-3.3398,-3.3418,-3.3418,-3.3418,-3.3184,-3.2773,-3.2187,-3.1914,-3.1699,-3.1523,-3.1777,-3.1992,-3.2168,-3.2246,-3.1914,-3.125,-3.0996,-3.0976,-3.1191,-3.1875,-3.2266,-3.248,-3.3144,-3.3418,-3.3418,-3.3418,-3.3418,-3.3418,-3.3418,-3.3418,-3.3418,-3.3418,-3.3418,-3.3544,-3.4027,-3.4757,-3.5623,-3.6581,-3.6946,-3.7429,-3.9474,-3.9474,-3.9239,-4.0826,-4.0737,-4.0599,-4.1777,-4.1899,-4.2249,-4.3312,-4.3445,-4.3701,-4.4223,-4.32,-4.2166,-4.1505,-4.1248,-4.0603,-3.954,-3.9167,-3.8603,-3.7618,-3.6415,-3.5381,-3.425,-3.3984,-3.3789,-3.3437,-3.3672,-3.4386,-3.5645,-3.5585,-3.6676,-3.8991,-3.8716,-3.9719,-4.2125,-4.2136,-4.344,-4.5779,-4.5779,-4.6366,-4.7497,-4.7161,-4.7472,-4.8182,-4.8706,-4.9202,-4.959,-4.8632,-4.824,-4.8109,-4.6603,-4.6066,-4.6066,-4.5368,-4.5232,-4.5232,-2.2421,-2.2856,-2.3232,-2.3723,-2.5282,-2.5976,-2.476,-2.7703,-2.9882,-2.9248,-3.1341,-3.3008,-3.3848,-3.334,-3.3223,-3.3828,-3.3223,-3.293,-3.3223,-3.3242,-3.3184,-3.3066,-3.2891,-3.2539,-3.1992,-3.168,-3.1523,-3.1523,-3.1816,-3.2109,-3.2363,-3.2519,-3.2148,-3.1328,-3.1016,-3.0957,-3.1133,-3.1855,-3.2246,-3.2422,-3.3125,-3.3418,-3.3418,-3.3418,-3.3418,-3.3418,-3.3418,-3.3418,-3.3418,-3.3418,-3.3418,-3.3418,-3.3902,-3.4652,-3.55,-3.5848,-3.5971,-3.6338,-3.8149,-3.8268,-3.8268,-4.0199,-4.0199,-4.0177,-4.142,-4.1401,-4.1583,-4.3118,-4.318,-4.2989,-4.3678,-4.227,-4.1119,-4.1119,-4.0192,-3.9408,-3.9014,-3.8109,-3.7238,-3.6648,-3.552,-3.4492,-3.3945,-3.3594,-3.3418,-3.3418,-3.3711,-3.4112,-3.4777,-3.4735,-3.5581,-3.7467,-3.7018,-3.7859,-4.0382,-4.0234,-4.1507,-4.3961,-4.4524,-4.5495,-4.6784,-4.6981,-4.7685,-4.8706,-4.8942,-4.9047,-4.8918,-4.7821,-4.7136,-4.6603,-4.5119,-4.4573,-4.4573,-4.4161,-4.3885,-4.3885,-2.3125,-2.3048,-2.3256,-2.3769,-2.4154,-2.4479,-2.4525,-2.6019,-2.7668,-2.8986,-3.0419,-3.1835,-3.3292,-3.3418,-3.3418,-3.3437,-3.3047,-3.2793,-3.2793,-3.2793,-3.2617,-3.2207,-3.2578,-3.2402,-3.1543,-3.1523,-3.1523,-3.1523,-3.1523,-3.1953,-3.2773,-3.2363,-3.1719,-3.0898,-3.0898,-3.1113,-3.1543,-3.1973,-3.2402,-3.2832,-3.3242,-3.3418,-3.3418,-3.3418,-3.3418,-3.3418,-3.3418,-3.3418,-3.3418,-3.3418,-3.3418,-3.367,-3.5005,-3.5376,-3.5623,-3.6946,-3.7309,-3.7309,-3.7309,-3.8268,-3.9216,-3.9216,-4.0199,-4.1196,-4.1196,-4.1605,-4.2279,-4.3289,-4.1342,-3.9986,-4.1924,-4.0062,-3.8109,-3.8109,-3.8109,-3.7595,-3.6287,-3.6016,-3.5684,-3.4805,-3.4707,-3.4355,-3.3516,-3.3418,-3.3418,-3.3418,-3.3437,-3.3418,-3.3418,-3.4238,-3.4687,-3.4707,-3.5976,-3.7468,-3.8927,-3.982,-4.0953,-4.2469,-4.4324,-4.5278,-4.5414,-4.7184,-4.842,-4.9072,-4.9072,-4.8502,-4.7425,-4.7425,-4.6603,-4.5119,-4.3631,-4.3097,-4.2958,-4.1431,-4.1004,-4.1004,-2.3083,-2.3414,-2.3636,-2.3701,-2.4187,-2.451,-2.4262,-2.5681,-2.7311,-2.8742,-3.0155,-3.1664,-3.3253,-3.3418,-3.3184,-3.2617,-3.2715,-3.2676,-3.2383,-3.2363,-3.2305,-3.2168,-3.2012,-3.1797,-3.1523,-3.123,-3.1094,-3.1094,-3.1367,-3.1816,-3.2363,-3.1934,-3.1582,-3.1309,-3.1016,-3.0957,-3.1133,-3.1855,-3.2246,-3.2422,-3.3144,-3.3418,-3.3418,-3.3418,-3.3418,-3.3418,-3.3418,-3.3418,-3.3418,-3.3418,-3.3418,-3.3418,-3.3902,-3.4652,-3.5623,-3.6946,-3.7309,-3.767,-3.9474,-3.9592,-3.9474,-4.0316,-3.9592,-3.9003,-4.0803,-4.0857,-4.0542,-4.0455,-3.9841,-3.9599,-4.0285,-3.9952,-3.9167,-3.8242,-3.8109,-3.7595,-3.6152,-3.6016,-3.5801,-3.5234,-3.5176,-3.4941,-3.4355,-3.4043,-3.3867,-3.3867,-3.3867,-3.3867,-3.3867,-3.4394,-3.4844,-3.5156,-3.5859,-3.6484,-3.6873,-3.7749,-3.8987,-4.0488,-4.1689,-4.3448,-4.5661,-4.5685,-4.6493,-4.7557,-4.6736,-4.6201,-4.5797,-4.4846,-4.4183,-4.3631,-4.2116,-4.1573,-4.1573,-4.1004,-4.0882,-4.0882,-2.3091,-2.3281,-2.3627,-2.3735,-2.4115,-2.4393,-2.4437,-2.5393,-2.6572,-2.7997,-2.9282,-3.0628,-3.2036,-3.268,-3.2793,-3.2441,-3.2344,-3.2207,-3.1934,-3.1934,-3.1855,-3.1699,-3.1582,-3.1445,-3.1289,-3.1035,-3.0898,-3.0898,-3.1309,-3.1582,-3.168,-3.1582,-3.1426,-3.1269,-3.1016,-3.0898,-3.0937,-3.1621,-3.1934,-3.1992,-3.2851,-3.3184,-3.3203,-3.3359,-3.3418,-3.3418,-3.3418,-3.3418,-3.3418,-3.3418,-3.3418,-3.3418,-3.3418,-3.3902,-3.4757,-3.5602,-3.5848,-3.6215,-3.779,-3.8029,-3.8029,-3.8766,-3.8149,-3.779,-3.9357,-3.935,-3.8851,-3.8605,-3.8434,-3.8252,-3.8616,-3.8569,-3.8187,-3.7441,-3.7327,-3.7018,-3.5936,-3.5781,-3.5625,-3.5176,-3.5137,-3.5019,-3.4726,-3.4453,-3.4316,-3.4316,-3.4316,-3.4394,-3.457,-3.4824,-3.5098,-3.5391,-3.5801,-3.6016,-3.6016,-3.6875,-3.7847,-3.8942,-4.0526,-4.2753,-4.5391,-4.4846,-4.5255,-4.6201,-4.5526,-4.4846,-4.4298,-4.3492,-4.2818,-4.2138,-4.1289,-4.0882,-4.0882,-4.0882,-4.0882,-4.0903,-2.3018,-2.3106,-2.334,-2.394,-2.4086,-2.4305,-2.4876,-2.4979,-2.5517,-2.6808,-2.78,-2.8876,-2.9992,-3.1275,-3.2163,-3.2715,-3.1992,-3.1504,-3.1484,-3.1465,-3.1309,-3.0918,-3.1269,-3.1289,-3.0898,-3.0898,-3.0898,-3.0898,-3.1289,-3.1269,-3.0898,-3.1289,-3.1269,-3.0898,-3.0898,-3.0898,-3.0918,-3.1348,-3.1523,-3.1582,-3.2422,-3.2773,-3.2832,-3.3223,-3.3398,-3.3418,-3.3418,-3.3418,-3.3418,-3.3418,-3.3418,-3.3418,-3.3418,-3.3418,-3.3418,-3.3544,-3.3544,-3.3544,-3.367,-3.4528,-3.55,-3.55,-3.646,-3.7309,-3.7067,-3.7067,-3.7297,-3.7754,-3.6769,-3.6201,-3.7109,-3.6262,-3.5527,-3.5957,-3.5996,-3.584,-3.5449,-3.5371,-3.5195,-3.4805,-3.4746,-3.4766,-3.4785,-3.4766,-3.4746,-3.4746,-3.4746,-3.4941,-3.5371,-3.543,-3.543,-3.543,-3.582,-3.6016,-3.6016,-3.6875,-3.7626,-3.8127,-4.0589,-4.2796,-4.4573,-4.4436,-4.4709,-4.5096,-4.496,-4.4161,-4.2958,-4.2958,-4.2138,-4.0882,-4.0882,-4.0882,-4.0882,-4.0882,-4.0882,-4.0944,-2.2725,-2.3135,-2.353,-2.3691,-2.413,-2.4335,-2.3998,-2.4145,-2.483,-2.6229,-2.6423,-2.7613,-3.0683,-3.0594,-3.0831,-3.2285,-3.1836,-3.1387,-3.1055,-3.1035,-3.0996,-3.0898,-3.0996,-3.0996,-3.0898,-3.0898,-3.0898,-3.0898,-3.0996,-3.0996,-3.0898,-3.0996,-3.0996,-3.0898,-3.0898,-3.0898,-3.0918,-3.1348,-3.1523,-3.1562,-3.209,-3.2519,-3.2812,-3.291,-3.3144,-3.3418,-3.3418,-3.3418,-3.3418,-3.3418,-3.3418,-3.3418,-3.3418,-3.3418,-3.3544,-3.4652,-3.4881,-3.5129,-3.6093,-3.6581,-3.6824,-3.6824,-3.7067,-3.6824,-3.4757,-3.5129,-3.5644,-3.4649,-3.4572,-3.4735,-3.527,-3.5402,-3.5527,-3.5957,-3.5742,-3.5508,-3.541,-3.5078,-3.4961,-3.5195,-3.5234,-3.5351,-3.5684,-3.541,-3.5234,-3.5234,-3.5234,-3.5273,-3.5391,-3.5703,-3.5879,-3.5879,-3.5976,-3.6152,-3.6384,-3.7292,-3.8204,-3.9269,-4.0187,-4.1551,-4.3053,-4.2095,-4.2398,-4.3492,-4.2398,-4.1693,-4.1431,-4.1431,-4.1147,-4.0882,-4.0882,-4.0882,-4.0882,-4.0882,-4.0882,-4.0882,-2.2564,-2.2901,-2.3237,-2.3545,-2.3881,-2.4057,-2.3852,-2.3969,-2.4331,-2.5092,-2.5422,-2.6417,-2.8391,-2.8518,-2.898,-3.0566,-3.0992,-3.1133,-3.0898,-3.0898,-3.0898,-3.0898,-3.0898,-3.0898,-3.0898,-3.0898,-3.0898,-3.0898,-3.0898,-3.0898,-3.0898,-3.0898,-3.0898,-3.0898,-3.0898,-3.0898,-3.0898,-3.1133,-3.123,-3.1289,-3.1914,-3.2305,-3.2559,-3.293,-3.3223,-3.3418,-3.3418,-3.3418,-3.3418,-3.3418,-3.3418,-3.3418,-3.3418,-3.3418,-3.3544,-3.4278,-3.4528,-3.4632,-3.5376,-3.5479,-3.5479,-3.5479,-3.5479,-3.5129,-3.365,-3.3902,-3.4278,-3.3544,-3.3613,-3.3906,-3.4336,-3.4609,-3.4922,-3.5351,-3.5215,-3.5,-3.4824,-3.457,-3.457,-3.5019,-3.5078,-3.5332,-3.5957,-3.582,-3.5684,-3.5684,-3.5799,-3.5933,-3.5933,-3.6285,-3.6287,-3.6016,-3.6132,-3.6268,-3.6519,-3.7488,-3.8668,-4.0022,-4.0106,-4.0817,-4.1693,-4.1147,-4.1289,-4.1997,-4.1289,-4.0882,-4.0882,-4.0882,-4.0882,-4.0882,-4.0882,-4.0882,-4.0882,-4.0882,-4.0882,-4.0903,-2.2374,-2.2564,-2.2798,-2.3354,-2.353,-2.3676,-2.3896,-2.3984,-2.4013,-2.4013,-2.4726,-2.5282,-2.5454,-2.6215,-2.7159,-2.8473,-2.9751,-3.049,-3.0781,-3.0859,-3.0859,-3.0781,-3.0781,-3.0781,-3.0781,-3.0781,-3.082,-3.0898,-3.0898,-3.0898,-3.0898,-3.0898,-3.0898,-3.0898,-3.0898,-3.0898,-3.0898,-3.0898,-3.0898,-3.0957,-3.1758,-3.207,-3.2148,-3.293,-3.3281,-3.332,-3.332,-3.3379,-3.3418,-3.3418,-3.3418,-3.3418,-3.3418,-3.3418,-3.3418,-3.3418,-3.3418,-3.3418,-3.3418,-3.3418,-3.3418,-3.3418,-3.3418,-3.3418,-3.3418,-3.3418,-3.3418,-3.3418,-3.3418,-3.3555,-3.3984,-3.4082,-3.4219,-3.4629,-3.4648,-3.4473,-3.4121,-3.4023,-3.416,-3.4648,-3.4707,-3.5039,-3.5937,-3.6016,-3.6016,-3.6016,-3.6403,-3.6654,-3.6654,-3.6944,-3.6809,-3.6152,-3.6403,-3.6714,-3.6853,-3.7854,-3.9122,-4.0453,-4.0306,-4.0448,-4.0882,-4.0882,-4.0882,-4.0882,-4.0882,-4.0882,-4.0882,-4.0882,-4.0882,-4.0882,-4.0882,-4.0882,-4.0882,-4.0882,-4.0882,-4.0924,-2.1818,-2.2257,-2.2652,-2.2754,-2.3223,-2.3515,-2.3296,-2.3501,-2.3676,-2.3676,-2.351,-2.4018,-2.5548,-2.5253,-2.5588,-2.688,-2.7767,-2.888,-3.0159,-3.0664,-3.0723,-3.0332,-3.0312,-3.0312,-3.0312,-3.0312,-3.0488,-3.0898,-3.0898,-3.0898,-3.0898,-3.0898,-3.0898,-3.0898,-3.0898,-3.0898,-3.0898,-3.0898,-3.0898,-3.0937,-3.1426,-3.1621,-3.168,-3.2168,-3.2578,-3.2891,-3.2891,-3.3125,-3.3418,-3.3418,-3.3418,-3.3418,-3.3418,-3.3418,-3.3418,-3.3418,-3.3418,-3.3418,-3.3418,-3.3418,-3.3418,-3.3418,-3.3418,-3.3418,-3.3418,-3.3418,-3.3418,-3.3418,-3.3418,-3.3555,-3.3984,-3.4082,-3.4219,-3.4629,-3.4394,-3.4141,-3.4082,-3.375,-3.3828,-3.4609,-3.4707,-3.5039,-3.5937,-3.6268,-3.6384,-3.6384,-3.6809,-3.6944,-3.6944,-3.7079,-3.7079,-3.6944,-3.6944,-3.7577,-3.8621,-3.8726,-3.9399,-4.0862,-4.0427,-4.0448,-4.0882,-4.0882,-4.0882,-4.0882,-4.0882,-4.0882,-4.0882,-4.0882,-4.0882,-4.0882,-4.0882,-4.0882,-4.0882,-4.0882,-4.0882,-4.0882,-2.1657,-2.192,-2.2228,-2.2564,-2.2871,-2.3076,-2.3106,-2.3237,-2.3325,-2.3325,-2.3208,-2.3414,-2.4174,-2.3871,-2.4291,-2.6321,-2.6871,-2.7833,-2.942,-2.9922,-3.0176,-3.0195,-3.0195,-3.0312,-3.0566,-3.0332,-3.043,-3.0898,-3.0898,-3.0898,-3.0898,-3.0898,-3.0898,-3.0898,-3.0898,-3.0898,-3.0898,-3.0898,-3.0898,-3.0918,-3.1348,-3.1523,-3.1562,-3.2012,-3.2422,-3.2793,-3.2793,-3.3066,-3.3418,-3.3418,-3.3418,-3.3418,-3.3418,-3.3418,-3.3418,-3.3418,-3.3418,-3.3418,-3.3418,-3.3418,-3.3418,-3.3418,-3.3418,-3.3418,-3.3418,-3.3418,-3.3418,-3.3418,-3.3418,-3.3476,-3.3691,-3.373,-3.3789,-3.3984,-3.3848,-3.373,-3.373,-3.3555,-3.3652,-3.4297,-3.4355,-3.4838,-3.5835,-3.6048,-3.6415,-3.6789,-3.7213,-3.7348,-3.7348,-3.7636,-3.7636,-3.7636,-3.7482,-3.7807,-3.889,-3.8574,-3.9164,-4.051,-4.0075,-4.022,-4.0882,-4.0882,-4.0882,-4.0882,-4.0882,-4.0882,-4.0882,-4.0882,-4.0882,-4.0882,-4.0882,-4.0882,-4.0882,-4.0882,-4.0882,-4.0882,-2.154,-2.1642,-2.1847,-2.233,-2.2476,-2.2608,-2.2857,-2.2901,-2.2915,-2.2988,-2.2988,-2.2988,-2.2988,-2.2769,-2.3308,-2.5255,-2.5949,-2.684,-2.7955,-2.8983,-2.9707,-3.0039,-3.0059,-3.0312,-3.0879,-3.0332,-3.0332,-3.0898,-3.0898,-3.0898,-3.0898,-3.0898,-3.0898,-3.0898,-3.0898,-3.0898,-3.0898,-3.0898,-3.0898,-3.0918,-3.1348,-3.1465,-3.1426,-3.1855,-3.2226,-3.2519,-3.2617,-3.293,-3.3281,-3.3379,-3.3418,-3.3418,-3.3418,-3.3418,-3.3418,-3.3418,-3.3418,-3.3418,-3.3418,-3.3418,-3.3418,-3.3418,-3.3418,-3.3418,-3.3418,-3.3418,-3.3418,-3.3418,-3.3418,-3.3418,-3.3418,-3.3418,-3.3418,-3.3418,-3.3418,-3.3418,-3.3418,-3.3418,-3.3594,-3.4152,-3.4211,-3.4634,-3.5778,-3.609,-3.6423,-3.7031,-3.7421,-3.775,-3.775,-3.8037,-3.8191,-3.8191,-3.7904,-3.8109,-3.8833,-3.8398,-3.8854,-4.0179,-3.9744,-4.0013,-4.0882,-4.0882,-4.0882,-4.0882,-4.0882,-4.0882,-4.0882,-4.0882,-4.0882,-4.0882,-4.0882,-4.0882,-4.0882,-4.0882,-4.0882,-4.0882,-2.1247,-2.1496,-2.1715,-2.1759,-2.2023,-2.2228,-2.2242,-2.2257,-2.2345,-2.2623,-2.2652,-2.2652,-2.2652,-2.2637,-2.2627,-2.2467,-2.4643,-2.5835,-2.5552,-2.8052,-2.959,-2.9609,-2.9609,-3.0019,-3.0879,-3.0059,-3.0039,-3.0898,-3.0898,-3.0898,-3.0898,-3.0898,-3.0898,-3.0898,-3.0898,-3.0898,-3.0898,-3.0898,-3.0898,-3.0918,-3.1348,-3.1289,-3.0976,-3.1406,-3.1582,-3.166,-3.207,-3.248,-3.291,-3.3281,-3.3418,-3.3418,-3.3418,-3.3418,-3.3418,-3.3418,-3.3418,-3.3418,-3.3418,-3.3418,-3.3418,-3.3418,-3.3418,-3.3418,-3.3418,-3.3418,-3.3418,-3.3418,-3.3418,-3.3418,-3.3418,-3.3418,-3.3418,-3.3418,-3.3418,-3.3418,-3.3418,-3.3418,-3.3701,-3.4536,-3.4576,-3.4883,-3.5621,-3.6436,-3.6811,-3.6851,-3.7657,-3.8191,-3.8191,-3.8191,-3.8191,-3.8191,-3.8191,-3.8398,-3.8854,-3.8398,-3.8854,-4.0179,-3.9744,-4.0013,-4.0882,-4.0882,-4.0882,-4.0882,-4.0882,-4.0882,-4.0882,-4.0882,-4.0882,-4.0882,-4.0882,-4.0882,-4.0882,-4.0882,-4.0882,-4.0882,-2.1203,-2.1306,-2.1452,-2.1657,-2.1803,-2.195,-2.2154,-2.2184,-2.2228,-2.233,-2.2506,-2.2623,-2.2623,-2.2623,-2.2822,-2.3549,-2.4061,-2.4762,-2.5405,-2.7391,-2.888,-2.9941,-2.9707,-2.998,-3.0879,-3.0019,-3.0,-3.0898,-3.0898,-3.0898,-3.0898,-3.0898,-3.0898,-3.0898,-3.0898,-3.0898,-3.0898,-3.0898,-3.0898,-3.0898,-3.1074,-3.1035,-3.0918,-3.1074,-3.1289,-3.1543,-3.1699,-3.2207,-3.2812,-3.2988,-3.3203,-3.3418,-3.3418,-3.3418,-3.3418,-3.3418,-3.3418,-3.3418,-3.3418,-3.3418,-3.3418,-3.3418,-3.3418,-3.3418,-3.3418,-3.3418,-3.3418,-3.3418,-3.3418,-3.3418,-3.3418,-3.3544,-3.367,-3.367,-3.3922,-3.4047,-3.4047,-3.4047,-3.4107,-3.4412,-3.4432,-3.4719,-3.5544,-3.6139,-3.6787,-3.7205,-3.779,-3.8191,-3.8191,-3.8191,-3.8191,-3.8191,-3.8191,-3.8253,-3.844,-3.8274,-3.873,-3.9785,-3.962,-4.0013,-4.0882,-4.0882,-4.0882,-4.0882,-4.0882,-4.0882,-4.0882,-4.0882,-4.0882,-4.0882,-4.0882,-4.0882,-4.0882,-4.0882,-4.0882,-4.0882,-2.1203,-2.1203,-2.1276,-2.1511,-2.154,-2.1613,-2.1847,-2.1876,-2.192,-2.2023,-2.2198,-2.2374,-2.2476,-2.2476,-2.2885,-2.3823,-2.3771,-2.4217,-2.5608,-2.7368,-2.8937,-3.0176,-2.9922,-3.0059,-3.0664,-3.0078,-3.0137,-3.0898,-3.0898,-3.0898,-3.0898,-3.0898,-3.0898,-3.0898,-3.0898,-3.0898,-3.0898,-3.0898,-3.0898,-3.0898,-3.0898,-3.0898,-3.0898,-3.0898,-3.1074,-3.1328,-3.1465,-3.1992,-3.2617,-3.2754,-3.3066,-3.3418,-3.3418,-3.3418,-3.3418,-3.3418,-3.3418,-3.3418,-3.3418,-3.3418,-3.3418,-3.3418,-3.3418,-3.3418,-3.3418,-3.3418,-3.3418,-3.3544,-3.3544,-3.3544,-3.367,-3.3922,-3.4047,-3.4047,-3.4298,-3.4423,-3.4423,-3.4423,-3.4423,-3.4548,-3.4548,-3.4794,-3.5476,-3.5927,-3.6527,-3.7239,-3.7715,-3.8026,-3.8171,-3.8191,-3.8191,-3.8191,-3.8191,-3.8191,-3.8191,-3.8191,-3.8647,-3.9537,-3.9537,-4.0013,-4.0882,-4.0882,-4.0882,-4.0882,-4.0882,-4.0882,-4.0882,-4.0882,-4.0882,-4.0882,-4.0882,-4.0882,-4.0882,-4.0882,-4.0882,-4.0882,-2.1203,-2.1203,-2.1203,-2.1203,-2.1203,-2.1203,-2.1203,-2.1203,-2.132,-2.1657,-2.1701,-2.1818,-2.214,-2.2184,-2.2301,-2.2593,-2.35,-2.4594,-2.5625,-2.8182,-2.9766,-3.0176,-3.0195,-3.0195,-3.0195,-3.0195,-3.043,-3.0898,-3.0898,-3.0898,-3.0898,-3.0898,-3.0898,-3.0898,-3.0898,-3.0898,-3.0898,-3.0898,-3.0898,-3.0898,-3.0898,-3.0898,-3.0898,-3.0898,-3.0898,-3.0937,-3.1367,-3.1797,-3.2226,-3.2656,-3.3066,-3.3418,-3.3418,-3.3418,-3.3418,-3.3418,-3.3418,-3.3418,-3.3418,-3.3418,-3.3418,-3.3418,-3.3418,-3.3418,-3.3418,-3.3418,-3.3544,-3.3796,-3.3922,-3.4047,-3.4298,-3.4423,-3.4423,-3.4423,-3.4423,-3.4423,-3.4423,-3.4423,-3.4548,-3.4922,-3.4922,-3.5046,-3.5418,-3.5832,-3.6308,-3.6763,-3.7239,-3.7695,-3.8171,-3.8191,-3.8191,-3.8191,-3.8191,-3.8191,-3.8191,-3.8191,-3.8647,-3.9537,-3.9537,-4.0013,-4.0882,-4.0882,-4.0882,-4.0882,-4.0882,-4.0882,-4.0882,-4.0882,-4.0882,-4.0882,-4.0882,-4.0882,-4.0882,-4.0882,-4.0882,-4.0882,-2.0911,-2.1057,-2.1203,-2.1203,-2.1203,-2.1203,-2.1203,-2.1203,-2.1247,-2.135,-2.1554,-2.173,-2.1832,-2.2052,-2.2213,-2.2301,-2.2364,-2.3325,-2.5366,-2.6672,-2.8077,-2.9766,-3.0039,-3.0351,-3.0684,-3.0371,-3.043,-3.0898,-3.0898,-3.0898,-3.0898,-3.0898,-3.0898,-3.0898,-3.0898,-3.0898,-3.0898,-3.0898,-3.0898,-3.0898,-3.0898,-3.0898,-3.0898,-3.0898,-3.0898,-3.0918,-3.1035,-3.1348,-3.1738,-3.1855,-3.2187,-3.2598,-3.2891,-3.3309,-3.3796,-3.3796,-3.3922,-3.4047,-3.4047,-3.4047,-3.4047,-3.3796,-3.3796,-3.3796,-3.4047,-3.4047,-3.4173,-3.4173,-3.4298,-3.4298,-3.4423,-3.4548,-3.4797,-3.4797,-3.4922,-3.5046,-3.5046,-3.5046,-3.517,-3.5294,-3.5294,-3.5294,-3.5418,-3.5832,-3.6308,-3.6763,-3.7529,-3.8046,-3.8171,-3.8191,-3.8191,-3.8191,-3.8191,-3.8191,-3.8191,-3.8191,-3.8647,-3.9537,-3.9537,-4.0013,-4.0882,-4.0882,-4.0882,-4.0882,-4.0882,-4.0882,-4.0882,-4.0882,-4.0882,-4.0882,-4.0882,-4.0882,-4.0882,-4.0882,-4.0882,-4.0924,-2.0794,-2.0984,-2.1174,-2.1042,-2.113,-2.1203,-2.1203,-2.1203,-2.1203,-2.1203,-2.1379,-2.1511,-2.1511,-2.1686,-2.1847,-2.1979,-2.2711,-2.3958,-2.6004,-2.69,-2.8122,-2.9805,-3.0059,-3.0332,-3.0605,-3.0527,-3.0605,-3.0898,-3.0898,-3.0801,-3.0625,-3.0801,-3.0801,-3.0625,-3.082,-3.0898,-3.0898,-3.0898,-3.0898,-3.0898,-3.0898,-3.0898,-3.0898,-3.0898,-3.0898,-3.0898,-3.0898,-3.1152,-3.1523,-3.1523,-3.1917,-3.247,-3.2903,-3.3342,-3.3953,-3.4007,-3.4298,-3.4423,-3.4423,-3.4423,-3.4423,-3.4298,-3.4173,-3.4173,-3.4298,-3.4423,-3.4423,-3.4548,-3.4548,-3.4673,-3.4797,-3.4922,-3.5046,-3.5046,-3.5294,-3.5418,-3.5418,-3.5418,-3.5418,-3.5418,-3.5418,-3.5418,-3.5418,-3.5666,-3.6039,-3.6494,-3.755,-3.8109,-3.7922,-3.8088,-3.8191,-3.8191,-3.8191,-3.8191,-3.8191,-3.8191,-3.8647,-3.9537,-3.9537,-4.0013,-4.0882,-4.0882,-4.0882,-4.0882,-4.0882,-4.0882,-4.0882,-4.0882,-4.0882,-4.0882,-4.0882,-4.0882,-4.0882,-4.0882,-4.0882,-4.1067,-2.0794,-2.0984,-2.1115,-2.0823,-2.1013,-2.1203,-2.1203,-2.1203,-2.1203,-2.1203,-2.1189,-2.1159,-2.1159,-2.1145,-2.1262,-2.1584,-2.3632,-2.5527,-2.6736,-2.8005,-2.905,-2.9941,-3.0039,-3.0078,-3.0078,-3.0566,-3.0859,-3.0898,-3.0859,-3.0605,-3.0215,-3.0664,-3.0644,-3.0215,-3.0684,-3.0898,-3.0898,-3.0898,-3.0898,-3.0898,-3.0898,-3.0898,-3.0898,-3.0898,-3.0898,-3.0898,-3.0898,-3.1133,-3.1465,-3.1584,-3.1978,-3.2633,-3.303,-3.3474,-3.3962,-3.4202,-3.4363,-3.4528,-3.4507,-3.4528,-3.4548,-3.4922,-3.4673,-3.4548,-3.4548,-3.4548,-3.4548,-3.4922,-3.4922,-3.5046,-3.5294,-3.5418,-3.5418,-3.5418,-3.5418,-3.5418,-3.5418,-3.5418,-3.5418,-3.5418,-3.5418,-3.5418,-3.5418,-3.5459,-3.5666,-3.608,-3.7363,-3.7943,-3.7508,-3.7943,-3.8191,-3.8191,-3.8191,-3.8191,-3.8191,-3.8191,-3.8626,-3.9475,-3.9516,-3.9992,-4.082,-4.0862,-4.0882,-4.0882,-4.0882,-4.0882,-4.0882,-4.0882,-4.0882,-4.0882,-4.0882,-4.0882,-4.0882,-4.0882,-4.1004,-4.1289,-2.1242,-2.1097,-2.1189,-2.1115,-2.1159,-2.1203,-2.1203,-2.1203,-2.1203,-2.1203,-2.0984,-2.0823,-2.0823,-2.0603,-2.0574,-2.0911,-2.2131,-2.3316,-2.4312,-2.5791,-2.7031,-2.8203,-2.8848,-2.9199,-2.9199,-2.9961,-3.0527,-3.0898,-3.0527,-3.0293,-3.0215,-3.0664,-3.0644,-3.0215,-3.0684,-3.0898,-3.0898,-3.0898,-3.0898,-3.0898,-3.0898,-3.0898,-3.0898,-3.0898,-3.0898,-3.0898,-3.0898,-3.1054,-3.1347,-3.1696,-3.2113,-3.2474,-3.2574,-3.3336,-3.4085,-3.3821,-3.4493,-3.5088,-3.4759,-3.4903,-3.517,-3.5294,-3.5294,-3.517,-3.517,-3.517,-3.517,-3.5294,-3.5294,-3.5294,-3.5418,-3.5418,-3.5418,-3.5418,-3.5418,-3.5418,-3.5418,-3.5418,-3.5418,-3.5418,-3.5418,-3.5418,-3.5418,-3.5749,-3.5997,-3.6101,-3.7053,-3.7612,-3.7508,-3.7943,-3.8191,-3.8191,-3.8191,-3.8191,-3.8191,-3.8191,-3.846,-3.8999,-3.9371,-3.9827,-4.0386,-4.0717,-4.0882,-4.0882,-4.0882,-4.0882,-4.0882,-4.0882,-4.0882,-4.0882,-4.0882,-4.0882,-4.0882,-4.0882,-4.1573,-4.2818,-2.1324,-2.1436,-2.1502,-2.0998,-2.1215,-2.1332,-2.1203,-2.1203,-2.1203,-2.1203,-2.1057,-2.0896,-2.0735,-2.0706,-2.0914,-2.1471,-2.24,-2.3409,-2.4368,-2.5737,-2.6798,-2.7656,-2.8086,-2.8516,-2.8906,-2.8965,-2.9414,-3.0254,-2.9805,-2.9492,-2.9297,-2.9746,-2.9707,-2.9316,-2.9746,-3.0059,-3.0273,-3.0469,-3.0566,-3.0586,-3.0917,-3.0995,-3.0898,-3.0995,-3.1112,-3.1112,-3.1112,-3.1344,-3.1556,-3.1787,-3.2064,-3.2403,-3.2606,-3.3228,-3.3854,-3.3834,-3.4283,-3.4776,-3.4755,-3.4921,-3.5148,-3.5376,-3.5418,-3.5418,-3.5418,-3.5418,-3.5418,-3.5418,-3.5418,-3.5418,-3.5418,-3.5418,-3.5418,-3.5418,-3.5418,-3.5418,-3.5418,-3.5418,-3.5418,-3.5418,-3.5418,-3.5418,-3.5418,-3.5832,-3.6121,-3.6121,-3.6763,-3.726,-3.7488,-3.7715,-3.7964,-3.8171,-3.8191,-3.8191,-3.8191,-3.8398,-3.8626,-3.8854,-3.933,-3.9889,-4.0551,-4.0779,-4.0882,-4.0882,-4.0882,-4.0882,-4.0882,-4.0882,-4.0882,-4.1025,-4.1714,-4.1997,-4.1975,-4.2656,-4.3885,-4.5255,-2.1375,-2.1616,-2.1722,-2.1062,-2.1255,-2.1546,-2.1318,-2.1218,-2.1203,-2.1203,-2.1159,-2.1028,-2.075,-2.0911,-2.1376,-2.2277,-2.3095,-2.4035,-2.5234,-2.6206,-2.6992,-2.7422,-2.7441,-2.7812,-2.8574,-2.7832,-2.8105,-2.9453,-2.9023,-2.8594,-2.8203,-2.8691,-2.8652,-2.8203,-2.8633,-2.9004,-2.9375,-2.9726,-2.9922,-3.0133,-3.0813,-3.105,-3.1014,-3.1305,-3.1441,-3.1325,-3.1245,-3.1436,-3.1802,-3.1883,-3.2133,-3.2424,-3.2793,-3.3073,-3.343,-3.3741,-3.401,-3.4238,-3.4465,-3.4693,-3.4941,-3.5231,-3.5376,-3.5418,-3.5418,-3.5418,-3.5418,-3.5418,-3.5418,-3.5418,-3.5418,-3.5418,-3.5418,-3.5418,-3.5418,-3.5418,-3.5418,-3.5418,-3.5418,-3.5418,-3.5418,-3.5418,-3.5418,-3.5769,-3.6018,-3.6101,-3.6473,-3.6929,-3.7467,-3.7488,-3.7715,-3.8171,-3.8191,-3.8191,-3.8191,-3.8626,-3.8895,-3.8978,-3.9433,-4.0054,-4.0758,-4.0841,-4.0882,-4.0882,-4.0882,-4.0882,-4.0882,-4.0882,-4.1025,-4.1431,-4.2678,-4.3236,-4.3631,-4.5119,-4.6335,-4.7425,-2.1868,-2.1532,-2.1414,-2.1768,-2.1517,-2.1318,-2.1561,-2.1447,-2.1203,-2.1203,-2.0969,-2.0764,-2.072,-2.0516,-2.0778,-2.2005,-2.2728,-2.3547,-2.4812,-2.55,-2.6113,-2.6543,-2.6562,-2.6777,-2.7266,-2.6816,-2.7363,-2.9004,-2.8574,-2.8164,-2.7773,-2.8555,-2.8496,-2.7773,-2.8184,-2.8418,-2.8476,-2.8516,-2.8878,-2.96,-3.0036,-3.0545,-3.1151,-3.1532,-3.1672,-3.1632,-3.1231,-3.1317,-3.1717,-3.2354,-3.2612,-3.2633,-3.2674,-3.3078,-3.3327,-3.2996,-3.3741,-3.4507,-3.3762,-3.4424,-3.5252,-3.4921,-3.5128,-3.5418,-3.5418,-3.5418,-3.5418,-3.5418,-3.5418,-3.5418,-3.5418,-3.5418,-3.5418,-3.5418,-3.5418,-3.5418,-3.5418,-3.5418,-3.5418,-3.5418,-3.5418,-3.5418,-3.5418,-3.548,-3.5687,-3.608,-3.6163,-3.6577,-3.7446,-3.7488,-3.7715,-3.8171,-3.8191,-3.8191,-3.8191,-3.8626,-3.904,-3.9454,-3.9909,-4.0199,-4.0323,-4.0696,-4.0882,-4.0882,-4.0882,-4.0882,-4.0882,-4.0882,-4.1714,-4.2818,-4.2958,-4.3907,-4.5119,-4.6603,-4.7269,-4.7557,-2.1931,-2.193,-2.1927,-2.2055,-2.1888,-2.1774,-2.1888,-2.166,-2.1447,-2.1447,-2.1314,-2.1077,-2.0486,-2.0003,-2.0056,-2.0939,-2.2225,-2.3168,-2.3485,-2.5352,-2.6426,-2.6387,-2.6387,-2.6582,-2.7012,-2.6367,-2.6604,-2.7688,-2.7408,-2.7129,-2.6953,-2.7324,-2.7305,-2.6953,-2.7148,-2.7363,-2.7598,-2.7937,-2.8502,-2.9064,-2.9828,-3.0359,-3.0761,-3.1187,-3.1268,-3.1268,-3.1554,-3.1851,-3.2189,-3.2241,-3.252,-3.2685,-3.2437,-3.2644,-3.2975,-3.2789,-3.3327,-3.3906,-3.3492,-3.401,-3.4672,-3.4734,-3.49,-3.5107,-3.5376,-3.5418,-3.5418,-3.5418,-3.5418,-3.5418,-3.5418,-3.5418,-3.5418,-3.5418,-3.5418,-3.5418,-3.5418,-3.5418,-3.5418,-3.5418,-3.5418,-3.5418,-3.5418,-3.5418,-3.5625,-3.608,-3.6121,-3.6515,-3.7446,-3.7488,-3.7715,-3.8171,-3.8191,-3.8191,-3.8191,-3.8874,-3.933,-3.9537,-4.0261,-4.0593,-4.0593,-4.08,-4.0882,-4.0882,-4.0882,-4.1431,-4.2138,-4.2138,-4.2958,-4.4298,-4.5119,-4.6335,-4.7689,-4.8371,-4.883,-4.9232]},{"header":{"parameterUnit":"m.s-1","parameterCategory":1,"la1":30.6,"la2":28.766,"lo1":-90.7593,"lo2":-88.6598,"dy":0.0162,"dx":0.0183,"nx":116,"ny":114,"refTime":"2024-05-11T12:00:00:Z","depth":0,"parameterNumber":3,"parameterNumberName":"V-component_of_WINDS"},"data":[0.0,0.0,0.0,0.0,0.0,0.0,0.0,0.0,0.0,0.0,0.0,0.0,0.0,0.0,0.0,0.0,0.0,0.0,0.0,0.0,0.0,0.0,0.0,0.0,0.0,0.0,0.0,0.0,0.0,0.0,0.0,0.0,0.0,0.0,0.0,0.0,0.0,0.0,0.0,0.0,0.0,0.0,0.0,0.0,0.0,0.0,0.0,0.0,0.0,0.0,0.0,0.0,0.0,0.0,0.0,0.0,0.0,0.0,0.0,0.0,0.0,0.0,0.0,0.0,0.0,0.0,0.0,0.0,0.0,0.0,0.0,0.0,0.0,0.0,0.0,0.0,0.0,0.0,0.0,0.0,0.0,0.0,0.0,0.0,0.0,0.0,0.0,0.0,0.0,0.0,0.0,0.0,0.0,0.0,0.0,0.0,0.0,0.0,0.0,0.0,0.0,0.0,0.0,0.0,0.0,0.0,0.0,0.0,0.0,0.0,0.0,0.0,0.0,0.0,0.0,0.0,0.0,0.0,0.0,0.0,0.0,0.0,0.0,0.0,0.0,0.0,0.0,0.0,0.0,0.0,0.0,0.0,0.0,0.0,0.0,0.0,0.0,0.0,0.0,0.0,0.0,0.0,0.0,0.0,0.0,0.0,0.0,0.0,0.0,0.0,0.0,0.0,0.0,0.0,0.0,0.0,0.0,0.0,0.0,0.0,0.0,0.0,0.0,0.0,0.0,0.0,0.0,0.0,0.0,0.0,0.0,0.0,0.0,0.0,0.0,0.0,0.0,0.0,0.0,0.0,0.0,0.0,0.0,0.0,0.0,0.0,0.0,0.0,0.0,0.0,0.0,0.0,0.0,0.0,0.0,0.0,0.0,0.0,0.0,0.0,0.0,0.0,0.0,0.0,0.0,0.0,0.0,0.0,0.0,0.0,0.0,0.0,0.0,0.0,0.0,0.0,0.0,0.0,0.0,0.0,0.0,0.0,0.0,0.0,0.0,0.0,0.0,0.0,0.0,0.0,0.0,0.0,0.0,0.0,0.0,0.0,0.0,0.0,0.0,0.0,0.0,0.0,0.0,0.0,0.0,0.0,0.0,0.0,0.0,0.0,0.0,0.0,0.0,0.0,0.0,0.0,0.0,0.0,0.0,0.0,0.0,0.0,0.0,0.0,0.0,0.0,0.0,0.0,0.0,0.0,0.0,0.0,0.0,0.0,0.0,0.0,0.0,0.0,0.0,0.0,0.0,0.0,0.0,0.0,0.0,0.0,0.0,0.0,0.0,0.0,0.0,0.0,0.0,0.0,0.0,0.0,0.0,0.0,0.0,0.0,0.0,0.0,0.0,0.0,0.0,0.0,0.0,0.0,0.0,0.0,0.0,0.0,0.0,0.0,0.0,0.0,0.0,0.0,0.0,0.0,0.0,0.0,0.0,0.0,0.0,0.0,0.0,0.0,0.0,0.0,0.0,0.0,0.0,0.0,0.0,0.0,0.0,0.0,0.0,0.0,0.0,0.0,0.0,0.0,0.0,0.0,0.0,0.0,0.0,0.0,0.0,0.0,0.0,0.0,0.0,0.0,0.0,0.0,0.0,0.0,0.0,0.0,0.0,0.0,0.0,0.0,0.0,0.0,0.0,0.0,0.0,0.0,0.0,0.0,0.0,0.0,0.0,0.0,0.0,0.0,0.0,0.0,0.0,0.0,0.0,0.0,0.0,0.0,0.0,0.0,0.0,0.0,0.0,0.0,0.0,0.0,0.0,0.0,0.0,0.0,0.0,0.0,0.0,0.0,0.0,0.0,0.0,0.0,0.0,0.0,0.0,0.0,0.0,0.0,0.0,0.0,0.0,0.0,0.0,0.0,0.0,0.0,0.0,0.0,0.0,0.0,0.0,0.0,0.0,0.0,0.0,0.0,0.0,0.0,0.0,0.0,0.0,0.0,0.0,0.0,0.0,0.0,0.0,0.0,0.0,0.0,0.0,0.0,0.0,0.0,0.0,0.0,0.0,0.0,0.0,0.0,0.0,0.0,0.0,0.0,0.0,0.0,0.0,0.0,0.0,0.0,0.0,0.0,0.0,0.0,0.0,0.0,0.0,0.0,0.0,0.0,0.0,0.0,0.0,0.0,0.0,0.0,0.0,0.0,0.0,0.0,0.0,0.0,0.0,0.0,0.0,0.0,0.0,0.0,0.0,0.0,0.0,0.0,0.0,0.0,0.0,0.0,0.0,0.0,0.0,0.0,0.0,0.0,0.0,0.0,0.0,0.0,0.0,0.0,0.0,0.0,0.0,0.0,0.0,0.0,0.0,0.0,0.0,0.0,0.0,0.0,0.0,0.0,0.0,0.0,0.0,0.0,0.0,0.0,0.0,0.0,0.0,0.0,0.0,0.0,0.0,0.0,0.0,0.0,0.0,0.0,0.0,0.0,0.0,0.0,0.0,0.0,0.0,0.0,0.0,0.0,0.0,0.0,0.0,0.0,0.0,0.0,0.0,0.0,0.0,0.0,0.0,0.0,0.0,0.0,0.0,0.0,0.0,0.0,0.0,0.0,0.0,0.0,0.0,0.0,0.0,0.0,0.0,0.0,0.0,0.0,0.0,0.0,0.0,0.0,0.0,0.0,0.0,0.0,0.0,0.0,0.0,0.0,0.0,0.0,0.0,0.0,0.0,0.0,0.0,0.0,0.0,0.0,0.0,0.0,0.0,0.0,0.0,0.0,0.0,0.0,0.0,0.0,0.0,0.0,0.0,0.0,0.0,0.0,0.0,0.0,0.0,0.0,0.0,0.0,0.0,0.0,0.0,0.0,0.0,0.0,0.0,0.0,0.0,0.0,0.0,0.0,0.0,0.0,0.0,0.0,0.0,0.0,0.0,0.0,0.0,0.0,0.0,0.0,0.0,0.0,0.0,0.0,0.0,0.0,0.0,0.0,0.0,0.0,0.0,0.0,0.0,0.0,0.0,0.0,0.0,0.0,0.0,0.0,0.0,0.0,0.0,0.0,0.0,0.0,0.0,0.0,0.0,0.0,0.0,0.0,0.0,0.0,0.0,0.0,0.0,0.0,0.0,0.0,0.0,0.0,0.0,0.0,0.0,0.0,0.0,0.0,0.0,0.0,0.0,0.0,0.0,0.0,0.0,0.0,0.0,0.0,0.0,0.0,0.0,0.0,0.0,0.0,0.0,0.0,0.0,0.0,0.0,0.0,0.0,0.0,0.0,0.0,0.0,0.0,0.0,0.0,0.0,0.0,0.0,0.0,0.0,0.0,0.0,0.0,0.0,0.0,0.0,0.0,0.0,0.0,0.0,0.0,0.0,0.0,0.0,0.0,0.0,0.0,0.0,0.0,0.0,0.0,0.0,0.0,0.0,0.0,0.0,0.0,0.0,0.0,0.0,0.0,0.0,0.0,0.0,0.0,0.0,0.0,0.0,0.0,0.0,0.0,0.0,0.0,0.0,0.0,0.0,0.0,0.0,0.0,0.0,0.0,0.0,0.0,0.0,0.0,0.0,0.0,0.0,0.0,0.0,0.0,0.0,0.0,0.0,0.0,0.0,0.0,0.0,0.0,0.0,0.0,0.0,0.0,0.0,0.0,0.0,0.0,0.0,0.0,0.0,0.0,0.0,0.0,0.0,0.0,0.0,0.0,0.0,0.0,0.0,0.0,0.0,0.0,0.0,0.0,0.0,0.0,0.0,0.0,0.0,0.0,0.0,0.0,0.0,0.0,0.0,0.0,0.0,0.0,0.0,0.0,0.0,0.0,0.0,0.0,0.0,0.0,0.0,0.0,0.0,0.0,0.0,0.0,0.0,0.0,0.0,0.0,0.0,0.0,0.0,0.0,0.0,0.0,0.0,0.0,0.0,0.0,0.0,0.0,0.0,0.0,0.0,0.0,0.0,0.0,0.0,0.0,0.0,0.0,0.0,0.0,0.0,0.0,0.0,0.0,0.0,0.0,0.0,0.0,0.0,0.0,0.0,0.0,0.0,0.0,0.0,0.0,0.0,0.0,0.0,0.0,0.0,0.0,0.0,0.0,0.0,0.0,0.0,0.0,0.0,0.0,0.0,0.0,0.0,0.0,0.0,0.0,0.0,0.0,0.0,0.0,0.0,0.0,0.0,0.0,0.0,0.0,0.0,0.0,0.0,0.0,0.0,0.0,0.0,0.0,0.0,0.0,0.0,0.0,0.0,0.0,0.0,0.0,0.0,0.0,0.0,0.0,0.0,0.0,0.0,0.0,0.0,0.0,0.0,0.0,0.0,0.0,0.0,0.0,0.0,0.0,0.0,0.0,0.0,0.0,0.0,0.0,0.0,0.0,0.0,0.0,0.0,0.0,0.0,0.0,0.0,0.0,0.0,0.0,0.0,0.0,0.0,0.0,0.0,0.0,0.0,0.0,0.0,0.0,0.0,0.0,0.0,0.0,0.0,0.0,0.0,0.0,0.0,0.0,0.0,0.0,0.0,0.0,0.0,0.0,0.0,0.0,0.0,0.0,0.0,0.0,0.0,0.0,0.0,0.0,0.0,0.0,0.0,0.0,0.0,0.0,0.0,0.0,0.0,0.0,0.0,0.0,0.0,0.0,0.0,0.0,0.0,0.0,0.0,0.0,0.0,0.0,0.0,0.0,0.0,0.0,0.0,0.0,0.0,0.0,0.0,0.0,0.0,0.0,0.0,0.0,0.0,0.0,0.0,0.0,0.0,0.0,0.0,0.0,0.0,0.0,0.0,0.0,0.0,0.0,0.0,0.0,0.0,0.0,0.0,0.0,0.0,0.0,0.0,0.0,0.0,0.0,0.0,0.0,0.0,0.0,0.0,0.0,0.0,0.0,0.0,0.0,0.0,0.0,0.0,0.0,0.0,0.0,0.0,0.0,0.0,0.0,0.0,0.0,0.0,0.0,0.0,0.0,0.0,0.0,0.0,0.0,0.0,0.0,0.0,0.0,0.0,0.0,0.0,0.0,0.0,0.0,0.0,0.0,0.0,0.0,0.0,0.0,0.0,0.0,0.0,0.0,0.0,0.0,0.0,0.0,0.0,0.0,0.0,0.0,0.0,0.0,0.0,0.0,0.0,0.0,0.0,0.0,0.0,0.0,0.0,0.0,0.0,0.0,0.0,0.0,0.0,0.0,0.0,0.0,0.0,0.0,0.0,0.0,0.0,0.0,0.0,0.0,0.0,0.0,0.0,0.0,0.0,0.0,0.0,0.0,0.0,0.0,0.0,0.0,0.0,0.0,0.0,0.0,0.0,0.0,0.0,0.0,0.0,0.0,0.0,0.0,0.0,0.0,0.0,0.0,0.0,0.0,0.0,0.0,0.0,0.0,0.0,0.0,0.0,0.0,0.0,0.0,0.0,0.0,0.0,0.0,0.0,0.0,0.0,0.0,0.0,0.0,0.0,0.0,0.0,0.0,0.0,0.0,0.0,0.0,0.0,0.0,0.0,0.0,0.0,0.0,0.0,0.0,0.0,0.0,0.0,0.0,0.0,0.0,0.0,0.0,0.0,0.0,0.0,0.0,0.0,0.0,0.0,0.0,0.0,0.0,0.0,0.0,0.0,0.0,0.0,0.0,0.0,0.0,0.0,0.0,0.0,0.0,0.0,0.0,0.0,0.0,0.0,0.0,0.0,0.0,0.0,0.0,0.0,0.0,0.0,0.0,0.0,0.0,0.0,0.0,0.0,0.0,0.0,0.0,0.0,0.0,0.0,0.0,0.0,0.0,0.0,0.0,0.0,0.0,0.0,0.0,0.0,0.0,0.0,0.0,0.0,0.0,0.0,0.0,0.0,0.0,0.0,0.0,0.0,0.0,0.0,0.0,0.0,0.0,0.0,0.0,0.0,0.0,0.0,0.0,0.0,0.0,0.0,0.0,0.0,0.0,0.0,0.0,0.0,0.0,0.0,0.0,0.0,0.0,0.0,0.0,0.0,0.0,0.0,0.0,0.0,0.0,0.0,0.0,0.0,0.0,0.0,0.0,0.0,0.0,0.0,0.0,0.0,0.0,0.0,0.0,0.0,0.0,0.0,0.0,0.0,0.0,0.0,0.0,0.0,0.0,0.0,0.0,0.0,0.0,0.0,0.0,0.0,0.0,0.0,0.0,-5.9817,-5.9002,0.0,0.0,0.0,0.0,0.0,0.0,0.0,0.0,0.0,0.0,0.0,0.0,0.0,0.0,0.0,0.0,0.0,0.0,0.0,0.0,0.0,0.0,0.0,-6.2051,-6.228,-6.228,-6.3083,-6.3482,-6.3289,0.0,0.0,0.0,0.0,0.0,-6.1739,-6.1646,-6.1587,-6.1533,-6.1824,-6.2005,-6.2041,-6.244,-6.2404,-6.2005,0.0,0.0,0.0,0.0,0.0,0.0,0.0,0.0,0.0,0.0,0.0,0.0,0.0,0.0,0.0,0.0,0.0,0.0,0.0,0.0,0.0,0.0,0.0,0.0,0.0,0.0,0.0,0.0,0.0,0.0,0.0,0.0,0.0,0.0,0.0,0.0,0.0,0.0,0.0,0.0,0.0,0.0,0.0,0.0,0.0,0.0,0.0,0.0,0.0,0.0,0.0,0.0,0.0,0.0,0.0,0.0,0.0,0.0,0.0,0.0,0.0,0.0,0.0,0.0,0.0,0.0,0.0,0.0,0.0,0.0,-5.9415,-5.939,0.0,0.0,0.0,0.0,0.0,0.0,0.0,0.0,0.0,0.0,0.0,0.0,0.0,0.0,0.0,0.0,0.0,0.0,0.0,0.0,0.0,-6.0408,-6.0408,-6.0981,-6.1402,-6.1402,-6.2166,-6.2506,-6.2079,-6.2163,0.0,0.0,-6.09,-6.0535,-5.999,-6.0529,-6.0824,-6.081,-6.1607,-6.2005,-6.2005,-6.1895,-6.184,-6.184,-6.184,0.0,0.0,0.0,0.0,0.0,0.0,0.0,0.0,0.0,0.0,0.0,0.0,0.0,0.0,0.0,0.0,0.0,0.0,0.0,0.0,0.0,0.0,0.0,0.0,0.0,0.0,0.0,0.0,0.0,0.0,0.0,0.0,0.0,0.0,0.0,0.0,0.0,0.0,0.0,0.0,0.0,0.0,0.0,0.0,0.0,0.0,0.0,0.0,0.0,0.0,0.0,0.0,0.0,0.0,0.0,0.0,0.0,0.0,0.0,0.0,0.0,0.0,0.0,-6.2134,-6.1777,-6.1634,-6.1237,-6.0797,-6.0351,-5.9692,-6.0381,-6.1615,-5.9479,0.0,0.0,0.0,0.0,0.0,0.0,0.0,0.0,0.0,0.0,0.0,0.0,0.0,0.0,0.0,0.0,0.0,0.0,0.0,-6.0408,-6.0408,-6.0485,-6.0561,-6.0561,-6.1287,-6.1599,-6.1207,-6.1541,-6.1576,-6.1119,-6.0582,-6.0188,-5.999,-5.9947,-6.0295,-6.0986,-6.1822,-6.2114,-6.195,-6.143,-6.1104,-6.1104,-6.1104,-6.1104,-6.0927,0.0,0.0,0.0,0.0,0.0,0.0,0.0,0.0,0.0,0.0,0.0,0.0,0.0,0.0,0.0,0.0,0.0,0.0,0.0,0.0,0.0,0.0,0.0,0.0,0.0,0.0,0.0,0.0,0.0,0.0,0.0,0.0,0.0,0.0,0.0,0.0,0.0,0.0,0.0,0.0,0.0,-6.2848,-6.102,0.0,0.0,0.0,0.0,0.0,0.0,0.0,0.0,0.0,0.0,0.0,0.0,0.0,-5.9576,-5.9757,-5.9757,-6.0499,-6.2099,-6.2195,-6.2945,-6.3893,-6.3343,-6.3003,-6.2839,-6.1168,0.0,-6.0687,-5.9841,0.0,0.0,0.0,0.0,0.0,0.0,0.0,0.0,0.0,0.0,0.0,0.0,0.0,0.0,0.0,0.0,0.0,0.0,0.0,0.0,0.0,-6.0408,-6.0561,-6.1019,-6.0981,-6.098,-6.1017,-6.0563,-6.0112,-5.9706,-5.9255,-5.8871,-5.864,-5.9114,-5.9903,-6.1022,-6.1243,-6.1625,-6.195,-6.0848,-6.0558,-6.0986,-6.0184,-5.9803,-5.9803,-5.9145,0.0,0.0,0.0,0.0,0.0,0.0,0.0,0.0,0.0,0.0,0.0,0.0,0.0,0.0,0.0,0.0,0.0,0.0,0.0,0.0,0.0,0.0,0.0,0.0,0.0,0.0,0.0,0.0,0.0,0.0,0.0,0.0,0.0,0.0,0.0,0.0,0.0,0.0,0.0,-6.2432,-6.1742,-6.0049,-5.9473,-5.8301,0.0,0.0,0.0,0.0,0.0,0.0,0.0,0.0,0.0,-5.8864,-5.9165,-5.9675,-6.0645,-6.0645,-6.1237,-6.2505,-6.2251,-6.2516,-6.3304,-6.3395,-6.3313,-6.3104,-6.2874,-6.2496,-6.1969,-5.9841,-5.9343,-5.9792,0.0,0.0,0.0,0.0,-6.1436,-6.1555,0.0,0.0,0.0,0.0,0.0,0.0,0.0,0.0,0.0,0.0,0.0,0.0,-6.0408,-6.0561,-6.0943,-6.1554,-6.0962,-6.0639,-6.0846,-5.974,-5.887,-5.8461,-5.8142,-5.7904,-5.7667,-5.8482,-5.9406,-6.0404,-6.0481,-6.081,-6.1335,-5.9924,-5.9574,-6.0083,-5.8724,-5.8428,-5.8909,-5.8703,-5.7907,-5.6799,0.0,0.0,0.0,0.0,0.0,0.0,0.0,0.0,0.0,0.0,0.0,0.0,0.0,0.0,0.0,0.0,0.0,0.0,0.0,0.0,0.0,0.0,0.0,0.0,0.0,0.0,0.0,0.0,0.0,0.0,0.0,0.0,0.0,0.0,0.0,0.0,0.0,-6.2547,-6.1685,-5.9798,-5.9539,-5.84,0.0,0.0,0.0,0.0,0.0,0.0,-5.6645,-5.7004,-5.7842,-5.9308,-5.9518,-6.0196,-6.1408,-6.1408,-6.185,-6.2708,-6.2224,-6.2242,-6.249,-6.3213,-6.3386,-6.3123,-6.3759,-6.3789,-6.3159,-6.0584,-6.0262,-6.1291,-6.0617,-6.0618,-6.1229,-6.1996,-6.2261,-6.2258,0.0,0.0,0.0,0.0,0.0,0.0,0.0,0.0,0.0,0.0,0.0,-6.0408,-6.0408,-6.1096,-6.1554,-6.1593,-6.121,-6.0846,-6.0529,-5.9318,-5.8455,-5.8042,-5.7997,-5.795,-5.781,-5.8434,-5.881,-5.8732,-5.9459,-5.9844,-5.9671,-5.8414,-5.7816,-5.779,-5.6439,-5.6951,-5.8841,-5.8209,-5.7548,-5.6731,-5.6055,0.0,0.0,0.0,0.0,0.0,0.0,0.0,0.0,0.0,0.0,0.0,0.0,0.0,0.0,0.0,0.0,0.0,0.0,0.0,0.0,0.0,0.0,0.0,0.0,0.0,0.0,0.0,0.0,0.0,0.0,0.0,0.0,0.0,0.0,0.0,0.0,0.0,0.0,-6.0922,-6.1515,0.0,0.0,0.0,0.0,-5.54,-5.6915,-5.7992,-5.8022,-5.9219,-5.9937,-6.0027,-6.0685,-6.1044,-6.1104,-6.1104,-6.1433,-6.2091,-6.2371,-6.2483,-6.2544,-6.3516,-6.3711,-6.3354,-6.3207,-6.3219,-6.3418,-6.2959,-6.2466,-6.1939,-6.1969,-6.1585,-6.1229,-6.269,-6.2912,-6.2574,0.0,0.0,0.0,0.0,0.0,-6.0408,-6.0408,-6.0408,-6.0408,-6.0408,-6.0408,-6.0599,-6.1134,-6.144,-6.2051,-6.3159,-6.1863,-6.1216,-6.1644,-5.9775,-5.8545,-5.8412,-5.8142,-5.7997,-5.795,-5.8385,-5.8724,-5.8724,-5.8827,-5.916,-5.9526,-5.7752,-5.7193,-5.7623,-5.6269,-5.6128,-5.6813,-5.7111,-5.6765,-5.6122,-5.6325,-5.5547,0.0,0.0,0.0,0.0,0.0,0.0,0.0,0.0,0.0,0.0,0.0,0.0,0.0,0.0,0.0,0.0,0.0,0.0,0.0,0.0,0.0,0.0,0.0,0.0,0.0,0.0,0.0,0.0,0.0,0.0,0.0,0.0,0.0,0.0,0.0,0.0,0.0,-6.2202,-6.2488,0.0,-5.8591,-5.8632,-5.8339,-5.7154,-5.8112,-5.8949,-5.9368,-5.9817,-6.0475,-6.1343,-6.1613,-6.1732,-6.1732,-6.2181,-6.2061,-6.1463,-6.1995,-6.1965,-6.1687,-6.2375,-6.2677,-6.2464,-6.2566,-6.3011,-6.3598,-6.3406,-6.3056,-6.2899,-6.248,-6.2792,-6.3507,-6.3091,-6.308,-6.3342,0.0,0.0,0.0,-6.0464,-6.0436,-6.0408,-6.0408,-6.0408,-6.0408,-6.0408,-6.0408,-6.0714,-6.1516,-6.186,-6.2624,-6.4076,-6.2373,-6.1458,-6.206,-5.9766,-5.8412,-5.8412,-5.8142,-5.7997,-5.7997,-5.8227,-5.8336,-5.8422,-5.8137,-5.8326,-5.8782,-5.7199,-5.6599,-5.6851,-5.5747,-5.5281,-5.5378,-5.5852,-5.5919,-5.575,-5.5953,-5.5175,-5.3957,0.0,0.0,0.0,0.0,0.0,0.0,0.0,0.0,0.0,0.0,0.0,0.0,0.0,0.0,0.0,0.0,0.0,0.0,0.0,0.0,0.0,0.0,0.0,0.0,0.0,0.0,0.0,0.0,0.0,0.0,0.0,0.0,0.0,0.0,-6.3366,-6.4295,-6.345,-6.3611,-6.311,-6.0896,-6.0469,-5.9951,-5.883,-5.9608,-6.0296,-6.0745,-6.0984,-6.1403,-6.2061,-6.2301,-6.2211,-6.1762,-6.2421,-6.2181,-6.1134,-6.1553,-6.1403,-6.0775,-6.1539,-6.1759,-6.1577,-6.2008,-6.2792,-6.3592,-6.3483,-6.3548,-6.3872,-6.3416,-6.3751,-6.4457,-6.3779,-6.3656,-6.3779,0.0,-6.0635,-6.0559,-6.0506,-6.0464,-6.0408,-6.0408,-6.0408,-6.0408,-6.0408,-6.0408,-6.0714,-6.1554,-6.2395,-6.3274,-6.4114,-6.2662,-6.1657,-6.1657,-5.9387,-5.7997,-5.7997,-5.7997,-5.7997,-5.7997,-5.7857,-5.7763,-5.7583,-5.7486,-5.7338,-5.7188,-5.6582,-5.5978,-5.5402,-5.4765,-5.4518,-5.4635,-5.4601,-5.5041,-5.5581,-5.4905,-5.46,-5.4465,0.0,0.0,0.0,0.0,0.0,0.0,0.0,0.0,0.0,0.0,0.0,0.0,0.0,0.0,0.0,0.0,0.0,0.0,0.0,0.0,0.0,0.0,0.0,0.0,0.0,0.0,0.0,0.0,0.0,0.0,0.0,0.0,0.0,-6.2279,-6.4275,-6.5329,-6.4561,-6.533,-6.4801,-6.201,-6.195,-6.1558,-6.0316,-6.1373,-6.2091,-6.2091,-6.269,-6.275,-6.2091,-6.272,-6.2421,-6.1104,-6.1732,-6.1732,-6.1044,-6.1074,-6.0745,-6.0116,-6.1047,-6.1127,-6.0615,-6.1577,-6.2543,-6.3342,-6.3373,-6.4022,-6.4888,-6.4888,-6.4457,-6.3933,-6.458,-6.4364,-6.3749,-6.071,-6.0685,-6.0635,-6.0506,-6.0453,-6.0464,-6.0436,-6.0408,-6.0408,-6.0408,-6.0408,-6.0943,-6.2395,-6.2777,-6.3146,-6.3726,-6.2482,-6.1316,-6.0435,-5.8873,-5.7997,-5.7997,-5.7997,-5.7997,-5.7997,-5.7857,-5.781,-5.7763,-5.7583,-5.7534,-5.7486,-5.6793,-5.6366,-5.6166,-5.5472,-5.4992,-5.4643,-5.4638,-5.4552,-5.4498,-5.5109,-5.4769,-5.3822,0.0,0.0,0.0,0.0,0.0,0.0,0.0,0.0,0.0,0.0,0.0,0.0,0.0,0.0,0.0,0.0,0.0,0.0,0.0,0.0,0.0,0.0,0.0,0.0,0.0,0.0,0.0,0.0,0.0,0.0,0.0,-6.0283,-6.1569,-6.2279,-6.4275,-6.5985,-6.6776,-6.6106,-6.5379,-6.4975,-6.3796,-6.2694,-6.1583,-6.1882,-6.2091,-6.2091,-6.2271,-6.2061,-6.1403,-6.2032,-6.1732,-6.0386,-6.1044,-6.0805,-5.9668,-6.0146,-6.0266,-6.0086,-6.0114,-6.0223,-6.0524,-6.1031,-6.1703,-6.27,-6.3189,-6.3911,-6.4463,-6.4193,-6.4334,-6.4457,-6.3133,-6.221,-6.1686,-6.0734,-6.071,-6.066,-6.0533,-6.0545,-6.0491,-6.0436,-6.0408,-6.0408,-6.0408,-6.0408,-6.0905,-6.2204,-6.2357,-6.2544,-6.3023,-6.1919,-6.0827,-5.9971,-5.8718,-5.7997,-5.7997,-5.7997,-5.7997,-5.7997,-5.795,-5.7674,-5.7298,-5.7204,-5.7156,-5.7109,-5.6681,-5.6521,-5.6546,-5.6185,-5.5645,-5.5094,-5.5059,-5.4939,-5.4772,-5.545,-5.4895,-5.3785,-5.426,-5.4224,-5.3849,-5.398,-5.4425,-5.5079,-5.5593,0.0,0.0,0.0,0.0,0.0,0.0,0.0,0.0,0.0,0.0,0.0,0.0,0.0,0.0,0.0,0.0,0.0,0.0,0.0,0.0,0.0,0.0,0.0,0.0,-6.1231,-6.2685,-6.4038,-6.5358,-6.6711,-6.8233,-6.7295,-6.6548,-6.6593,-6.5141,-6.378,-6.2655,-6.251,-6.251,-6.251,-6.251,-6.2211,-6.1553,-6.2181,-6.1882,-6.0535,-6.0924,-6.0715,-5.9937,-6.0027,-6.0236,-6.0505,-6.0415,-6.0475,-6.0726,-6.1025,-6.1637,-6.2494,-6.3,-6.369,-6.432,0.0,0.0,0.0,0.0,-6.1809,-6.1286,-6.0781,-6.0734,-6.0685,-6.0585,-6.0533,-6.0518,-6.0436,-6.0408,-6.0408,-6.0408,-6.0408,-6.0714,-6.1516,-6.1593,-6.1743,-6.2113,-6.1127,-6.0263,-5.9701,-5.8637,-5.7997,-5.7997,-5.7997,-5.7997,-5.7997,-5.7997,-5.7584,-5.6749,-5.6749,-5.6666,-5.6463,-5.6416,-5.6503,-5.6701,-5.6701,-5.6349,-5.5836,-5.5836,-5.5836,-5.578,-5.5724,-5.5119,-5.4205,-5.4205,-5.4205,-5.4205,-5.4269,-5.4738,-5.5332,-5.5332,0.0,0.0,0.0,0.0,0.0,0.0,0.0,0.0,0.0,0.0,0.0,0.0,0.0,0.0,0.0,0.0,0.0,0.0,0.0,0.0,0.0,0.0,0.0,0.0,-6.2584,-6.4241,-6.6406,-6.6914,-6.7624,-6.9045,-6.8611,-6.798,-6.7202,-6.5973,-6.4654,-6.3194,-6.3019,-6.2959,-6.2959,-6.2959,0.0,0.0,0.0,-6.2361,-6.1134,-6.1104,-6.1104,-6.1104,-6.0505,-6.0565,-6.1224,-6.1327,-6.1357,-6.1224,-6.1417,-6.1941,-6.2483,-6.294,-6.3498,-6.4229,-6.4039,-6.3623,-6.3299,-6.2933,-6.2333,-6.1686,-6.0781,-6.0781,-6.0734,-6.061,-6.0559,-6.0533,-6.0436,-6.0408,-6.0408,-6.0408,-6.0408,-6.0714,-6.1516,-6.1593,-6.1514,-6.1283,-6.0787,-5.9883,-5.8481,-5.8116,-5.7997,-5.7997,-5.7997,-5.7997,-5.7997,-5.7997,-5.7923,-5.773,-5.773,-5.74,-5.6694,-5.6603,-5.6583,-5.6635,-5.6635,-5.6635,-5.6668,-5.6668,-5.6456,-5.6185,-5.5984,-5.5667,-5.5379,-5.553,-5.5588,-5.5588,-5.5794,-5.624,-5.6721,-5.6721,-5.755,-5.8555,-5.7898,-5.8117,0.0,0.0,0.0,0.0,0.0,0.0,0.0,0.0,0.0,0.0,0.0,0.0,0.0,0.0,0.0,0.0,0.0,0.0,0.0,-6.1738,-6.2922,-6.4072,-6.5696,-6.7489,-6.8977,-6.9857,-6.8877,-6.785,-6.7202,-6.5941,-6.4512,-6.3164,-6.26,-6.2271,-6.2271,-6.2271,-6.2002,-6.1313,-6.1942,-6.1912,-6.1134,-6.1104,-6.1104,-6.1104,-6.0984,0.0,-6.1882,-6.1343,-6.1403,-6.1912,-6.1995,-6.2168,-6.2544,-6.3116,-6.3538,-6.3617,-6.4408,-6.3995,-6.2902,-6.2856,-6.2056,-6.0978,-6.0781,-6.0781,-6.0757,-6.066,-6.061,-6.0597,-6.0491,-6.0398,-6.0408,-6.0408,-6.0408,-6.0561,-6.0943,-6.0981,-6.0828,-6.0449,-5.989,-5.9115,-5.8079,-5.7997,-5.7997,-5.7997,-5.7997,-5.7997,-5.7997,-5.7997,-5.7813,-5.7409,-5.7409,-5.7005,-5.6198,-5.6153,-5.6108,-5.6108,-5.6511,-5.6776,-5.6903,-5.7267,-5.7351,-5.7116,-5.7065,-5.6927,-5.6789,-5.6349,-5.613,-5.613,-5.6276,-5.6652,-5.7116,-5.7116,-5.7753,-5.8547,-5.8143,-5.829,-5.851,0.0,0.0,0.0,0.0,0.0,0.0,0.0,0.0,0.0,0.0,0.0,0.0,0.0,0.0,-5.7878,-5.8835,0.0,-6.1332,-6.3193,-6.4106,-6.5121,-6.6576,-6.8132,-6.9248,-6.962,-6.9386,-6.895,-6.8107,-6.671,-6.525,-6.4015,-6.3093,-6.26,-6.26,-6.26,-6.245,-6.2121,-6.2421,-6.2421,-6.2091,-6.1762,-6.1762,-6.2091,-6.1762,-6.1942,-6.257,-6.1912,-6.1972,-6.257,-6.2241,-6.2385,-6.2829,-6.3501,-6.3893,-6.4175,-6.4512,-6.3592,-6.2089,-6.2196,-6.1581,-6.0586,-6.0781,-6.0781,-6.0757,-6.071,-6.0635,-6.0597,-6.048,-6.0425,-6.0408,-6.0408,-6.0408,-6.0408,-6.0408,-6.0408,-6.0256,-5.9842,-5.9215,-5.8669,-5.8275,-5.8142,-5.8097,-5.8097,-5.8042,-5.7997,-5.7997,-5.7997,-5.7666,-5.7042,-5.7042,-5.6528,-5.5574,-5.5574,-5.55,-5.539,-5.6198,-5.6638,-5.6859,-5.7666,-5.7997,-5.7997,-5.7997,-5.7997,-5.7904,-5.6964,-5.6652,-5.6652,-5.6652,-5.6912,-5.7266,-5.7266,-5.7704,-5.8217,-5.8033,-5.8107,-5.8217,-5.8033,-5.7997,0.0,0.0,0.0,0.0,0.0,0.0,0.0,0.0,-5.7585,-5.7854,-5.8492,-5.9818,-6.0947,-6.1415,-6.2795,-6.3996,-6.485,-6.5392,-6.6271,-6.7895,-6.8571,-6.8977,-6.9282,-7.0108,-7.011,-6.8993,-6.7668,-6.6217,-6.4844,-6.3902,-6.3279,-6.3079,-6.3079,-6.3079,-6.3079,-6.3079,-6.3079,-6.3079,-6.254,-6.254,-6.3079,-6.254,-6.251,-6.2869,-6.248,-6.251,-6.2869,-6.2565,-6.2714,-6.3194,-6.3766,-6.4218,-6.4666,-6.4412,-6.3312,-6.1783,-6.1997,-6.1567,-6.0849,-6.0781,-6.0781,-6.0757,-6.071,-6.0635,-6.0597,-6.048,-6.0425,-6.0408,-6.0408,-6.0408,-6.0408,-6.0408,-6.0408,-6.0256,-5.9842,-5.9706,-5.9502,-5.9103,-5.875,-5.8503,-5.8503,-5.8186,-5.7997,-5.7997,-5.7997,-5.796,-5.7886,-5.7886,-5.7079,-5.5574,-5.5574,-5.5207,-5.4583,-5.5354,-5.6124,-5.6859,-5.7666,-5.7997,-5.7997,-5.7997,-5.7997,-5.7997,-5.7821,-5.7821,-5.7821,-5.7821,-5.7821,-5.7904,-5.7904,-5.8427,-5.8951,-5.8217,-5.851,-5.8951,-5.8217,-5.7997,-5.7997,-5.7997,-5.7997,-5.7997,-5.7997,-5.795,-5.8087,0.0,-5.9161,-5.9492,-6.0104,-6.1497,-6.2587,-6.2473,-6.3639,-6.5019,-6.6287,-6.6068,-6.644,-6.8673,-6.8436,-6.8538,-6.9891,-7.0501,-7.0296,-6.8993,-6.847,-6.7228,-6.4813,-6.4623,-6.4127,-6.3194,-6.3079,-6.3079,-6.3079,-6.3079,-6.3079,-6.3079,-6.3019,-6.3019,-6.3079,-6.2989,-6.269,-6.2211,-6.272,-6.269,-6.2241,-6.2949,-6.3219,-6.3194,-6.3766,-6.388,-6.3766,-6.4188,-6.3781,-6.2859,-6.3159,-6.2948,-6.2517,-6.0781,-6.0781,-6.0781,-6.0757,-6.0685,-6.0635,-6.061,-6.0506,-6.0464,-6.0464,-6.0398,-6.0408,-6.0408,-6.0408,-6.0256,-5.9842,-5.9809,-5.9605,-5.9252,-5.9065,-5.887,-5.8628,-5.8455,-5.8275,-5.7997,-5.7997,-5.7997,-5.7997,-5.7997,-5.7409,-5.6308,-5.5794,-5.517,-5.4436,-5.5244,-5.5794,-5.6161,-5.7446,-5.7997,-5.7997,-5.7997,-5.7997,-5.796,-5.7483,-5.7299,-5.7299,-5.7299,-5.7299,0.0,-5.7299,-5.7519,-5.785,-5.796,-5.8217,-5.8437,-5.8107,-5.7997,-5.7997,-5.7997,-5.7997,-5.7997,-5.7997,-5.7997,-5.8217,-5.9024,-5.964,-6.0267,-6.0901,-6.2628,-6.3989,-6.3865,-6.5296,-6.6735,-6.7387,-6.7557,-6.7996,-6.8977,-6.8808,-6.8842,-6.9485,-6.9647,-6.9669,-6.9822,-6.8993,-6.777,-6.579,-6.5032,-6.4209,-6.3194,-6.3079,-6.3079,-6.3079,-6.3079,-6.3079,-6.3079,-6.3079,-6.3079,-6.3079,-6.3079,-6.2929,-6.266,-6.254,-6.2445,-6.2318,-6.3009,-6.3424,-6.3652,-6.3652,-6.3849,-6.4075,-6.4075,-6.4005,-6.3812,-6.3636,-6.3163,-6.2549,-6.0781,-6.0781,-6.0781,-6.0781,-6.0757,-6.071,-6.0685,-6.0585,-6.0506,-6.048,-6.0464,-6.0436,-6.0408,-6.0436,-6.0313,-6.0,-6.0,-5.9906,-5.9605,-5.9465,-5.9287,-5.9027,-5.8872,-5.8673,-5.8375,-5.8238,-5.8194,-5.8194,-5.8051,-5.7593,-5.683,-5.6242,-5.5588,-5.4853,-5.5662,-5.6029,-5.6103,-5.75,-5.8088,-5.8042,-5.8042,-5.7895,-5.7593,-5.7042,-5.6675,-5.6455,-5.6455,-5.6455,-5.6455,-5.6455,-5.6455,-5.6565,-5.7152,-5.7336,-5.7336,-5.7336,-5.7483,-5.7666,-5.7666,-5.7813,-5.7997,-5.7997,-5.7997,-5.8217,-5.9024,-6.0015,-6.097,-6.1679,-6.3574,-6.509,-6.4813,-6.6289,-6.766,-6.7862,-6.8402,-6.891,-6.935,-6.9045,-6.8774,-6.8774,-6.8398,-6.8594,-6.9568,-6.9074,-6.7979,-6.6321,-6.537,-6.4236,-6.2924,-6.281,-6.2899,-6.3079,-6.3079,-6.3079,-6.3079,-6.2899,-6.2899,-6.3079,-6.2899,-6.281,-6.278,-6.2301,-6.2295,-6.2672,-6.2889,-6.3243,-6.3736,-6.326,-6.3425,-6.3914,-6.3802,-6.3914,-6.4076,-6.4132,-6.3469,-6.2778,-6.0781,-6.0781,-6.0781,-6.0781,-6.0781,-6.0757,-6.071,-6.0635,-6.0559,-6.0518,-6.0518,-6.0453,-6.0436,-6.0464,-6.048,-6.0453,-6.0533,-6.0559,-6.0559,-6.017,-5.9954,-5.9954,-5.9597,-5.9354,-5.9354,-5.8913,-5.8673,-5.8673,-5.8194,-5.7638,-5.7,-5.6963,-5.6565,-5.5881,-5.6768,-5.7174,-5.7211,-5.8061,-5.8305,-5.8179,-5.8179,-5.7647,-5.6822,-5.6822,-5.6308,-5.5647,-5.5647,-5.5647,-5.5647,-5.5647,-5.5647,-5.5647,-5.5647,-5.5647,-5.5647,-5.5647,-5.6235,-5.6859,-5.6859,-5.7409,-5.7997,-5.7997,-5.7997,-5.8217,-5.9024,-6.0419,-6.1777,-6.2572,-6.449,-6.5736,-6.5024,-6.5969,-6.7029,-6.7776,-6.7929,-6.847,-6.9958,-6.8876,-6.7929,-6.7929,-6.732,-6.71,-6.7618,-6.855,-6.82,-6.5969,-6.5592,-6.4471,-6.2235,-6.2121,-6.2421,-6.3049,-6.3079,-6.3079,-6.3079,-6.245,-6.245,-6.3079,-6.2421,-6.2121,-6.2121,-6.2121,-6.245,-6.3019,-6.2702,-6.2792,-6.3104,-6.2375,-6.2224,-6.2574,-6.3213,-6.3403,-6.3495,-6.45,-6.4175,-6.3342,-6.0781,-6.0781,-6.0781,-6.0781,-6.0781,-6.0781,-6.0757,-6.071,-6.066,-6.0635,-6.0585,0.0,0.0,0.0,0.0,0.0,-6.0533,-6.0585,-6.0585,-6.0468,-6.0293,-6.0015,-5.9855,-5.9696,-5.9389,-5.9248,-5.9139,-5.9139,-5.9028,-5.8802,-5.8578,-5.8053,-5.7679,-5.7453,-5.7753,-5.7753,-5.7593,-5.8412,-5.8874,-5.905,-5.7943,-5.756,-5.7582,-5.5969,-5.5196,-5.4822,0.0,-5.4412,-5.4803,-5.4803,-5.4803,-5.4913,-5.5427,-5.5574,-5.5574,-5.5574,-5.6161,-5.6822,-5.6822,-5.7409,-5.7997,-5.7997,-5.7997,-5.8217,-5.9024,-5.9648,-6.0236,-6.1043,-6.2479,-6.3548,-6.3274,-6.4725,-6.6276,-6.701,-6.7996,-6.8876,-6.9383,-6.9451,-6.8842,-6.7354,-6.7387,-6.7455,-6.7133,-6.7665,-6.7288,-6.5235,-6.4964,-6.3859,-6.1545,-6.1852,-6.2181,-6.2421,-6.2839,-6.3079,-6.3079,-6.2869,-6.2869,-6.3079,-6.2839,-6.275,-6.275,-6.275,-6.2714,-6.2702,-6.2408,-6.2168,-6.204,-6.1619,-6.17,-6.2213,-6.2433,-6.2896,-6.3403,-6.3978,-6.3807,-6.3574,0.0,-6.0781,-6.0781,-6.0781,-6.0781,0.0,0.0,0.0,0.0,0.0,0.0,0.0,0.0,0.0,0.0,0.0,0.0,-6.066,-6.066,-6.066,-6.0546,-6.0283,-6.0283,-6.0161,-5.9916,-5.976,-5.9625,-5.9625,-5.9492,-5.9424,-5.9458,-5.8929,-5.8703,-5.8774,-5.8774,-5.8638,-5.8501,-5.9027,-5.9364,-5.9499,-5.808,-5.763,-5.7509,-5.5609,-5.464,0.0,-5.3625,-5.3649,-5.4086,-5.4002,-5.4002,-5.4075,-5.4589,-5.4773,-5.481,-5.506,-5.5721,-5.6418,-5.6712,-5.7409,-5.7997,-5.7997,-5.7997,-5.8143,-5.8657,-5.8988,-5.9355,-5.9869,-6.1017,-6.1967,-6.199,-6.3116,-6.4323,-6.5324,-6.6187,-6.6981,-6.776,-6.8267,-6.803,-6.6576,-6.6812,-6.7015,-6.6846,-6.6846,-6.6201,-6.4636,-6.4657,-6.3599,-6.0856,-6.1373,-6.1732,-6.1732,-6.26,-6.2839,-6.2391,-6.2391,-6.2391,-6.2391,-6.26,-6.272,-6.272,-6.272,-6.2475,-6.204,-6.1575,-6.1365,-6.1267,-6.0816,-6.0976,-6.1625,-6.1734,-6.2195,-6.2917,-6.3271,-6.3517,-6.3684,0.0,0.0,-6.0781,0.0,0.0,0.0,0.0,0.0,0.0,0.0,0.0,0.0,0.0,0.0,0.0,0.0,0.0,0.0,-6.0781,-6.0781,-6.0781,-6.0781,-6.0781,-6.0781,-6.0781,-6.0365,-6.0132,-6.0132,-5.9658,-5.953,-5.9668,-5.9668,-5.9739,-5.9874,-5.9874,-5.9842,-5.9842,-5.9842,-5.9739,-5.9526,-5.8618,-5.772,-5.6756,-5.5581,-5.4651,-5.3944,-5.3639,-5.3481,-5.344,-5.3272,-5.3272,-5.3318,-5.3355,-5.3355,-5.3497,-5.4259,-5.5023,-5.5831,-5.6602,-5.7409,-5.7997,-5.7997,-5.7997,-5.7997,-5.7997,-5.8584,-5.9171,-5.9171,-6.0176,-6.1131,-6.1148,-6.1122,-6.1597,-6.3086,-6.2889,-6.326,-6.5392,-6.5797,-6.5831,-6.5696,-6.5764,-6.6068,-6.6677,-6.617,-6.5334,-6.4159,-6.4505,-6.3286,-6.0276,-6.0685,-6.1074,-6.1074,-6.2301,-6.2391,-6.1134,-6.1104,-6.1104,-6.1134,-6.1732,-6.2061,-6.2061,-6.2061,-6.1672,-6.1014,-6.0386,-6.0446,-6.0924,-5.9934,-5.9999,-6.0897,-6.1218,-6.1567,-6.1902,-6.2517,-6.3195,-6.3779,0.0,0.0,0.0,0.0,0.0,0.0,0.0,0.0,0.0,0.0,0.0,0.0,0.0,0.0,0.0,0.0,0.0,0.0,-6.0781,-6.0781,-6.0781,-6.0781,-6.0781,-6.0781,-6.0781,-6.0671,-6.0622,-6.0622,-6.0508,-6.0456,-6.0482,-6.0482,-6.0482,-6.0546,-6.0546,-6.0403,-6.0179,-6.0179,-5.9992,-5.9555,-5.8116,-5.7201,-5.6514,-5.509,-5.413,-5.3639,-5.3637,-5.3598,-5.3481,-5.3437,-5.34,-5.3511,-5.397,-5.4154,-5.4307,-5.5067,-5.5868,-5.6528,-5.6748,-5.7409,-5.7997,-5.7997,-5.7997,-5.7997,-5.7997,-5.8143,-5.8327,-5.8327,-5.9335,-6.0158,-5.9568,-6.0356,-6.138,-6.2264,-6.333,-6.441,-6.5527,-6.7151,-6.759,-6.5899,-6.6677,-6.6981,-6.6068,-6.6812,-6.6289,-6.3772,-6.3517,-6.2399,-5.9771,-6.0106,-6.0356,-6.0356,-6.1164,-6.1463,-6.1104,-6.1104,-6.1104,-6.1104,-6.1283,-6.1373,-6.1373,-6.1373,-6.0984,-6.0326,-6.0146,-5.9907,-5.9578,-5.9573,-5.9757,-6.0229,-6.0547,-6.1138,-6.184,-6.1994,-6.2487,-6.301,0.0,0.0,0.0,0.0,0.0,0.0,0.0,0.0,0.0,0.0,0.0,0.0,0.0,0.0,0.0,0.0,0.0,0.0,0.0,-6.0734,-6.0734,-6.0734,-6.0781,-6.0781,-6.0781,-6.0781,-6.0781,-6.0781,-6.0781,-6.0781,-6.0781,-6.0781,-6.0781,-6.0781,-6.0781,-6.071,-6.052,-6.052,-6.0321,0.0,0.0,-5.7769,-5.7291,-5.5908,-5.5172,-5.4837,-5.4383,-5.4152,-5.4035,-5.3957,-5.4216,-5.4585,-5.4932,-5.5043,-5.519,-5.5912,-5.6455,-5.6895,-5.7226,-5.7666,-5.7997,-5.7997,-5.7997,-5.7997,-5.7997,-5.7997,-5.7997,-5.7997,-5.9042,-5.9771,-5.8969,-5.9474,-6.0288,-6.0994,-6.1727,-6.2753,-6.4478,-6.6102,-6.688,-6.6271,-6.6914,-6.7218,-6.6711,-6.6812,-6.5955,-6.3609,-6.3485,-6.2342,-5.9636,-5.9837,-5.9967,-5.9668,-6.0595,-6.0954,-6.0655,-6.0386,-6.0386,-6.0655,-6.0655,-6.0655,-6.0655,-6.0655,-6.0296,-5.9668,-5.9668,-5.9537,-5.9315,-5.9422,-5.9743,-6.0197,-6.0377,-6.0831,-6.1379,-6.1379,-6.1809,-6.2333,0.0,0.0,0.0,0.0,0.0,0.0,0.0,0.0,0.0,0.0,-6.0781,-6.0781,-6.0781,-6.0734,0.0,0.0,0.0,0.0,0.0,0.0,-6.0685,-6.0685,-6.0757,-6.0781,-6.0781,-6.0781,-6.0757,-6.0734,-6.0734,-6.071,-6.0685,-6.071,-6.071,-6.0685,-6.071,-6.071,-6.0685,-6.0685,-6.0444,-6.0008,-5.9216,-5.8661,-5.8164,0.0,-5.6665,-5.6444,-5.5389,-5.4999,-5.4991,-5.487,-5.5318,-5.5913,-5.5932,-5.5926,-5.6073,-5.6793,-5.6969,-5.7116,-5.7813,-5.7997,-5.7997,-5.7997,-5.7997,-5.7997,-5.7997,-5.7997,-5.7997,-5.7997,-5.8969,-5.9575,-5.8687,-5.8581,-5.8913,-5.9634,-5.9389,-6.0216,-6.3226,-6.4208,-6.5155,-6.6643,-6.6643,-6.6812,-6.7523,-6.6255,-6.4767,-6.3347,-6.3357,-6.2336,-5.9516,-5.9627,-5.9608,-5.9129,-6.0236,-6.0565,-5.9967,-5.9398,-5.9398,-5.9967,-5.9967,-5.9967,-5.9967,-5.9967,-5.9638,-5.9099,-5.9099,-5.9207,-5.9529,-5.9529,-5.9849,-6.0377,-6.0481,-6.0586,-6.0794,-6.0794,-6.1163,-6.1686,0.0,0.0,0.0,0.0,0.0,0.0,0.0,0.0,0.0,0.0,-6.0781,-6.0757,0.0,0.0,0.0,0.0,0.0,0.0,0.0,0.0,0.0,-6.0685,-6.0757,-6.0781,-6.0781,-6.0781,-6.0647,-6.0376,-6.0376,-6.0237,-6.0,-6.0265,-6.0237,-6.0,-6.0265,-6.0237,-6.0,-6.0,-5.952,-5.8812,-5.866,-5.7975,-5.6995,-5.6774,0.0,0.0,-5.5766,-5.6092,-5.6651,-5.6602,-5.6276,-5.5987,-5.647,-5.6691,-5.6919,-5.7602,-5.7776,-5.7813,-5.796,-5.7997,-5.7997,-5.7997,-5.7997,-5.7997,-5.7997,-5.7997,-5.7997,-5.7997,-5.8578,-5.8601,-5.7273,-5.7512,-5.8164,-5.894,-5.9583,-6.096,-6.3971,-6.4512,-6.5155,-6.6643,-6.573,-6.5256,-6.6,-6.4555,-6.3111,-6.1833,-6.0836,-5.988,-5.8821,-5.8518,-5.865,-5.9099,-5.9338,-5.9398,-5.9279,-5.9159,-5.9159,-5.9279,-5.9279,-5.9279,-5.9279,-5.9279,-5.9219,-5.9099,-5.9099,-5.9207,-5.9529,-5.9773,-6.0092,-6.0377,-6.069,-6.0794,-6.0794,-6.0794,-6.0886,-6.0978,0.0,0.0,0.0,0.0,0.0,0.0,0.0,-6.0781,-6.0734,-6.0482,-6.0456,-6.0482,-6.0685,-6.0468,-6.0265,0.0,0.0,0.0,0.0,0.0,0.0,0.0,0.0,0.0,-6.0074,-6.0074,-6.0205,-6.0475,0.0,-6.0058,-6.0312,-6.0159,-5.9931,-5.9809,-6.0,-5.9969,-5.9809,-5.9809,-5.9446,-5.8864,-5.8864,-5.8389,-5.7635,0.0,0.0,0.0,0.0,-5.6669,-5.6919,-5.6912,-5.6956,-5.703,-5.7344,-5.7491,-5.761,-5.7886,-5.7997,-5.7997,-5.7997,-5.7997,-5.7997,-5.7997,-5.7997,-5.7997,-5.7997,-5.7997,-5.7997,-5.7997,-5.8154,-5.7991,-5.6901,-5.6952,-5.73,-5.7633,-5.8689,-6.0452,-6.3091,-6.3802,-6.458,-6.6068,-6.5256,-6.4551,-6.4439,-6.3178,-6.1731,-6.0009,-5.8844,-5.8153,-5.8096,-5.8038,-5.8441,-5.9069,-5.9099,-5.9099,-5.9099,-5.9099,-5.9099,-5.9099,-5.9099,-5.9099,-5.9099,-5.9099,-5.9099,-5.9099,-5.9099,-5.9315,-5.9773,-5.988,-6.0197,-6.0586,-6.0794,-6.0794,-6.0794,-6.0794,-6.0794,-6.0794,0.0,0.0,0.0,0.0,0.0,0.0,-6.071,-6.0751,-6.0671,-6.0311,-6.0182,-6.0311,-6.0644,-6.0137,-5.9772,0.0,0.0,0.0,0.0,0.0,0.0,0.0,0.0,0.0,-5.9917,0.0,0.0,-6.0754,-6.0224,0.0,0.0,0.0,0.0,0.0,-5.9643,-5.9605,-5.9502,-5.9537,-5.9361,0.0,0.0,-5.8828,-5.8486,0.0,0.0,0.0,0.0,-5.7169,-5.7079,-5.7079,-5.7483,-5.7997,-5.7997,-5.7997,-5.7997,-5.7997,-5.8107,-5.8253,-5.8253,-5.8364,-5.851,-5.851,-5.8364,-5.8253,-5.8253,-5.8107,-5.795,-5.7774,-5.7674,-5.737,-5.6402,-5.6195,-5.6222,-5.6368,-5.7596,-5.9404,-6.1806,-6.2651,-6.3632,-6.5256,-6.4681,-6.3814,-6.2993,-6.1871,-6.0299,-5.8153,-5.6988,-5.6647,-5.7269,-5.7798,-5.8351,-5.889,-5.889,-5.8949,-5.9099,-5.9099,-5.9099,-5.9099,-5.8949,-5.8979,-5.9099,-5.88,-5.883,-5.9099,-5.88,-5.9182,-5.9986,-5.9834,-6.018,-6.0794,-6.0794,-6.0794,-6.0794,-6.0794,-6.0794,-6.0794,0.0,0.0,0.0,0.0,0.0,0.0,-6.0349,-6.0601,-6.0766,-6.0732,-6.0594,-6.0488,-6.0523,-5.9809,-5.9359,0.0,0.0,0.0,0.0,0.0,0.0,0.0,0.0,0.0,0.0,0.0,0.0,-6.1226,-6.1192,0.0,0.0,0.0,0.0,0.0,0.0,-5.8947,-5.8619,-5.8743,0.0,0.0,0.0,0.0,0.0,0.0,0.0,0.0,0.0,-5.7886,-5.7886,-5.7886,-5.7923,-5.7997,-5.7997,-5.7997,-5.7997,-5.7997,-5.851,-5.9098,-5.9098,-5.9612,-6.0199,-6.0199,-5.9648,-5.9098,-5.9098,-5.851,-5.7821,-5.7116,-5.6933,-5.6402,-5.4999,-5.4648,-5.4888,-5.5688,-5.6498,-5.8017,-6.0994,-6.1467,-6.2313,-6.4444,-6.3463,-6.2502,-6.2282,-6.0511,-5.8652,-5.6776,-5.5232,-5.495,-5.6299,-5.7453,-5.8141,-5.8201,-5.8201,-5.8501,-5.9099,-5.9099,-5.9099,-5.9099,-5.8501,-5.853,-5.9069,-5.7842,-5.7962,-5.9039,-5.7812,-5.8309,-5.9955,-5.9318,-5.9723,-6.0794,-6.0794,-6.0794,-6.0794,-6.0794,-6.0794,-6.0794,0.0,0.0,0.0,0.0,0.0,0.0,-5.976,-6.0244,-6.0601,-6.0303,-6.0187,-6.0065,-5.977,-5.943,-5.9329,-5.9536,-5.9627,0.0,0.0,0.0,0.0,0.0,0.0,0.0,0.0,0.0,-6.113,-6.1468,-6.1115,0.0,0.0,0.0,0.0,0.0,0.0,-5.8614,-5.8443,-5.8523,0.0,0.0,0.0,0.0,0.0,0.0,0.0,0.0,0.0,0.0,-5.7997,-5.7997,-5.7997,-5.7997,-5.7997,-5.7997,-5.7997,-5.7997,-5.8584,-5.9208,-5.9208,-5.9795,-6.0419,-6.0419,-6.0162,-5.97,-5.8859,-5.8346,-5.7746,-5.6582,-5.5872,-5.5238,-5.4695,-5.42,-5.3988,-5.4364,-5.5378,-5.6867,-5.8964,-5.9641,-6.0492,-6.2197,-6.148,-6.0622,-5.9855,-5.8351,-5.6839,-5.5206,-5.4948,-5.5029,-5.5568,-5.6436,-5.7124,-5.7483,-5.7513,-5.7633,-5.7902,-5.7902,-5.7902,-5.7902,-5.7633,-5.7872,-5.8471,-5.7543,-5.7603,-5.8471,-5.8174,-5.858,-5.9379,-5.971,-6.0236,-6.0794,-6.0794,-6.0794,-6.0794,-6.0794,-6.0794,-6.0794,0.0,0.0,0.0,0.0,0.0,-5.9395,-5.9286,-5.9816,-6.022,-6.0147,-5.9875,-5.9664,-5.9585,-5.9355,-5.9421,-5.9923,-5.9946,0.0,0.0,0.0,0.0,0.0,0.0,0.0,0.0,0.0,-6.141,-6.1961,-6.125,-6.1187,0.0,0.0,-5.9743,-5.9485,0.0,0.0,0.0,0.0,0.0,0.0,0.0,0.0,0.0,0.0,0.0,0.0,0.0,0.0,0.0,0.0,0.0,-5.7997,-5.7997,-5.7867,-5.7774,-5.795,-5.8731,-5.9575,-5.9575,-6.0346,-6.1117,-6.1117,-6.075,-6.0136,-5.916,-5.8466,-5.7727,-5.648,-5.5724,-5.5133,-5.4707,-5.4156,-5.3754,-5.3551,-5.4566,-5.5886,-5.7374,-5.7965,-5.8763,-6.0207,-5.9647,-5.8828,-5.7923,-5.6404,-5.5245,-5.456,-5.4551,-5.476,-5.5179,-5.5628,-5.6166,-5.6795,-5.6825,-5.6915,-5.7094,-5.7094,-5.7094,-5.7094,-5.6915,-5.7184,-5.7782,-5.6944,-5.7124,-5.8112,-5.8068,-5.8533,-5.9288,-5.9662,-6.0218,-6.0763,-6.0578,-6.064,-6.0794,-6.0794,-6.0794,-6.0794,0.0,0.0,0.0,0.0,0.0,-5.891,-5.891,-5.9202,-5.9688,-6.0498,-5.9816,-5.9501,-6.0309,-5.9685,-5.9538,-6.0309,-6.1117,0.0,0.0,0.0,0.0,0.0,0.0,0.0,-6.2805,-6.2805,-6.2805,-6.2805,-6.1998,-6.1594,-6.1557,-6.075,-5.9979,-5.9208,0.0,0.0,0.0,0.0,0.0,0.0,0.0,0.0,0.0,0.0,0.0,0.0,0.0,0.0,0.0,0.0,0.0,0.0,0.0,-5.7594,-5.7216,-5.7821,-5.9134,-6.0382,-6.0382,-6.1557,-6.2805,-6.2805,-6.16,-6.0413,-6.0413,-5.9152,-5.7761,-5.6953,-5.6759,-5.6291,-5.4907,-5.4566,-5.4329,-5.3619,-5.4126,-5.5108,-5.6596,-5.6713,-5.7177,-5.8634,-5.8035,-5.7367,-5.6892,-5.4911,-5.4067,-5.5089,-5.3952,-5.3773,-5.5119,-5.5209,-5.5508,-5.6166,-5.6196,-5.6466,-5.7094,-5.7094,-5.7094,-5.7094,-5.6466,-5.6496,-5.7064,-5.5777,-5.6286,-5.8052,-5.7045,-5.7928,-5.9895,-5.8838,-5.9389,-6.0732,-6.0055,-6.0209,-6.0794,-6.0794,-6.0794,-6.0794,0.0,0.0,0.0,0.0,0.0,0.0,-5.8319,-5.8841,-5.9365,-5.9622,-5.9355,-5.9318,-5.9575,-5.9832,-6.0126,-6.0382,-6.1153,0.0,0.0,0.0,0.0,0.0,0.0,0.0,-6.2805,-6.2805,-6.2805,-6.2805,-6.2548,-6.2438,-6.2401,-6.1594,-6.108,-6.0786,-5.9769,-5.9108,0.0,0.0,0.0,0.0,0.0,0.0,-6.0419,0.0,0.0,0.0,0.0,0.0,0.0,0.0,0.0,0.0,0.0,0.0,0.0,-5.7065,-5.8161,-5.915,-5.9006,-6.01,-6.1322,-6.1207,-6.0759,-6.0143,-5.9188,-5.8437,-5.7712,-5.6472,-5.6133,-5.5928,-5.5482,-5.4938,-5.4668,-5.4972,-5.4682,-5.4828,-5.5762,-5.5809,-5.5994,-5.6831,-5.6825,-5.6217,-5.4691,-5.4425,-5.4368,-5.4491,-5.4132,-5.4251,-5.5149,-5.476,-5.482,-5.5478,-5.5508,-5.5598,-5.5777,-5.5807,-5.5807,-5.5777,-5.5598,-5.5837,-5.6436,-5.5568,-5.5777,-5.6765,-5.6858,-5.7243,-5.8024,-5.846,-5.8938,-5.9408,-5.9193,-5.9501,-6.0116,-6.0116,-6.0116,-6.0116,0.0,0.0,0.0,0.0,0.0,0.0,-5.7997,-5.8437,-5.8877,-5.9171,-5.8951,-5.8877,-5.9171,-5.9942,-6.0419,-6.0419,-6.141,0.0,0.0,0.0,0.0,0.0,0.0,0.0,-6.2805,-6.2511,-6.2511,-6.2805,-6.2218,-6.2218,-6.2805,-6.1667,-6.13,-6.152,-5.9942,-5.9208,0.0,0.0,0.0,0.0,0.0,0.0,-6.0622,0.0,0.0,0.0,0.0,0.0,0.0,0.0,0.0,0.0,0.0,0.0,0.0,0.0,-5.7499,-5.8193,-5.852,-5.9561,-6.0555,-6.0432,-6.0149,-5.9692,-5.882,-5.8252,-5.7775,-5.6913,-5.6599,-5.6461,-5.619,-5.5505,-5.5022,-5.5223,-5.446,-5.4164,-5.493,-5.4632,-5.4528,-5.4902,-5.5189,-5.5007,-5.4044,-5.4007,-5.4209,-5.4551,-5.4102,-5.4132,-5.479,-5.4431,-5.4401,-5.482,-5.4581,-5.467,-5.5179,-5.494,-5.494,-5.5179,-5.5179,-5.5418,-5.5777,-5.5388,-5.564,-5.6372,-5.6779,-5.7355,0.0,-5.85,-5.8947,-5.9131,-5.8885,-5.9193,-5.9778,-5.9778,-5.9778,-5.9839,0.0,0.0,0.0,0.0,0.0,0.0,0.0,-5.7997,-5.8253,-5.9024,-5.8474,-5.829,-5.9061,-5.9905,-6.0419,-6.0419,-6.1887,0.0,0.0,0.0,0.0,0.0,0.0,-6.2805,-6.2805,-6.2071,-6.2034,-6.2805,-6.13,-6.1337,-6.2768,-6.1227,-6.0896,-6.152,-5.9942,-5.9161,0.0,0.0,0.0,0.0,-6.0666,-6.0824,0.0,0.0,0.0,0.0,0.0,0.0,0.0,0.0,0.0,0.0,0.0,0.0,0.0,0.0,0.0,0.0,0.0,-5.9682,-6.0211,-6.0211,-5.9639,-5.8976,-5.8976,-5.8458,0.0,-5.7881,-5.7881,-5.7679,-5.693,-5.6111,-5.5322,-5.4543,-5.3693,-5.3341,-5.4083,-5.3541,-5.3059,-5.3224,-5.3546,-5.3953,-5.4466,-5.3789,-5.3803,-5.5089,-5.3982,-5.3533,-5.4192,-5.4162,-5.4132,-5.4132,-5.3414,-5.3743,-5.5179,-5.4551,-5.4551,-5.5179,-5.5179,-5.5179,-5.5179,-5.5179,-5.5711,-5.6485,-5.6789,-5.7821,-5.9123,-5.8785,-5.9039,-5.9593,-5.8947,-5.9131,-5.9716,-5.9716,-5.9686,-5.9747,0.0,0.0,0.0,0.0,0.0,0.0,0.0,0.0,0.0,0.0,-5.8107,-5.807,-5.8253,-5.9538,-6.0419,0.0,0.0,0.0,0.0,0.0,0.0,0.0,-6.2805,-6.2805,-6.2805,-6.2622,-6.2622,-6.2805,-6.2438,-6.2438,-6.2805,-6.1777,-6.141,-6.152,-5.9942,-5.8933,0.0,0.0,0.0,0.0,-6.0648,-6.0795,0.0,0.0,0.0,0.0,-5.9228,-5.9029,0.0,0.0,0.0,0.0,0.0,0.0,0.0,0.0,-5.6913,-5.7114,-5.7978,0.0,-5.8668,-5.8528,-5.8317,-5.8209,0.0,-5.8027,-5.7881,-5.7881,-5.7881,-5.7668,-5.6796,-5.6037,-5.5391,-5.5129,-5.3856,-5.3216,-5.3967,-5.397,-5.353,-5.2398,-5.3996,-5.4669,-5.3601,-5.3743,-5.4311,-5.5119,-5.4431,-5.4042,-5.4192,-5.3713,-5.3414,-5.3414,-5.2306,-5.2815,-5.5179,-5.4551,-5.4551,-5.5179,-5.5179,-5.5179,-5.5179,-5.5179,-5.5471,-5.5822,-5.6122,-5.6602,-5.7075,-5.7187,-5.7623,-5.8239,-5.8085,-5.8423,-5.9008,-5.9008,-5.8701,-5.827,0.0,0.0,0.0,0.0,0.0,0.0,0.0,0.0,0.0,0.0,-5.7997,-5.7997,-5.7997,-5.9098,-6.0015,0.0,0.0,0.0,0.0,0.0,0.0,-6.2805,-6.2805,-6.2805,-6.2805,-6.2108,-6.1887,-6.2254,-6.2254,-6.2438,-6.2805,-6.2768,-6.2511,-6.2071,-6.0212,-5.9175,0.0,0.0,0.0,-5.9708,-6.007,0.0,0.0,0.0,0.0,0.0,-5.8959,-5.8767,0.0,-5.7775,-5.7534,-5.7491,0.0,0.0,0.0,0.0,-5.7306,-5.7374,-5.778,-5.7954,-5.8027,-5.7954,-5.7881,-5.7881,-5.7881,-5.7881,-5.7881,-5.7881,-5.7554,-5.7181,-5.6691,-5.5627,-5.4746,-5.4755,-5.3607,-5.2909,-5.3165,-5.3283,-5.3097,-5.2725,-5.3803,-5.4299,-5.3683,-5.3982,-5.4221,-5.4281,-5.3952,-5.3593,-5.3294,-5.2935,-5.2725,-5.2725,-5.1738,-5.2336,-5.473,-5.4072,-5.4221,-5.5179,-5.528,-5.528,-5.5179,-5.528,-5.5661,-5.6234,-5.6434,-5.6915,-5.7518,-5.8023,-5.8177,-5.8239,-5.8239,-5.8454,-5.8731,-5.8423,-5.8085,-5.7808,0.0,0.0,0.0,0.0,0.0,0.0,0.0,0.0,0.0,0.0,0.0,0.0,0.0,0.0,0.0,0.0,0.0,0.0,0.0,0.0,-6.2805,-6.2805,-6.2805,-6.2805,-6.2805,-6.1484,-6.119,-6.1961,-6.1961,-6.2401,-6.3209,-6.3694,-6.3387,-6.2245,-6.025,-5.9414,-5.9503,-5.9406,-5.9432,-5.9513,-5.9314,0.0,0.0,0.0,0.0,0.0,0.0,0.0,0.0,-5.7954,-5.7881,-5.7881,-5.7881,0.0,0.0,0.0,0.0,0.0,-5.7881,-5.7881,-5.7881,-5.7881,-5.7881,-5.7881,-5.7881,-5.7881,-5.7881,-5.7735,-5.7105,-5.6536,-5.627,-5.4985,-5.4008,-5.3962,-5.3357,-5.2762,-5.2459,-5.2398,-5.2637,-5.3471,-5.3579,-5.3683,-5.4162,-5.4132,-5.3862,-5.3384,-5.3144,-5.2785,-5.2217,-5.2187,-5.2157,-5.2067,-5.1498,-5.2097,-5.3892,-5.3324,-5.3743,-5.5179,-5.529,-5.529,-5.5179,-5.5481,-5.6083,-5.6829,-5.702,-5.7687,-5.867,-5.9255,-5.9193,-5.8762,-5.867,-5.8639,-5.8547,-5.7993,-5.7715,-5.7685,0.0,0.0,0.0,0.0,0.0,0.0,0.0,0.0,0.0,0.0,0.0,0.0,0.0,0.0,0.0,0.0,0.0,0.0,0.0,-6.2805,-6.2805,-6.2805,-6.2805,-6.2805,-6.2805,-6.2585,-6.2842,-6.3723,-6.3723,-6.4127,-6.4897,-6.3711,-6.2129,-6.016,-5.9107,-5.8667,-5.8654,-5.863,-5.8703,-5.8667,-5.8667,0.0,0.0,0.0,0.0,0.0,0.0,0.0,0.0,-5.7881,-5.7881,-5.7881,-5.7881,0.0,0.0,0.0,0.0,0.0,-5.7881,-5.7881,-5.7881,-5.7881,-5.7881,-5.7881,-5.7881,-5.7881,-5.7735,-5.692,-5.6691,-5.6113,-5.4653,-5.4147,-5.3939,-5.3799,-5.3651,-5.3469,-5.3193,-5.3371,-5.3637,-5.3592,-5.4419,-5.47,-5.4251,-5.3683,-5.3533,-5.4012,-5.2995,-5.2306,-5.2217,-5.2187,-5.1947,-5.1379,-5.1259,-5.1618,-5.2486,-5.2396,-5.3294,-5.5179,-5.464,-5.464,-5.5179,-5.5481,-5.5841,-5.6161,-5.7007,-5.7542,-5.7931,-5.8023,-5.8362,-5.8731,-5.8146,-5.7931,-5.79,-5.7808,-5.7408,-5.6946,0.0,0.0,0.0,0.0,0.0,0.0,0.0,0.0,0.0,0.0,0.0,0.0,0.0,0.0,0.0,0.0,0.0,0.0,-6.2144,-6.2585,-6.2805,-6.2805,-6.2401,-6.2365,-6.2805,-6.2365,-6.2548,-6.3392,-6.3487,-6.3911,-6.4676,-6.3077,-6.164,-6.0254,-5.8969,-5.8411,-5.8461,-5.839,-5.8348,-5.8348,0.0,0.0,0.0,0.0,0.0,0.0,0.0,0.0,0.0,0.0,-5.7881,-5.7881,-5.7881,0.0,0.0,0.0,0.0,0.0,-5.7881,-5.7881,-5.7983,-5.8389,-5.8186,-5.7881,-5.7881,-5.7554,-5.7105,-5.6691,-5.5876,-5.4985,-5.4147,-5.3577,-5.3419,-5.3682,-5.4022,-5.4082,-5.3708,-5.3857,-5.3905,-5.3909,-5.4381,-5.4551,-5.4251,-5.3922,-5.3563,-5.3144,-5.2546,-5.2037,-5.1678,-5.1678,-5.1528,-5.1229,-5.1229,-5.1528,-5.2187,-5.1858,-5.2665,-5.464,-5.4081,-5.4321,-5.5179,-5.5219,-5.5728,-5.6525,-5.7129,-5.758,-5.7808,-5.8177,-5.83,-5.8208,-5.79,-5.7777,-5.7715,-5.7346,-5.7038,-5.6761,0.0,0.0,0.0,0.0,0.0,0.0,0.0,0.0,0.0,0.0,0.0,0.0,0.0,0.0,0.0,0.0,0.0,0.0,-6.1594,-6.2365,-6.2805,-6.2805,-6.2218,-6.2181,-6.2805,-6.2218,-6.2265,-6.3064,-6.3403,-6.3661,-6.3908,-6.2489,-6.1395,-6.0526,-5.8903,-5.8256,-5.8419,-5.8205,-5.8099,-5.8099,0.0,0.0,0.0,0.0,0.0,0.0,0.0,0.0,0.0,0.0,0.0,0.0,0.0,0.0,0.0,-5.7881,-5.7881,-5.7881,-5.7881,-5.7881,-5.8017,-5.8592,-5.8275,-5.7857,-5.8025,-5.742,-5.6718,-5.6526,-5.5256,-5.4143,-5.4002,-5.333,-5.3129,-5.3652,-5.4299,-5.4604,-5.4283,-5.4218,-5.4268,-5.447,-5.4431,-5.4431,-5.4431,-5.4162,-5.3533,-5.2516,-5.2127,-5.1738,-5.1259,-5.1229,-5.1229,-5.1229,-5.1229,-5.1468,-5.1977,-5.1563,-5.2222,-5.3952,-5.3488,-5.3879,-5.504,-5.4873,-5.55,-5.6594,-5.7075,-5.7334,-5.7592,-5.827,-5.8239,-5.7746,-5.7592,-5.7531,-5.7469,-5.6946,-5.6761,-5.6761,0.0,0.0,0.0,0.0,0.0,0.0,0.0,0.0,0.0,0.0,0.0,0.0,0.0,0.0,0.0,0.0,0.0,0.0,-6.1594,-6.2365,-6.2805,-6.2805,-6.2768,-6.2768,-6.2805,-6.2768,-6.3069,-6.3827,-6.4809,-6.4552,-6.3234,-6.2296,-6.1051,-5.9693,-5.8658,-5.8209,-5.8205,-5.8027,-5.7881,-5.7881,-5.7881,0.0,0.0,0.0,0.0,0.0,0.0,0.0,0.0,0.0,0.0,0.0,0.0,0.0,-5.7881,-5.7881,-5.7881,-5.7881,-5.7881,-5.7881,-5.7915,-5.7949,-5.7792,-5.7806,-5.8469,-5.7921,-5.7001,-5.6257,-5.5486,-5.4694,-5.3895,-5.3652,-5.3652,-5.3714,-5.4299,-5.4757,-5.4861,-5.4855,-5.4933,-5.513,-5.5119,-5.5119,-5.5119,-5.3982,-5.3204,-5.3114,-5.1977,-5.1259,-5.1229,-5.1229,-5.1229,-5.1229,-5.1229,-5.1229,-5.1289,-5.1509,-5.2171,-5.3234,-5.2576,-5.3158,-5.4647,-5.4274,-5.4526,-5.5486,-5.6449,-5.6823,-5.6884,-5.7562,-5.7808,-5.7715,-5.7069,-5.6823,-5.6823,-5.6792,-5.6761,-5.6761,0.0,0.0,0.0,0.0,0.0,0.0,0.0,0.0,0.0,0.0,0.0,0.0,0.0,0.0,0.0,0.0,0.0,0.0,-6.1643,-6.2365,-6.2805,-6.2805,-6.185,-6.1514,-6.2076,-6.2495,-6.3437,-6.4824,-6.4269,-6.3228,-6.1634,-6.0662,-5.9727,-5.8757,-5.8235,-5.8027,-5.8027,-5.7954,-5.7881,-5.7881,-5.7881,-5.7881,0.0,0.0,0.0,0.0,0.0,0.0,0.0,0.0,-5.7881,-5.7881,-5.7881,-5.7881,-5.7881,-5.7881,-5.7881,-5.7881,-5.7881,-5.7881,-5.791,-5.7825,-5.7318,-5.689,-5.7285,-5.6936,-5.6257,-5.5493,-5.5055,-5.4634,-5.3806,-5.3714,-5.3714,-5.3714,-5.4451,-5.4905,-5.4466,-5.4971,-5.5129,-5.461,-5.494,-5.5029,-5.461,-5.3743,-5.3025,-5.2606,-5.1738,-5.1229,-5.1229,-5.1229,-5.1229,-5.1229,-5.1229,-5.1323,-5.1479,-5.1386,-5.175,-5.245,-5.1991,-5.2562,-5.3953,-5.3577,-5.3891,-5.4721,-5.5712,-5.6084,-5.6146,-5.6854,-5.7131,-5.7131,-5.6854,-5.6761,-5.6761,-5.6761,-5.6761,-5.6761,0.0,0.0,0.0,0.0,0.0,0.0,0.0,0.0,0.0,0.0,0.0,0.0,0.0,0.0,0.0,0.0,0.0,0.0,-6.1606,-6.2328,-6.2691,-6.2433,-6.1353,-6.106,-6.1588,-6.1831,-6.2638,-6.4143,-6.3063,-6.1803,-6.0262,-5.9531,-5.8812,-5.8099,-5.7954,-5.7881,-5.7881,-5.7881,-5.7881,-5.7881,-5.7881,-5.7881,0.0,0.0,0.0,0.0,0.0,0.0,0.0,0.0,-5.7881,-5.7881,-5.7881,-5.7881,-5.7881,-5.7881,-5.7881,-5.7881,-5.7881,-5.7881,-5.7836,-5.7443,-5.7003,-5.6446,-5.5912,-5.5815,-5.5897,-5.5646,-5.5286,-5.476,-5.3899,-5.3714,-5.3714,-5.3714,-5.4297,-5.4599,-5.4196,-5.4849,-5.5008,-5.4179,-5.4491,-5.461,-5.3952,-5.3264,-5.2695,-5.2247,-5.1588,-5.1229,-5.1229,-5.1229,-5.1229,-5.1229,-5.1229,-5.1323,-5.1479,-5.1509,-5.1602,-5.188,-5.188,-5.2455,-5.3451,-5.2973,-5.3406,-5.4449,-5.5097,-5.5499,-5.5745,-5.6484,-5.6761,-5.6761,-5.6761,-5.6761,-5.6761,-5.6761,-5.6761,-5.6761,0.0,0.0,0.0,0.0,0.0,0.0,0.0,0.0,-5.7997,-5.7997,-5.8713,0.0,0.0,0.0,0.0,0.0,0.0,0.0,-6.1581,-6.2377,-6.2433,-6.1609,-6.16,-6.1588,-6.1592,-6.0726,-6.0601,-6.1397,-6.1313,-6.0562,-5.9259,-5.9072,-5.8592,-5.7881,-5.7881,-5.7881,-5.7881,-5.7881,-5.7881,-5.7881,-5.7881,-5.7881,-5.7881,0.0,0.0,0.0,0.0,0.0,0.0,0.0,-5.7881,-5.7881,-5.7881,-5.7881,-5.7881,-5.7881,-5.7881,-5.7881,-5.7881,-5.7881,-5.7662,-5.6801,-5.6955,-5.6691,-5.4496,-5.4937,-5.5899,-5.6607,-5.6176,-5.5284,-5.396,-5.3714,-5.3714,-5.3714,-5.3714,-5.3868,-5.4202,-5.4683,-5.4577,-5.3682,-5.3901,-5.3922,-5.3234,-5.2576,-5.2187,-5.2187,-5.1588,-5.1229,-5.1229,-5.1229,-5.1229,-5.1229,-5.1229,-5.1229,-5.1229,-5.1695,-5.188,-5.1572,-5.2124,-5.2643,-5.3254,-5.2612,-5.3132,-5.473,-5.473,-5.5099,-5.5745,-5.6484,-5.6761,-5.6761,-5.6761,-5.6761,-5.6761,-5.6761,-5.6761,-5.6761,0.0,0.0,0.0,0.0,0.0,0.0,0.0,0.0,-5.8226,-5.8787,-5.9559,0.0,0.0,0.0,0.0,0.0,0.0,0.0,-6.1655,-6.1825,-6.16,-6.0813,-6.02,-5.9854,-5.9822,-5.9562,-5.9779,-6.0529,-6.0109,-5.9587,-5.9072,-5.8457,-5.8084,-5.7881,-5.7881,-5.7881,-5.7881,-5.7881,-5.7881,-5.7881,-5.7881,-5.7881,-5.7881,0.0,0.0,0.0,0.0,0.0,0.0,0.0,0.0,0.0,-5.7881,-5.7881,-5.7881,-5.7881,-5.7881,-5.7881,-5.7881,-5.7881,-5.7689,-5.6657,-5.6514,-5.6328,-5.5434,-5.5811,-5.6361,-5.6084,-5.5838,-5.5284,-5.396,-5.3714,-5.3714,-5.3714,-5.353,-5.359,-5.4074,-5.4031,-5.3803,-5.3398,-5.3451,-5.3234,-5.2546,-5.2306,-5.2102,-5.181,-5.1413,-5.1323,-5.1479,-5.1293,-5.1323,-5.1509,-5.1479,-5.1665,-5.1941,-5.1972,-5.2185,-5.2337,-5.2306,-5.2398,-5.2581,-5.2398,-5.2887,-5.4052,-5.4514,-5.5099,-5.5745,-5.6484,-5.6761,-5.6761,-5.6761,-5.6761,-5.6761,-5.6761,-5.6761,-5.6761,0.0,0.0,0.0,0.0,0.0,0.0,0.0,0.0,-5.8033,-5.8823,-5.9882,-6.0599,0.0,0.0,0.0,0.0,0.0,0.0,-6.1249,-6.1187,-6.0782,-6.003,-5.9446,-5.8959,-5.8599,-5.8579,-5.8795,-5.9235,-5.9214,-5.901,-5.8558,-5.8423,-5.8355,-5.8355,-5.8355,-5.8355,-5.8321,-5.8017,-5.7881,-5.7881,-5.7881,-5.7881,-5.7881,0.0,0.0,0.0,0.0,0.0,0.0,0.0,0.0,0.0,-5.866,-5.8355,-5.7949,-5.8254,-5.8355,-5.8355,-5.8355,-5.8302,-5.7963,-5.7004,-5.6659,-5.6384,-5.5845,-5.6023,-5.6146,-5.5468,-5.5315,-5.4976,-5.3929,-5.3714,-5.3622,-5.3375,-5.304,-5.2978,-5.3312,-5.3209,-5.3014,-5.2617,-5.2732,-5.2546,-5.1887,-5.1892,-5.1837,-5.1446,-5.1386,-5.1386,-5.1386,-5.1386,-5.1386,-5.1572,-5.1695,-5.188,-5.2155,-5.2155,-5.2246,-5.2518,-5.2518,-5.2641,-5.2886,-5.261,-5.3162,-5.4545,-5.5222,-5.5745,-5.6146,-5.6577,-5.6761,-5.6761,-5.6761,-5.6761,-5.6761,-5.6761,-5.6761,-5.6792,0.0,0.0,-5.6405,-5.6405,0.0,0.0,0.0,0.0,-5.774,-5.8421,-5.9736,-6.0359,0.0,0.0,0.0,0.0,0.0,-6.0622,-6.055,-6.0399,-5.9955,-5.9298,-5.9071,-5.8619,-5.7954,-5.7881,-5.7881,-5.7881,-5.8592,-5.8558,-5.7915,-5.866,-5.9032,-5.9032,-5.9032,-5.9032,-5.8964,-5.822,-5.7881,-5.7881,-5.7881,-5.7881,-5.7881,-5.7881,0.0,0.0,0.0,0.0,0.0,0.0,0.0,0.0,-5.9877,-5.9167,-5.822,-5.8896,-5.9099,-5.9099,-5.9099,-5.893,-5.8525,-5.7734,-5.7253,-5.6712,-5.5811,-5.5592,-5.5407,-5.4791,-5.4699,-5.4514,-5.3775,-5.3683,-5.3529,-5.2914,-5.2549,-5.2337,-5.2459,-5.2486,-5.2326,-5.1753,-5.1957,-5.1887,-5.1259,-5.1386,-5.1479,-5.1323,-5.1479,-5.1479,-5.1323,-5.1479,-5.1572,-5.1665,-5.188,-5.2094,-5.2094,-5.2246,-5.2306,-5.2306,-5.2608,-5.3098,-5.3775,-5.3129,-5.3868,-5.5745,-5.6453,-5.6761,-5.6761,-5.6761,-5.6761,-5.6761,-5.6761,-5.6761,-5.6761,-5.6823,-5.6823,-5.6854,0.0,0.0,-5.7187,-5.7187,0.0,0.0,0.0,0.0,0.0,-5.8485,0.0,0.0,0.0,0.0,0.0,0.0,-6.046,-6.0149,-5.9493,-5.939,-5.8999,-5.8298,-5.814,-5.8038,-5.7881,-5.7881,-5.7881,-5.7881,-5.8051,-5.8051,-5.7915,-5.866,-5.9032,-5.9032,-5.9032,-5.9032,-5.8964,-5.822,-5.7881,-5.7881,-5.7881,-5.7881,-5.7881,-5.7881,-5.7881,0.0,0.0,0.0,0.0,0.0,0.0,0.0,-6.0047,-5.9877,-5.9674,-5.981,-5.9877,-5.9877,-5.9877,-5.9298,-5.8624,-5.8268,-5.748,-5.6524,-5.5191,-5.4945,-5.473,-5.4083,-5.436,-5.436,-5.316,-5.3375,-5.3683,-5.3529,-5.2946,-5.2886,-5.3743,-5.2854,-5.215,-5.2356,-5.1772,-5.1473,-5.1509,-5.1416,-5.1416,-5.1787,-5.1509,-5.1416,-5.1818,-5.1695,-5.1757,-5.2124,-5.2215,-5.2337,-5.2549,-5.2608,-5.2608,-5.2608,-5.2698,-5.3345,-5.4483,-5.3806,-5.4299,-5.5745,-5.6453,-5.6761,-5.6761,-5.6761,-5.6761,-5.6761,-5.6761,-5.6761,-5.6823,-5.7346,-5.7223,-5.6946,0.0,0.0,0.0,0.0,0.0,0.0,0.0,0.0,0.0,0.0,0.0,0.0,0.0,0.0,0.0,0.0,-5.9541,-5.9123,-5.871,-5.8545,-5.8341,-5.7881,-5.7881,-5.7881,-5.7881,-5.7881,-5.7881,-5.7881,-5.7881,-5.7881,-5.7915,-5.866,-5.9032,-5.9032,-5.937,-5.9336,-5.8998,-5.8592,-5.822,-5.7881,-5.7881,-5.7881,-5.7881,-5.7881,-5.7881,-5.7881,-5.7881,0.0,0.0,0.0,0.0,0.0,0.0,0.0,-6.0182,-6.0554,-6.0348,-6.008,-6.0579,-5.9562,-5.8355,-5.8201,-5.7683,-5.6884,-5.5499,-5.5191,-5.4822,-5.3498,-5.3529,-5.356,-5.2852,-5.3006,-5.3252,-5.3252,-5.2823,-5.2672,-5.3099,-5.2519,-5.2031,-5.2085,-5.172,-5.1479,-5.1572,-5.1479,-5.1509,-5.1787,-5.1695,-5.1695,-5.2002,-5.1972,-5.2033,-5.2306,-5.2397,-5.2608,-5.2698,-5.3037,-5.3191,-5.3191,-5.3529,-5.4206,-5.5191,-5.5191,-5.5376,-5.5745,-5.6453,-5.6761,-5.6761,-5.6761,-5.6761,-5.6761,-5.6761,-5.6977,-5.7285,-5.7654,-5.7746,-5.7869,0.0,0.0,0.0,0.0,0.0,0.0,0.0,0.0,0.0,0.0,0.0,0.0,0.0,0.0,-5.9055,0.0,0.0,0.0,-5.8157,-5.7949,-5.7881,-5.7881,-5.7881,-5.7881,-5.7881,-5.7881,-5.7881,-5.7881,-5.7881,-5.7949,-5.8118,-5.8727,-5.9032,-5.9032,-5.9641,-5.9573,-5.8998,-5.8863,-5.8457,-5.7881,-5.7881,-5.7881,-5.7881,-5.7881,-5.7881,-5.7915,-5.8017,-5.8558,-5.9302,-6.0047,0.0,0.0,0.0,0.0,-6.0622,-6.1298,-6.0805,-6.0289,-6.1043,-5.9867,-5.8248,-5.7917,-5.7869,-5.7562,-5.6053,-5.5684,-5.5161,-5.3283,-5.2883,-5.2852,-5.2729,-5.2821,-5.2852,-5.2729,-5.2518,-5.2306,-5.2185,-5.2094,-5.188,-5.1695,-5.1572,-5.1602,-5.1695,-5.1572,-5.1665,-5.1665,-5.188,-5.2002,-5.2094,-5.2215,-5.2306,-5.2397,-5.2608,-5.2698,-5.2698,-5.3375,-5.3714,-5.3745,-5.4514,-5.5161,-5.5715,-5.6423,-5.6453,-5.5899,-5.6515,-5.6761,-5.6761,-5.6761,-5.6761,-5.6761,-5.6761,-5.7192,-5.7777,-5.79,-5.8239,-5.8731,0.0,0.0,0.0,0.0,0.0,0.0,0.0,0.0,0.0,0.0,-5.8477,-5.8371,0.0,-5.8191,-5.809,-5.809,-5.7949,-5.7915,-5.7915,0.0,0.0,-5.7881,-5.7881,-5.7881,-5.7881,-5.7881,-5.7881,-5.7881,-5.7881,-5.8254,-5.8856,-5.8923,-5.9032,-5.9032,-5.9133,-5.9099,-5.8964,-5.8321,-5.7983,-5.7881,-5.7881,-5.7881,-5.7881,-5.7881,-5.7881,-5.7983,-5.8626,-5.9336,-6.008,-6.0858,-6.1569,0.0,0.0,0.0,-6.211,-6.2212,-6.1542,-6.0854,-6.1019,-6.0064,-5.8845,-5.804,-5.8208,-5.8116,-5.6146,-5.5684,-5.5284,-5.3868,-5.3591,-5.3406,-5.2821,-5.3191,-5.3406,-5.2821,-5.2698,-5.2608,-5.2608,-5.2276,-5.2002,-5.2002,-5.1509,-5.1416,-5.188,-5.1787,-5.1757,-5.2215,-5.2063,-5.2063,-5.2215,-5.2306,-5.2397,-5.2608,-5.2698,-5.2698,-5.2698,-5.3375,-5.3714,-5.3745,-5.4976,-5.5592,-5.5715,-5.6423,-5.67,-5.6638,-5.673,-5.6761,-5.6761,-5.6761,-5.6761,-5.6761,-5.6761,-5.7192,-5.7839,-5.8423,-5.8331,-5.8177,0.0,0.0,0.0,0.0,0.0,0.0,0.0,0.0,0.0,0.0,0.0,-5.8056,-5.8056,-5.7915,-5.7881,-5.7881,-5.7881,-5.7881,-5.7881,-5.7881,-5.7881,-5.7881,-5.7881,-5.7881,-5.7881,-5.7881,-5.7881,-5.7881,-5.7881,-5.8293,-5.897,-5.9017,-5.8976,-5.9032,-5.9032,-5.8795,-5.8389,-5.849,-5.8287,-5.7881,-5.7881,-5.7881,-5.7881,-5.7881,-5.7881,-5.7983,-5.8761,-5.9235,-5.9674,-6.0892,-6.1189,-6.106,-6.1494,0.0,0.0,0.0,-5.9899,-5.871,-5.8179,-5.836,-5.8562,-5.8443,-5.8547,-5.8454,-5.7161,-5.6854,-5.6361,-5.4637,-5.4576,-5.4637,-5.396,-5.3775,-5.3622,-5.3345,-5.2975,-5.2608,-5.2518,-5.2427,-5.2337,-5.2155,-5.1941,-5.1941,-5.2155,-5.1972,-5.1972,-5.2306,-5.2215,-5.2246,-5.2518,-5.2518,-5.2608,-5.2698,-5.2698,-5.2883,-5.3283,-5.396,-5.4668,-5.5438,-5.6023,-5.63,-5.63,-5.6607,-5.6761,-5.6761,-5.6761,-5.6761,-5.6761,-5.6761,-5.6761,-5.6761,-5.6761,-5.7408,-5.8362,-5.867,-5.907,-5.9593,0.0,0.0,0.0,0.0,0.0,0.0,0.0,0.0,0.0,0.0,0.0,-5.7881,-5.7881,0.0,0.0,0.0,-5.7881,-5.7881,-5.7881,-5.7881,-5.7881,-5.7881,-5.7881,-5.7881,-5.7881,-5.7881,-5.7881,-5.7881,-5.7881,-5.8293,-5.901,-5.9017,-5.9111,-5.9287,-5.9059,-5.8795,-5.8457,-5.866,-5.8524,-5.8152,-5.7983,-5.7881,-5.7881,-5.7881,-5.7881,-5.7983,-5.8761,-5.8984,-5.917,-6.0516,-6.0498,-5.996,-6.0487,-6.0108,0.0,0.0,0.0,-5.7207,-5.6215,-5.7026,-5.8185,-5.8468,-5.8793,-5.8762,-5.7746,-5.7654,-5.7254,-5.5376,-5.5345,-5.5592,-5.5315,-5.4668,-5.4114,-5.3775,-5.3437,-5.3008,-5.2458,-5.2641,-5.2763,-5.2551,-5.2337,-5.2276,-5.2551,-5.2246,-5.2155,-5.2397,-5.2397,-5.2518,-5.2698,-5.2698,-5.2698,-5.2698,-5.2883,-5.3221,-5.3714,-5.4545,-5.5592,-5.6761,-5.6761,-5.6761,-5.6761,-5.6946,-5.6915,-5.6761,-5.6761,-5.6761,-5.6761,-5.6761,-5.6761,-5.6792,-5.6946,-5.7746,-5.8793,-5.8978,-5.9686,-6.0578,0.0,0.0,0.0,0.0,0.0,0.0,0.0,0.0,0.0,0.0,0.0,-5.7881,-5.7881,-5.7881,-5.7881,-5.7881,-5.7881,-5.7881,-5.7881,-5.7881,-5.7881,-5.7881,-5.7881,0.0,-5.7881,-5.7881,-5.7881,-5.7881,-5.7881,-5.8281,-5.901,-5.897,-5.9404,-6.0013,-5.9321,-5.937,-5.9911,-5.8524,-5.8355,-5.8896,-5.8186,-5.7881,-5.7881,-5.7881,-5.7881,-5.7983,-5.8761,-5.8873,-5.8833,-5.9661,-5.9774,-5.9642,-5.9674,-5.9587,-5.9587,0.0,0.0,0.0,-5.6988,-5.729,-5.7845,-5.7808,-5.8793,-5.9224,-5.7254,-5.7315,-5.7377,-5.593,-5.5684,-5.5899,-5.6546,-5.6084,-5.5191,-5.3929,-5.4237,-5.4176,-5.2883,-5.307,-5.3254,-5.3254,-5.2551,-5.2306,-5.3193,-5.2673,-5.2397,-5.2608,-5.2698,-5.2698,-5.2698,-5.2698,-5.2698,-5.2698,-5.3345,-5.3683,-5.3714,-5.5007,-5.6023,-5.6761,-5.6761,-5.6761,-5.6792,-5.7438,-5.7377,-5.6761,-5.6761,-5.6761,-5.6761,-5.6761,-5.6761,-5.6823,-5.7469,-5.8146,-5.8854,-5.9501,-5.9778,-5.9932,0.0,0.0,0.0,0.0,0.0,0.0,0.0,0.0,0.0,0.0,0.0,0.0,0.0,-5.7881,-5.7881,-5.7881,-5.7881,-5.7881,-5.7881,-5.7881,-5.7881,-5.7881,-5.7881,-5.7881,-5.7881,-5.7881,-5.7881,-5.7881,-5.7881,-5.8327,-5.9004,-5.9004,-5.9363,-6.0054,-5.9827,-5.9607,-5.9315,-5.8869,-5.849,-5.8254,-5.8017,-5.7881,-5.7881,-5.7881,-5.7881,-5.7983,-5.8761,-5.8605,-5.827,-5.9496,-5.9056,-5.809,-5.8568,-5.8272,-5.7746,-5.7275,-5.7215,-5.7117,-5.6272,-5.6577,-5.7223,-5.7654,-5.8146,-5.83,-5.7562,-5.7592,-5.75,-5.6577,-5.6392,-5.6607,-5.7285,-5.6453,-5.553,-5.5068,-5.4853,-5.4699,-5.4637,-5.4728,-5.5036,-5.5497,-5.4481,-5.3836,-5.4144,-5.3162,-5.2793,-5.3314,-5.2944,-5.2914,-5.3345,-5.3775,-5.4022,-5.4022,-5.5099,-5.5684,-5.5684,-5.6577,-5.6946,-5.6761,-5.6761,-5.6761,-5.6761,-5.7008,-5.7008,-5.6792,-5.7223,-5.7408,-5.7377,-5.6946,-5.7285,-5.8023,-5.7839,-5.8454,-5.947,-5.9686,-6.0055,-6.0486,0.0,0.0,0.0,0.0,0.0,-5.7881,-5.7881,-5.7881,-5.7881,-5.7881,0.0,0.0,0.0,0.0,-5.7611,-5.7881,-5.7881,-5.7881,-5.7881,-5.7881,-5.7881,-5.7881,-5.7881,-5.7881,-5.7881,-5.7881,-5.7881,-5.7881,-5.7881,-5.8157,-5.8676,-5.8869,-5.9275,-5.9716,-6.0013,-5.981,-5.9315,-5.9146,-5.8733,-5.8254,-5.7983,-5.7881,-5.7915,-5.7857,-5.8032,-5.8281,-5.8385,-5.8204,-5.8051,-5.8703,-5.8069,-5.7119,-5.7621,-5.7306,-5.6669,-5.6176,-5.6392,-5.6669,-5.6176,-5.6392,-5.6915,-5.7592,-5.7592,-5.75,-5.7715,-5.7592,-5.7377,-5.7131,-5.71,-5.7377,-5.83,-5.75,-5.6669,-5.6423,-5.6238,-5.6084,-5.6053,-5.6238,-5.6577,-5.7038,-5.6115,-5.5499,-5.5715,-5.473,-5.4268,-5.4699,-5.433,-5.4268,-5.473,-5.5161,-5.553,-5.5745,-5.6423,-5.6977,-5.7438,-5.7438,-5.7315,-5.71,-5.6884,-5.6761,-5.6761,-5.7008,-5.71,-5.7131,-5.7808,-5.7839,-5.7438,-5.7438,-5.7839,-5.8423,-5.8454,-5.9008,-5.9809,-6.0055,-6.0424,-6.0794,0.0,0.0,-5.7881,-5.7881,-5.7881,-5.7881,-5.7881,-5.7881,-5.7881,-5.7881,0.0,0.0,0.0,0.0,0.0,-5.7814,-5.7881,-5.7881,-5.7881,-5.7881,-5.7881,-5.7881,-5.7881,-5.7881,-5.7881,-5.7881,-5.7881,-5.7881,-5.7881,-5.7881,-5.7915,-5.8642,-5.8953,-5.9021,-5.9763,-6.002,-5.9979,-5.9321,-5.8976,-5.8964,-5.822,-5.7949,-5.7944,-5.7786,-5.8241,-5.8875,-5.7773,-5.7753,-5.8249,-5.7344,-5.6871,-5.673,-5.6761,-5.6761,-5.6761,-5.6761,-5.6761,-5.6761,0.0,0.0,0.0,-5.7562,-5.7223,-5.6915,-5.7562,-5.7192,-5.6915,-5.7592,-5.7746,-5.8177,-5.9501,-5.9224,-5.8608,-5.7962,-5.8362,-5.8331,-5.7038,-5.7408,-5.7839,-5.7869,-5.7254,-5.7069,-5.7746,-5.7161,-5.6761,-5.6792,-5.6761,-5.6761,-5.6792,-5.6823,-5.7131,-5.7839,-5.7223,-5.75,-5.8793,-5.75,-5.7131,-5.7746,-5.71,-5.6761,-5.6792,-5.7438,-5.7746,-5.7808,-5.8485,-5.8023,-5.6915,-5.8239,-5.8423,-5.7993,-5.9285,-5.9809,-5.9901,-6.0547,-6.0794,-6.0794,0.0,-5.7881,-5.7881,-5.7881,-5.7881,-5.7881,-5.7881,-5.7881,-5.7881,0.0,0.0,0.0,-5.78,-5.7688,-5.7679,-5.7881,-5.7881,-5.7881,-5.7881,-5.7881,-5.7881,-5.7881,-5.7881,-5.7881,-5.7881,-5.7881,-5.7881,-5.7881,-5.7374,-5.7374,-5.7881,-5.7582,-5.7683,-5.8225,-5.8982,-5.901,-5.8524,-5.8869,-5.8964,-5.8998,-5.8795,-5.9032,-5.9505,-5.9405,-5.9549,-5.9659,-5.8701,-5.805,-5.7603,-5.7153,-5.6528,-5.6084,-5.6607,-5.6761,-5.6761,-5.6761,-5.6761,-5.6761,-5.6761,0.0,0.0,0.0,0.0,0.0,-5.6272,-5.618,-5.6176,-5.6884,-5.7438,-5.8023,-5.8916,-5.9316,-5.9624,-5.9901,-5.9285,-5.8824,-5.8947,-5.9101,-5.9408,-5.9901,-5.8947,-5.83,-5.8485,-5.7438,-5.6977,-5.7469,-5.7038,-5.6977,-5.7469,-5.7962,-5.8762,-5.9932,-5.9778,-5.9624,-5.9501,-5.8639,-5.8085,-5.7746,-5.71,-5.6761,-5.6761,-5.6946,-5.7315,-5.7808,-5.8485,-5.8577,-5.8239,-5.8639,-5.9255,-5.9963,-5.9839,-6.0086,-6.0547,-6.0732,-6.0794,-6.0794,-5.733,-5.7673,-5.7881,-5.7881,-5.7881,-5.7881,-5.7881,-5.7881,-5.7881,0.0,0.0,0.0,-5.7389,-5.7722,-5.778,-5.7476,-5.7442,-5.7306,-5.7002,-5.6968,-5.6968,-5.6968,-5.7273,-5.7442,-5.7442,-5.7712,-5.7746,-5.7442,-5.7306,-5.7306,-5.7442,-5.7306,-5.7476,-5.7915,-5.8366,-5.8332,-5.7915,-5.8355,-5.8558,-5.8592,-5.8896,-5.9268,-5.9633,-5.9934,-6.0013,-5.9968,-5.9317,-5.869,-5.8076,-5.7698,-5.6934,-5.6207,-5.6638,-5.6761,-5.6761,-5.6761,-5.6761,-5.6761,-5.6761,-5.6761,-5.6761,-5.6598,0.0,0.0,-5.6056,-5.5653,-5.5561,-5.6546,-5.7315,-5.8054,-5.9008,-5.9532,-6.0024,-6.0701,-6.0147,-5.987,-6.0547,-6.0393,-6.0455,-6.1132,-6.027,-5.9624,-5.9624,-5.8916,-5.8608,-5.9008,-5.867,-5.8608,-5.9008,-5.9408,-5.9993,-6.0763,-6.0517,-6.0178,-5.9778,-5.8854,-5.8177,-5.7777,-5.7377,-5.7038,-5.6792,-5.7346,-5.7808,-5.8239,-5.8916,-5.9378,-5.9624,-5.9624,-5.9932,-6.0363,-6.024,-6.0455,-6.0794,-6.0794,-6.0609,-6.0363,0.0,-5.7471,-5.7881,-5.7881,-5.7881,-5.7881,-5.7881,-5.7881,-5.7881,0.0,-5.733,-5.6892,-5.6731,-5.7408,-5.7577,-5.6867,-5.6799,-5.6528,-5.5886,-5.575,-5.575,-5.5818,-5.6461,-5.6833,-5.6934,-5.7543,-5.7543,-5.6799,-5.7374,-5.734,-5.6799,-5.7374,-5.7712,-5.7881,-5.7881,-5.7881,-5.7881,-5.7881,-5.7881,-5.7949,-5.8795,-5.9201,-5.9329,-5.9931,-6.0222,-6.0125,-5.974,-5.9473,-5.9126,-5.834,-5.7495,-5.6761,-5.6761,-5.6761,-5.6761,-5.6761,-5.6761,-5.6761,-5.6761,-5.6761,-5.6884,-5.7438,-5.6207,0.0,-5.6392,-5.5715,-5.5191,-5.6484,-5.7315,-5.8146,-5.9347,-5.9624,-5.987,-6.0486,-6.064,-6.0917,-6.1594,-6.1194,-6.1009,-6.1625,-6.1163,-6.0794,-6.0794,-6.0794,-6.0794,-6.0794,-6.0794,-6.0794,-6.0794,-6.0794,-6.0794,-6.0794,-6.0147,-5.9778,-5.9778,-5.8454,-5.7777,-5.7777,-5.7777,-5.7469,-5.6915,-5.8208,-5.8824,-5.8916,-5.9532,-6.0178,-6.0794,-6.0794,-6.0455,-5.9963,-6.0578,-6.0794,-6.0794,-6.0794,-6.0424,-5.9799,-5.7442,-5.7814,-5.7881,-5.7881,-5.7881,-5.7881,-5.7881,-5.7881,-5.7881,-5.7881,-5.778,-5.7273,-5.6055,-5.7103,-5.7577,-5.6867,-5.6799,-5.6731,-5.6596,-5.6055,-5.5987,-5.6562,-5.6731,-5.707,-5.7679,-5.7814,-5.7543,-5.6799,-5.6359,-5.6359,-5.6799,-5.6359,-5.6765,-5.7881,-5.7881,-5.7881,-5.7881,-5.7881,-5.7881,-5.8017,-5.9336,-6.0283,-6.096,-6.1649,-6.1908,-6.1669,-6.0161,-5.9596,-5.9248,-5.7621,-5.6954,-5.6761,-5.6761,-5.6761,-5.6761,-5.6761,-5.6761,-5.6761,-5.6761,-5.6761,-5.67,-5.6194,-5.577,0.0,-5.5827,-5.5743,-5.5745,-5.6577,-5.7315,-5.7839,-5.8116,-5.8608,-5.9008,-5.9162,-5.9624,-6.0209,-6.0886,-6.0886,-6.0855,-6.0978,-6.0886,-6.0794,-6.0794,-6.0794,-6.0794,-6.0794,-6.0794,-6.0794,-6.0794,-6.0794,-6.0794,-6.0794,-6.0147,-5.9778,-5.9778,-5.8454,-5.7777,-5.7777,-5.7777,-5.7715,-5.7592,-5.8423,-5.907,-5.9593,-5.9716,-6.0178,-6.0794,-6.0794,-6.0732,-6.0609,-6.0763,-6.0794,-6.0794,-6.0794,-6.0598,-6.0206,-5.6169,-5.7161,-5.7814,-5.7471,-5.764,-5.7881,-5.7881,-5.7881,-5.7881,-5.7881,-5.7543,-5.69,-5.5818,-5.6359,-5.6528,-5.575,-5.5683,-5.5547,-5.5175,-5.4803,-5.4769,-5.5141,-5.5513,-5.6055,-5.6799,-5.6799,-5.663,-5.6258,-5.5886,-5.5716,-5.5716,-5.6089,-5.6461,-5.6833,-5.7577,-5.7679,-5.7374,-5.7712,-5.7881,-5.8017,-5.9505,-6.0351,-6.0825,-6.1975,-6.211,-6.1595,-6.0652,-5.9707,-5.8792,-5.771,-5.7038,-5.6761,-5.6761,-5.6761,-5.6761,-5.6761,-5.6761,-5.6761,-5.6761,-5.6761,-5.6792,-5.6787,-5.6203,0.0,0.0,-5.5958,-5.5807,-5.6146,-5.6792,-5.7254,-5.7254,-5.7808,-5.827,-5.827,-5.8854,-5.9408,-5.9747,-6.0363,-6.0917,-6.1255,-6.1009,-6.0794,-6.0794,-6.0794,-6.0794,-6.0794,-6.0794,-6.0794,-6.0794,-6.0794,-6.0794,-6.0794,-6.0455,-6.0116,-5.9778,-5.8793,-5.8116,-5.7777,-5.7777,-5.7777,-5.7808,-5.8485,-5.9162,-5.9778,-5.9778,-6.0178,-6.0794,-6.0794,-6.0794,-6.0794,-6.069,-6.069,-6.0794,-6.0512,-5.9979,-5.9368,-5.4901,-5.6241,-5.7306,-5.6886,-5.7296,-5.778,-5.7881,-5.7881,-5.7814,-5.7717,-5.7175,-5.6498,-5.5581,-5.5615,-5.548,-5.4871,-5.4668,-5.4397,-5.3957,-5.3653,-5.3551,-5.3721,-5.4262,-5.4938,-5.5683,-5.5716,-5.5649,-5.5513,-5.5513,-5.5175,-5.4634,-5.5818,-5.6122,-5.5784,-5.7103,-5.734,-5.6867,-5.7577,-5.7881,-5.8017,-5.9505,-5.9937,-5.9818,-6.166,-6.177,-6.0788,-6.0754,-5.9499,-5.7934,-5.7669,-5.7223,-5.6761,-5.6761,-5.6761,-5.6761,-5.6761,-5.6761,-5.6761,-5.6761,-5.6854,-5.7069,-5.7469,-5.6823,-5.6207,0.0,0.0,0.0,-5.5899,-5.6361,-5.6761,-5.6761,-5.71,-5.7408,-5.7562,-5.8023,-5.8423,-5.8577,-5.9624,-6.0609,-6.1163,-6.0732,-6.0455,-6.0578,-6.0732,-6.0794,-6.0794,-6.0794,-6.0794,-6.0794,-6.0794,-6.0794,-6.0794,-6.0671,-6.027,-5.9593,-5.907,-5.8423,-5.7777,-5.8023,-5.8177,-5.8177,-5.8731,-5.9347,-5.9993,-5.9839,-6.0178,-6.0794,-6.0794,-6.0794,-6.0794,-6.0481,-6.0481,-6.069,-6.0197,-5.9331,-5.8461,-5.5453,-5.5784,-5.6166,-5.6723,-5.6886,-5.7195,-5.7814,-5.7881,-5.7683,-5.7012,-5.6836,-5.6258,-5.4871,-5.531,-5.5683,-5.5581,-5.4972,-5.4837,-5.5412,-5.4228,-5.3788,-5.4431,-5.4566,-5.4938,-5.5683,-5.5716,-5.5378,-5.4702,-5.4702,-5.4668,-5.46,-5.4769,-5.5141,-5.575,-5.6562,-5.6867,-5.6867,-5.7577,-5.7881,-5.8017,-5.9505,-5.9295,-5.8274,-6.1301,-6.1468,-6.0125,-5.9793,-5.8546,-5.6954,-5.695,-5.6823,-5.6761,-5.6761,-5.6761,-5.6761,-5.6761,-5.6761,-5.6761,-5.6761,-5.7192,-5.7531,-5.7008,-5.7223,-5.7408,-5.6884,0.0,-5.6638,-5.6638,0.0,-5.6761,-5.6761,0.0,0.0,-5.6761,-5.6946,-5.7192,-5.7808,-5.8547,-5.9039,-5.9131,-5.907,-5.9255,-5.9839,-6.0455,-6.0794,-6.0794,-6.0794,-6.0794,-6.0794,-6.0794,-6.0794,-6.0794,-6.0209,-5.9562,-5.8916,-5.8824,-5.8423,-5.7777,-5.8978,-5.9562,-5.9562,-5.9624,-6.0055,-6.064,-6.0055,-6.0178,-6.0794,-6.0794,-6.0794,-6.0794,-6.0481,-6.0377,-6.0377,-6.0092,-5.9425,-5.858,-5.4325,-5.5111,-5.5826,-5.6062,-5.6491,-5.7021,-5.7814,-5.7881,-5.7442,-5.6295,-5.6122,-5.5615,-5.4126,-5.4262,-5.4431,-5.4431,-5.416,-5.4093,-5.4397,-5.3856,-5.3653,-5.3957,-5.3957,-5.4296,-5.504,-5.4634,-5.4499,-5.46,-5.416,-5.3957,-5.3957,-5.4397,-5.4532,-5.4499,-5.6089,-5.6562,-5.6258,-5.7408,-5.7881,-5.7983,-5.9032,-5.8513,-5.7387,-6.055,-6.0684,-5.9183,-5.9152,-5.8149,-5.6934,-5.6934,-5.6869,-5.6761,-5.6761,-5.6761,-5.6761,-5.6761,-5.6761,-5.6761,-5.6761,-5.6977,-5.7223,-5.7315,-5.7254,-5.7223,-5.7315,-5.7038,-5.6761,-5.6761,0.0,0.0,0.0,0.0,0.0,0.0,-5.6761,-5.6854,-5.7131,-5.7069,-5.7438,-5.8639,-5.8793,-5.8885,-5.9162,-5.947,-5.9624,-5.9624,-5.9993,-6.0209,-6.0209,-6.0578,-6.0794,-6.0794,-6.0517,-6.024,-5.9963,-5.9162,-5.8824,-5.8947,-5.8331,-5.8639,-5.9747,-5.8978,-5.9408,-6.0763,-6.0086,-6.0178,-6.0794,-6.0586,-6.0586,-6.0481,-6.0061,-6.0061,-6.0272,-5.9773,-5.9138,-5.8655,-5.345,-5.433,-5.511,-5.511,-5.5579,-5.6197,-5.7195,-5.7167,-5.666,-5.5852,-5.5547,-5.4938,-5.3653,-5.3687,-5.389,-5.4093,-5.3923,-5.389,-5.4093,-5.3721,-5.3518,-5.3518,-5.3518,-5.3754,-5.4296,-5.3788,-5.3754,-5.4296,-5.3754,-5.3518,-5.3518,-5.4059,-5.4025,-5.3585,-5.5615,-5.6224,-5.5818,-5.7273,-5.7881,-5.7949,-5.8693,-5.8287,-5.7496,-5.952,-5.9655,-5.8687,-5.8411,-5.7656,-5.673,-5.6458,-5.628,-5.6207,-5.6207,-5.6207,-5.6238,-5.6423,-5.6484,-5.6515,-5.67,-5.6884,-5.7131,-5.7408,-5.7254,-5.7131,-5.7438,-5.7254,-5.7038,-5.7038,-5.7038,0.0,0.0,0.0,-5.6761,-5.6761,0.0,-5.6761,-5.6761,-5.6146,-5.633,-5.8023,-5.8393,-5.8423,-5.8239,-5.8547,-5.8793,-5.8793,-5.9224,-5.9593,-5.9778,-6.024,-6.0517,-6.0517,-6.0517,-6.0424,-6.024,-5.9285,-5.9131,-5.9778,-5.8116,-5.827,-6.0024,-5.867,-5.907,-6.0763,-6.0086,-6.0178,-6.0794,-6.0481,-6.0377,-6.0377,-5.9743,-5.9743,-6.0061,-5.9315,-5.8817,-5.858,-5.3247,-5.3416,-5.3551,-5.3551,-5.3569,-5.4077,-5.5548,-5.5123,-5.4965,-5.5579,-5.5074,-5.4329,-5.3585,-5.4126,-5.4837,-5.5581,-5.4972,-5.4871,-5.5581,-5.4296,-5.3518,-5.3518,-5.3518,-5.3518,-5.3551,-5.3518,-5.3518,-5.3551,-5.3518,-5.3518,-5.3518,-5.3518,-5.3518,-5.3585,-5.5074,-5.575,-5.5818,-5.7273,-5.7881,-5.7949,-5.8693,-5.8998,-5.8815,-5.813,-5.8171,-5.8573,-5.772,-5.6819,-5.5915,-5.5101,-5.476,-5.4791,-5.4791,-5.4791,-5.4914,-5.553,-5.5745,-5.5869,-5.6577,-5.7254,-5.7592,-5.6946,-5.7254,-5.7562,-5.6946,-5.7285,-5.7746,-5.7746,-5.7746,-5.7746,-5.7746,-5.7192,-5.6761,-5.6761,-5.6761,0.0,0.0,-5.6146,-5.5961,-5.673,-5.7408,-5.7562,-5.6884,-5.8023,-5.8793,-5.8793,-5.8793,-5.9101,-5.9747,-5.9809,-5.9809,-5.9809,-5.9809,-5.9501,-5.8854,-5.8793,-5.9131,-5.9778,-5.907,-5.9439,-6.0732,-5.9378,-5.9501,-6.0763,-6.0086,-6.0178,-6.0794,-6.0481,-6.0377,-6.0377,-5.9743,-5.9529,-5.9529,-5.9207,-5.868,-5.8231,-5.3788,-5.3202,-5.2713,-5.3241,-5.2975,-5.3375,-5.5372,-5.5043,-5.4867,-5.5587,-5.5483,-5.504,-5.4296,-5.4905,-5.5446,-5.5683,-5.548,-5.5446,-5.5683,-5.5243,-5.4972,-5.4972,-5.4972,-5.4735,-5.4228,-5.4228,-5.3991,-5.3518,-5.3518,-5.3754,-5.4228,-5.3721,-5.3754,-5.4262,-5.5277,-5.5716,-5.5818,-5.7273,-5.7881,-5.7915,-5.8152,-5.8863,-5.9599,-5.8867,-5.8379,-5.8068,-5.7153,-5.6564,-5.6061,-5.5222,-5.4849,-5.473,-5.473,-5.473,-5.476,-5.4976,-5.5345,-5.5745,-5.5992,-5.6577,-5.7038,-5.6823,-5.6946,-5.7038,-5.6823,-5.7285,-5.7777,-5.7777,-5.8116,-5.8423,-5.8423,-5.8239,-5.7962,-5.75,-5.7438,-5.71,0.0,-5.5838,-5.5468,-5.4822,-5.6146,-5.7008,-5.6792,-5.6761,-5.673,-5.673,-5.7161,-5.7562,-5.7777,-5.8639,-5.9316,-5.9778,-5.9347,-5.9224,-5.9439,-5.8547,-5.8454,-5.9101,-5.8423,-5.8577,-5.947,-5.9439,-5.9686,-6.0147,-6.0363,-6.0578,-6.0794,-6.0302,-6.0092,-6.0092,-5.9422,-5.9207,-5.9207,-5.9099,-5.8979,-5.88,-5.3376,-5.2626,-5.2115,-5.2404,-5.1673,-5.1919,-5.4161,-5.3856,-5.385,-5.5111,-5.5349,-5.5141,-5.4634,-5.548,-5.6089,-5.6089,-5.6089,-5.5987,-5.575,-5.5716,-5.5581,-5.5344,-5.531,-5.5108,-5.46,-5.46,-5.4228,-5.3518,-5.3754,-5.3991,-5.4194,-5.3721,-5.3754,-5.4262,-5.5277,-5.5716,-5.5818,-5.7273,-5.7881,-5.7881,-5.7881,-5.8457,-5.9268,-5.8795,-5.8626,-5.8518,-5.712,-5.6329,-5.5827,-5.4899,-5.4371,-5.4022,-5.4022,-5.4022,-5.4114,-5.4576,-5.5037,-5.5468,-5.593,-5.6423,-5.6761,-5.6761,-5.6761,-5.6761,-5.6761,-5.7285,-5.7777,-5.7777,-5.83,-5.8639,-5.8146,-5.8454,-5.8393,-5.7223,-5.7438,-5.7223,0.0,-5.5345,-5.5037,-5.4176,-5.5684,-5.6577,-5.6084,-5.5838,-5.5592,-5.5376,-5.5776,-5.6238,-5.673,-5.7592,-5.8362,-5.9039,-5.8639,-5.8639,-5.907,-5.7962,-5.7993,-5.9131,-5.8208,-5.8239,-5.9162,-5.9593,-5.9778,-5.9839,-6.0517,-6.0794,-6.0794,-6.0197,-6.0016,-5.991,-5.9345,-5.9099,-5.9099,-5.9099,-5.9099,-5.9099,-5.2123,-5.1881,-5.1679,-5.1045,-4.9971,-4.9835,-5.2001,-5.1794,-5.2124,-5.4364,-5.4703,-5.4702,-5.4702,-5.5987,-5.6867,-5.6867,-5.6867,-5.6562,-5.5852,-5.5818,-5.5513,-5.4769,-5.4735,-5.4735,-5.4735,-5.4668,-5.4329,-5.3653,-5.4262,-5.4228,-5.3619,-5.3585,-5.3551,-5.3619,-5.5108,-5.575,-5.5818,-5.7273,-5.7881,-5.7881,-5.7881,-5.7915,-5.7983,-5.7915,-5.8795,-5.9802,-5.7453,-5.6034,-5.5198,-5.4317,-5.3434,-5.2788,-5.2698,-5.2698,-5.2975,-5.4299,-5.4668,-5.4976,-5.633,-5.67,-5.673,-5.6761,-5.6761,-5.6761,-5.6761,-5.7285,-5.7777,-5.7777,-5.83,-5.8393,-5.71,-5.79,-5.8116,-5.6084,-5.6858,-5.6981,-5.4945,-5.4761,-5.4792,-5.473,-5.5964,-5.6272,-5.4914,-5.5284,-5.5345,-5.473,-5.4699,-5.5284,-5.6577,-5.673,-5.7069,-5.7746,-5.7777,-5.7777,-5.7777,-5.7161,-5.7808,-5.9686,-5.8454,-5.8516,-5.9747,-5.9809,-5.9809,-5.9839,-6.0517,-6.0794,-6.069,-6.0197,-6.0016,-5.991,-5.9315,-5.9099,-5.9099,-5.9099,-5.9099,-5.9099,-5.3189,-5.2036,-5.0843,-5.0275,-5.0815,-5.1532,-5.2202,-5.3142,-5.4119,-5.5246,-5.5854,-5.6224,-5.6224,-5.707,-5.7611,-5.7611,-5.7611,-5.7543,-5.734,-5.734,-5.7239,-5.7036,-5.7036,-5.7036,-5.7036,-5.5987,-5.5615,-5.5953,-5.4499,-5.4262,-5.5141,-5.4566,-5.4329,-5.4363,-5.5852,-5.6224,-5.5818,-5.7273,-5.7881,-5.7881,-5.7881,-5.8558,-5.9404,-5.8321,-5.8795,-5.9802,-5.7453,-5.6459,-5.6034,-5.4485,-5.3836,-5.3577,-5.2877,-5.2698,-5.2883,-5.3745,-5.3991,-5.4268,-5.5592,-5.5961,-5.6084,-5.6638,-5.6761,-5.6761,-5.6761,-5.7285,-5.7777,-5.7777,-5.83,-5.867,-5.8331,-5.8547,-5.827,-5.673,-5.6124,-5.5579,-5.5045,-5.5447,-5.5581,-5.473,-5.5625,-5.5967,-5.5501,-5.4699,-5.4145,-5.3991,-5.4453,-5.4884,-5.5222,-5.6207,-5.7069,-5.7746,-5.7777,-5.7777,-5.7777,-5.8085,-5.827,-5.83,-5.8947,-5.9193,-5.907,-6.0086,-6.027,-5.9839,-6.0517,-6.069,-6.0481,-6.0092,-5.988,-5.9636,-5.9207,-5.9099,-5.9099,-5.9099,-5.9099,-5.9099,-5.278,-5.17,-5.0593,-5.0277,-5.1847,-5.2775,-5.1964,-5.2805,-5.3853,-5.4635,-5.5956,-5.6697,-5.6359,-5.7543,-5.8254,-5.7915,-5.7881,-5.7746,-5.7442,-5.7712,-5.7746,-5.7442,-5.7408,-5.7408,-5.7408,-5.6292,-5.575,-5.5852,-5.46,-5.4228,-5.4735,-5.4296,-5.4126,-5.4194,-5.5683,-5.6089,-5.5818,-5.7273,-5.7712,-5.7442,-5.7746,-5.8389,0.0,-5.822,-5.8423,-5.8957,-5.7633,-5.692,-5.6459,-5.5474,-5.4653,-5.3891,-5.3434,-5.3024,-5.2852,-5.3529,-5.3714,-5.396,-5.5007,-5.5253,-5.5438,-5.6115,-5.63,-5.6361,-5.67,-5.7069,-5.7315,-5.7315,-5.7869,-5.8146,-5.7531,-5.7931,-5.7993,-5.6946,-5.6309,-5.5936,-5.5936,-5.6435,-5.6755,-5.6473,-5.6518,-5.6758,-5.6951,-5.5336,-5.434,-5.4348,-5.4781,-5.5019,-5.5283,-5.603,-5.6745,-5.7285,-5.7315,-5.7469,-5.7777,-5.7869,-5.8146,-5.867,-5.9131,-5.9316,-5.9255,-6.0301,-6.0424,-5.9839,-6.0517,-6.069,-6.0377,-6.0092,-5.9773,-5.9529,-5.9207,-5.9099,-5.9099,-5.9099,-5.9099,-5.9099,-5.1808,-5.1174,-5.0695,-5.0669,-5.2539,-5.3418,-5.164,-5.2296,-5.3213,-5.3754,-5.5547,-5.6562,-5.5919,-5.7577,-5.849,-5.7949,-5.7881,-5.7611,-5.7002,-5.7543,-5.7611,-5.6968,-5.6934,-5.6934,-5.6934,-5.6156,-5.5446,-5.4871,-5.46,-5.416,-5.3653,-5.3653,-5.3585,-5.3551,-5.504,-5.5716,-5.5818,-5.7171,-5.7374,-5.6867,-5.7577,-5.7881,-5.7881,-5.7881,-5.7881,-5.7881,-5.7881,-5.7406,-5.6768,-5.6614,-5.5636,-5.4317,-5.4232,-5.3664,-5.3179,-5.368,-5.3835,-5.3927,-5.4514,-5.4668,-5.476,-5.5407,-5.5622,-5.5869,-5.6484,-5.67,-5.6761,-5.6761,-5.7223,-5.7285,-5.6053,-5.6761,-5.7382,-5.7084,-5.6994,-5.6979,-5.7127,-5.729,-5.7709,-5.8367,-5.7871,0.0,-5.8495,-5.6563,-5.5283,-5.5392,-5.5442,-5.5609,-5.5999,-5.6036,-5.6367,-5.6827,-5.6946,-5.7254,-5.7777,-5.7438,-5.8146,-5.9778,-5.9285,-5.9347,-5.9932,-6.0517,-6.0486,-5.9963,-6.0547,-6.0586,-6.0272,-6.0092,-5.9773,-5.9422,-5.9207,-5.9099,-5.9099,-5.9099,-5.9099,-5.9099,-5.2371,-5.1473,-5.0695,-5.0669,-5.1761,-5.2533,-5.2125,-5.4807,-5.6491,-5.548,-5.619,-5.6765,-5.663,-5.6968,-5.7374,-5.7848,-5.7881,-5.7848,-5.7712,-5.7814,-5.7814,-5.7712,-5.7712,-5.7712,-5.7712,-5.6393,-5.5953,-5.6427,-5.46,-5.3923,-5.4397,-5.4397,-5.4093,-5.3551,-5.504,-5.5716,-5.5784,-5.663,-5.6934,-5.6867,-5.7577,-5.7881,-5.7881,-5.7881,-5.7881,-5.7881,-5.7881,-5.7808,-5.7554,-5.6844,-5.6381,-5.6034,-5.5312,-5.4985,-5.4864,-5.483,-5.4379,-5.4047,-5.4545,-5.433,-5.4052,-5.473,-5.5284,-5.5715,-5.5838,-5.633,-5.6761,-5.6761,-5.6854,-5.6854,-5.6607,-5.63,-5.656,-5.7892,-5.702,-5.6486,-5.7238,-5.7312,-5.7335,-5.737,-5.7409,-5.7786,-5.8609,-5.7167,-5.6201,-5.6154,-5.6154,-5.6123,-5.5999,-5.651,-5.6869,-5.6827,-5.7839,-5.8208,-5.7777,-5.9316,-5.9993,-5.9809,-6.024,-6.0517,-6.064,-6.0763,-6.0732,-6.064,-6.0524,-6.0302,-5.9986,-5.9743,-5.9422,-5.9207,-5.9099,-5.9099,-5.9099,-5.9099,-5.9099,-5.9099,-5.248,-5.1772,-5.1428,-5.2253,-5.2921,-5.372,-5.4939,-5.6673,-5.7374,-5.5919,-5.6697,-5.7374,-5.7374,-5.7374,-5.7679,-5.8423,-5.778,-5.7476,-5.7848,-5.7881,-5.7881,-5.7881,-5.7881,-5.7712,-5.734,-5.6258,-5.5886,-5.6258,-5.4769,-5.4262,-5.46,-5.46,-5.4194,-5.3551,-5.4634,-5.5141,-5.5209,-5.6325,-5.6596,-5.6325,-5.7442,-5.7881,-5.7881,-5.7881,-5.7881,-5.7881,-5.7881,-5.7881,-5.7808,-5.7406,-5.6996,-5.6536,-5.6113,-5.5636,-5.5295,-5.5204,-5.4909,-5.4613,-5.4392,-5.4095,-5.3912,-5.4114,-5.4422,-5.4853,-5.553,-5.5961,-5.63,-5.6669,-5.6761,-5.6761,-5.6761,-5.6931,-5.7121,-5.7459,-5.7719,-5.7852,-5.7852,-5.8637,-5.9193,-5.9091,-5.93,-5.9605,-6.0035,-5.8685,-5.7586,-5.7221,-5.7475,-5.7248,-5.6189,-5.7291,-5.7388,-5.6272,-5.853,-5.9347,-5.83,-5.9824,-6.0508,-6.0301,-5.9932,-6.0116,-6.0794,-6.0424,-6.0455,-6.0794,-6.0481,-6.0302,-6.0016,-5.9422,-5.9207,-5.9099,-5.9099,-5.9099,-5.9099,-5.9099,-5.9099,-5.9099,-5.2744,-5.2253,-5.2318,-5.3773,-5.4417,-5.5352,-5.7167,-5.784,-5.7624,-5.6299,-5.7006,-5.7645,-5.7645,-5.7645,-5.7949,-5.8693,-5.7712,-5.7273,-5.7848,-5.7881,-5.7881,-5.7881,-5.7881,-5.7476,-5.6596,-5.6021,-5.5649,-5.548,-5.4871,-5.4668,-5.4837,-5.4668,-5.4194,-5.3518,-5.4093,-5.4431,-5.4668,-5.6021,-5.6325,-5.6055,-5.7374,-5.7881,-5.7881,-5.7881,-5.7881,-5.7881,-5.7881,-5.7881,-5.7881,-5.7881,-5.7406,-5.6844,-5.6691,-5.6113,-5.5474,-5.5117,-5.5035,-5.4819,-5.4008,-5.375,-5.3734,-5.3526,-5.3622,-5.3991,-5.5037,-5.5499,-5.5838,-5.6423,-5.6831,-5.705,-5.6858,-5.759,-5.8026,-5.7464,-5.8455,-5.9145,-5.8818,-5.9881,-6.0754,-6.0788,-6.0893,-6.093,-6.0858,-5.9877,-5.8863,-5.7949,-5.8457,-5.8117,-5.6678,-5.7935,-5.7962,-5.6372,-5.9324,-6.032,-5.9129,-6.0164,-6.0756,-6.0794,-5.9716,-5.9778,-6.0794,-6.024,-6.0301,-6.0794,-6.0481,-6.0092,-5.9773,-5.9315,-5.9099,-5.9099,-5.9392,-5.9392,-5.9499,-5.9713,-5.9789,-5.9789,-5.3453,-5.3116,-5.2965,-5.3871,-5.5277,-5.6369,-5.6564,-5.7886,-5.8531,-5.7738,-5.7189,-5.69,-5.69,-5.69,-5.7205,-5.7915,-5.7881,-5.7814,-5.7881,-5.7881,-5.7881,-5.7881,-5.7881,-5.7239,-5.5852,-5.575,-5.5378,-5.4702,-5.4634,-5.4938,-5.5581,-5.4905,-5.4194,-5.3518,-5.3585,-5.3957,-5.4634,-5.548,-5.6156,-5.6765,-5.7577,-5.7881,-5.7881,-5.7881,-5.7881,-5.7881,-5.7881,-5.7881,-5.7881,-5.7881,-5.7881,-5.7662,-5.6844,-5.6536,-5.6192,-5.4569,-5.4147,-5.3891,-5.3024,-5.2788,-5.2819,-5.279,-5.3283,-5.3745,-5.3868,-5.4822,-5.5715,-5.5776,-5.7027,-5.784,-5.6954,-5.759,-5.8455,-5.9234,-5.8728,-5.8908,-6.0482,-6.0108,-5.9793,-6.001,-6.0074,-5.9831,-5.9295,-5.9708,-5.9404,-5.7983,-5.7949,-5.7883,-5.7483,-5.829,-5.8495,-5.8162,-6.0405,-6.1078,-6.0042,-6.14,-6.1728,-6.0794,-6.0671,-6.0671,-6.0794,-6.0732,-6.0732,-6.0794,-6.0302,-5.9667,-5.9207,-5.9099,-5.9099,-5.9207,-6.0211,-6.0598,-6.0701,-6.1659,-6.1959,-6.1959,-5.4386,-5.4243,-5.4458,-5.5692,-5.6525,-5.7512,-5.8872,-5.8955,-5.8907,-5.9095,-5.8152,-5.7645,-5.8084,-5.734,-5.7273,-5.8457,-5.7746,-5.7408,-5.7848,-5.7881,-5.7881,-5.7881,-5.7476,-5.6765,-5.575,-5.5277,-5.4905,-5.46,-5.504,-5.5412,-5.5716,-5.5852,-5.5277,-5.4126,-5.3687,-5.3653,-5.4025,-5.5209,-5.5886,-5.6258,-5.7408,-5.7881,-5.7881,-5.7881,-5.7881,-5.7881,-5.7881,-5.7881,-5.7881,-5.7881,-5.7881,-5.7808,-5.748,-5.6996,-5.6459,-5.5796,-5.5555,-5.5231,-5.3836,-5.3836,-5.4008,-5.2966,-5.333,-5.3877,-5.3713,-5.4851,-5.5812,-5.5686,-5.6619,-5.7211,-5.6858,-5.759,-5.8303,-5.8728,-5.8908,-5.9355,-6.0022,-6.0312,-6.0304,-5.9911,-6.0011,-5.9766,-5.9025,-5.8863,-5.8524,-5.7915,-5.8321,-5.8085,-5.7044,-5.8641,-5.898,-5.7806,-6.1066,-6.2048,-6.044,-6.2469,-6.2618,-6.1027,-6.1027,-6.0975,-6.0794,-6.0363,-6.0218,-6.0302,-5.988,-5.9422,-5.9099,-5.9789,-6.0106,-6.0211,-6.1286,-6.169,-6.169,-6.2157,-6.2256,-6.2256,-5.5147,-5.518,-5.5743,-5.7273,-5.7798,-5.8688,-6.0522,-6.0093,-5.9609,-5.9966,-5.8944,-5.8341,-5.8626,-5.7746,-5.7543,-5.8592,-5.7543,-5.7036,-5.7543,-5.7577,-5.7476,-5.7273,-5.6968,-5.6359,-5.5412,-5.4871,-5.46,-5.46,-5.5108,-5.5615,-5.6055,-5.6325,-5.5683,-5.4262,-5.3721,-5.3619,-5.3923,-5.5175,-5.5852,-5.6156,-5.7374,-5.7881,-5.7881,-5.7881,-5.7881,-5.7881,-5.7881,-5.7881,-5.7881,-5.7881,-5.7881,-5.7881,-5.7554,-5.7105,-5.6536,-5.627,-5.6192,-5.5955,-5.4736,-5.4653,-5.4653,-5.3346,-5.3346,-5.3559,-5.3495,-5.4445,-5.5434,-5.5688,-5.6528,-5.7309,-5.718,-5.818,-5.8998,-5.8998,-5.9587,-6.0108,-6.0365,-6.0986,-6.1065,-6.0098,-6.0001,-5.9742,-5.8795,-5.8186,-5.7881,-5.7881,-5.8389,-5.8201,-5.703,-5.8968,-5.951,-5.8248,-6.1609,-6.2698,-6.101,-6.3155,-6.3309,-6.1631,-6.1563,-6.1482,-6.1246,-6.0404,-5.9949,-5.988,-5.9636,-5.9499,-5.9606,-6.039,-6.0877,-6.1286,-6.2386,-6.2778,-6.2778,-6.3068,-6.326,-6.326,-5.583,-5.5988,-5.6494,-5.8099,-5.9039,-5.9835,-6.0701,-6.0927,-6.0711,-6.0093,-5.938,-5.8633,-5.7954,-5.7881,-5.7881,-5.7915,-5.7239,-5.6799,-5.6799,-5.6799,-5.6494,-5.5784,-5.6427,-5.6122,-5.4634,-5.46,-5.46,-5.46,-5.46,-5.5344,-5.6765,-5.6055,-5.4938,-5.3518,-5.3518,-5.389,-5.4634,-5.5378,-5.6122,-5.6867,-5.7577,-5.7881,-5.7881,-5.7881,-5.7881,-5.7881,-5.7881,-5.7881,-5.7881,-5.7881,-5.7881,-5.7735,-5.6844,-5.6614,-5.6459,-5.5555,-5.5312,-5.5312,-5.5312,-5.4653,-5.3976,-5.3976,-5.3346,-5.2729,-5.2729,-5.3252,-5.4114,-5.5407,-5.7164,-5.8452,-5.8237,-5.9674,-6.0986,-6.0986,-6.0986,-6.135,-6.2223,-6.2381,-6.1806,-6.0283,-6.0114,-5.9505,-5.8051,-5.7881,-5.7881,-5.7881,-5.7915,-5.7881,-5.7881,-5.9302,-6.008,-6.0114,-6.2313,-6.2978,-6.1995,-6.3417,-6.3669,-6.2668,-6.2427,-6.2319,-6.2221,-6.0939,-6.0061,-5.9529,-5.9529,-5.9895,-6.0701,-6.0701,-6.1286,-6.2386,-6.3483,-6.3894,-6.3988,-6.5033,-6.5303,-6.5303,-5.6776,-5.7232,-5.7774,-5.8296,-5.949,-6.0286,-6.005,-6.0136,-5.9929,-5.9257,-5.855,-5.8015,-5.7887,-5.7881,-5.7476,-5.6494,-5.6664,-5.6596,-5.6089,-5.6055,-5.5953,-5.5716,-5.5446,-5.5074,-5.46,-5.4093,-5.3856,-5.3856,-5.4329,-5.5108,-5.6055,-5.531,-5.4702,-5.4228,-5.3721,-5.3619,-5.3923,-5.5175,-5.5852,-5.6156,-5.7408,-5.7881,-5.7881,-5.7881,-5.7881,-5.7881,-5.7881,-5.7881,-5.7881,-5.7881,-5.7881,-5.7881,-5.7554,-5.7105,-5.6459,-5.5555,-5.5312,-5.5067,-5.3836,-5.375,-5.3836,-5.3258,-5.375,-5.4179,-5.2935,-5.373,-5.504,-5.6455,-5.7698,-5.8432,-5.8341,-5.9231,-6.0312,-6.0903,-6.0986,-6.135,-6.2302,-6.2381,-6.2009,-6.1028,-6.0926,-6.052,-5.9505,-5.8964,-5.866,-5.866,-5.866,-5.866,-5.866,-5.9573,-6.0351,-6.0892,-6.211,-6.256,-6.2287,-6.3766,-6.3933,-6.2946,-6.389,-6.3514,-6.199,-6.2022,-6.1418,-6.0598,-6.1184,-6.1589,-6.1891,-6.2583,-6.31,-6.3483,-6.4545,-6.4943,-6.4943,-6.5303,-6.5425,-6.5425,-5.7152,-5.7623,-5.8115,-5.8746,-5.9687,-6.0375,-6.0484,-6.0555,-6.0389,-5.9699,-5.873,-5.7907,-5.7498,-5.7179,-5.6799,-5.619,-5.6021,-5.5784,-5.531,-5.531,-5.5175,-5.4905,-5.4702,-5.4465,-5.4194,-5.3754,-5.3518,-5.3518,-5.4228,-5.4702,-5.4871,-5.4702,-5.4431,-5.416,-5.3721,-5.3518,-5.3585,-5.4769,-5.531,-5.5412,-5.69,-5.7476,-5.7509,-5.778,-5.7881,-5.7881,-5.7881,-5.7881,-5.7881,-5.7881,-5.7881,-5.7881,-5.7881,-5.7554,-5.6996,-5.6426,-5.627,-5.6034,-5.4985,-5.4819,-5.4819,-5.4348,-5.4736,-5.4985,-5.3922,-5.441,-5.5485,-5.6699,-5.7521,-5.8344,-5.8899,-5.9676,-6.0522,-6.1399,-6.1513,-6.1609,-6.193,-6.1975,-6.1704,-6.0926,-6.0858,-6.0655,-6.0148,-5.9674,-5.9438,-5.9438,-5.9438,-5.9573,-5.9877,-6.0317,-6.0791,-6.1298,-6.2009,-6.2381,-6.2381,-6.3869,-6.4252,-6.3548,-6.4542,-6.3984,-6.2189,-6.2583,-6.2288,-6.1589,-6.209,-6.2583,-6.2972,-6.3578,-6.4081,-6.4577,-6.5123,-6.5425,-6.5425,-6.5425,-6.5425,-6.5459,-5.6971,-5.7188,-5.7768,-5.9253,-5.9615,-6.0158,-6.1571,-6.1824,-6.1604,-6.0925,-5.9618,-5.8234,-5.7006,-5.6133,-5.599,-5.6664,-5.5412,-5.4566,-5.4532,-5.4499,-5.4228,-5.3551,-5.416,-5.4194,-5.3518,-5.3518,-5.3518,-5.3518,-5.4194,-5.416,-5.3518,-5.4194,-5.416,-5.3518,-5.3518,-5.3518,-5.3551,-5.4296,-5.46,-5.4702,-5.6156,-5.6765,-5.6867,-5.7543,-5.7848,-5.7881,-5.7881,-5.7881,-5.7881,-5.7881,-5.7881,-5.7881,-5.7881,-5.7881,-5.7881,-5.7808,-5.7808,-5.7808,-5.7735,-5.7181,-5.6536,-5.6536,-5.5876,-5.5312,-5.5474,-5.5474,-5.5556,-5.6237,-5.7164,-5.8217,-5.9676,-6.065,-6.1535,-6.2279,-6.2347,-6.2076,-6.14,-6.1264,-6.096,-6.0283,-6.0182,-6.0216,-6.025,-6.0216,-6.0182,-6.0182,-6.0182,-6.052,-6.1264,-6.1366,-6.1366,-6.1366,-6.2042,-6.2381,-6.2381,-6.3869,-6.4518,-6.4404,-6.4641,-6.4049,-6.2778,-6.2875,-6.268,-6.2355,-6.2453,-6.3068,-6.3988,-6.3988,-6.4577,-6.5425,-6.5425,-6.5425,-6.5425,-6.5425,-6.5425,-6.5525,-5.6247,-5.7261,-5.8239,-5.8637,-5.9724,-6.0231,-5.9398,-5.976,-5.9944,-5.9259,-5.8316,-5.7892,-5.8319,-5.6641,-5.562,-5.5919,-5.5141,-5.4363,-5.3788,-5.3754,-5.3687,-5.3518,-5.3687,-5.3687,-5.3518,-5.3518,-5.3518,-5.3518,-5.3687,-5.3687,-5.3518,-5.3687,-5.3687,-5.3518,-5.3518,-5.3518,-5.3551,-5.4296,-5.46,-5.4668,-5.5581,-5.6325,-5.6833,-5.7002,-5.7408,-5.7881,-5.7881,-5.7881,-5.7881,-5.7881,-5.7881,-5.7881,-5.7881,-5.7881,-5.7808,-5.7105,-5.692,-5.6768,-5.6113,-5.5796,-5.5636,-5.5636,-5.5474,-5.5636,-5.6996,-5.6768,-5.6492,-5.7381,-5.8111,-5.8968,-5.9876,-6.0705,-6.1535,-6.2279,-6.1907,-6.1501,-6.1332,-6.0757,-6.0554,-6.096,-6.1028,-6.1231,-6.1806,-6.1332,-6.1028,-6.1028,-6.1028,-6.1095,-6.1298,-6.1839,-6.2144,-6.2144,-6.2313,-6.2302,-6.2076,-6.3627,-6.4858,-6.5679,-6.558,-6.491,-6.3829,-6.4512,-6.436,-6.3578,-6.436,-6.4819,-6.5033,-6.5033,-6.5213,-6.5425,-6.5425,-6.5425,-6.5425,-6.5425,-6.5425,-6.5425,-5.5848,-5.6681,-5.7514,-5.8275,-5.9108,-5.9542,-5.9035,-5.9325,-5.9473,-5.9114,-5.8121,-5.7632,-5.8211,-5.6578,-5.5375,-5.5142,-5.45,-5.3923,-5.3518,-5.3518,-5.3518,-5.3518,-5.3518,-5.3518,-5.3518,-5.3518,-5.3518,-5.3518,-5.3518,-5.3518,-5.3518,-5.3518,-5.3518,-5.3518,-5.3518,-5.3518,-5.3518,-5.3923,-5.4093,-5.4194,-5.5277,-5.5953,-5.6393,-5.7036,-5.7543,-5.7881,-5.7881,-5.7881,-5.7881,-5.7881,-5.7881,-5.7881,-5.7881,-5.7881,-5.7808,-5.7331,-5.7181,-5.7072,-5.6614,-5.6503,-5.6503,-5.6503,-5.6503,-5.6768,-5.7701,-5.7554,-5.7331,-5.7808,-5.822,-5.8727,-5.9471,-5.9945,-6.0486,-6.1231,-6.0994,-6.0622,-6.0317,-5.9877,-5.9877,-6.0655,-6.0757,-6.1197,-6.2279,-6.2042,-6.1806,-6.1806,-6.1694,-6.1616,-6.1616,-6.1908,-6.2223,-6.2381,-6.2268,-6.2189,-6.1997,-6.3012,-6.4354,-6.5955,-6.5447,-6.5005,-6.4819,-6.5213,-6.5123,-6.4669,-6.5123,-6.5425,-6.5425,-6.5425,-6.5425,-6.5425,-6.5425,-6.5425,-6.5425,-6.5425,-6.5425,-6.5459,-5.5377,-5.5848,-5.6428,-5.7804,-5.8239,-5.8601,-5.9144,-5.9361,-5.9434,-5.9434,-5.8251,-5.7457,-5.7509,-5.6219,-5.5073,-5.4406,-5.3673,-5.3347,-5.3315,-5.345,-5.345,-5.3315,-5.3315,-5.3315,-5.3315,-5.3315,-5.3382,-5.3518,-5.3518,-5.3518,-5.3518,-5.3518,-5.3518,-5.3518,-5.3518,-5.3518,-5.3518,-5.3518,-5.3518,-5.3619,-5.5006,-5.5547,-5.5683,-5.7036,-5.7645,-5.7712,-5.7712,-5.7814,-5.7881,-5.7881,-5.7881,-5.7881,-5.7881,-5.7881,-5.7881,-5.7881,-5.7881,-5.7881,-5.7881,-5.7881,-5.7881,-5.7881,-5.7881,-5.7881,-5.7881,-5.7881,-5.7881,-5.7881,-5.7881,-5.8118,-5.8863,-5.9032,-5.9268,-5.9979,-6.0013,-5.9708,-5.9099,-5.893,-5.9167,-6.0013,-6.0114,-6.0689,-6.2245,-6.2381,-6.2381,-6.2381,-6.211,-6.1917,-6.1917,-6.179,-6.187,-6.2302,-6.211,-6.2018,-6.2253,-6.2382,-6.353,-6.5692,-6.4818,-6.473,-6.5425,-6.5425,-6.5425,-6.5425,-6.5425,-6.5425,-6.5425,-6.5425,-6.5425,-6.5425,-6.5425,-6.5425,-6.5425,-6.5425,-6.5425,-6.5492,-5.4001,-5.5088,-5.6066,-5.6319,-5.7478,-5.8202,-5.7659,-5.8166,-5.8601,-5.8601,-5.7825,-5.7277,-5.7382,-5.6059,-5.4874,-5.4209,-5.3056,-5.2369,-5.2501,-5.3112,-5.3213,-5.2536,-5.2503,-5.2503,-5.2503,-5.2503,-5.2807,-5.3518,-5.3518,-5.3518,-5.3518,-5.3518,-5.3518,-5.3518,-5.3518,-5.3518,-5.3518,-5.3518,-5.3518,-5.3585,-5.4431,-5.4769,-5.4871,-5.5716,-5.6427,-5.6968,-5.6968,-5.7374,-5.7881,-5.7881,-5.7881,-5.7881,-5.7881,-5.7881,-5.7881,-5.7881,-5.7881,-5.7881,-5.7881,-5.7881,-5.7881,-5.7881,-5.7881,-5.7881,-5.7881,-5.7881,-5.7881,-5.7881,-5.7881,-5.8118,-5.8863,-5.9032,-5.9268,-5.9979,-5.9573,-5.9133,-5.9032,-5.8457,-5.8592,-5.9945,-6.0114,-6.0689,-6.2245,-6.2189,-6.2076,-6.2076,-6.187,-6.179,-6.179,-6.1709,-6.1709,-6.179,-6.179,-6.223,-6.3333,-6.258,-6.3358,-6.5392,-6.4697,-6.473,-6.5425,-6.5425,-6.5425,-6.5425,-6.5425,-6.5425,-6.5425,-6.5425,-6.5425,-6.5425,-6.5425,-6.5425,-6.5425,-6.5425,-6.5425,-6.5425,-5.3603,-5.4255,-5.5015,-5.5848,-5.6609,-5.7116,-5.7188,-5.7514,-5.7732,-5.7732,-5.7442,-5.7232,-5.7297,-5.6237,-5.5205,-5.4266,-5.3602,-5.2624,-5.1214,-5.1826,-5.2266,-5.23,-5.23,-5.2503,-5.2942,-5.2536,-5.2706,-5.3518,-5.3518,-5.3518,-5.3518,-5.3518,-5.3518,-5.3518,-5.3518,-5.3518,-5.3518,-5.3518,-5.3518,-5.3551,-5.4296,-5.46,-5.4668,-5.5446,-5.6156,-5.6799,-5.6799,-5.7273,-5.7881,-5.7881,-5.7881,-5.7881,-5.7881,-5.7881,-5.7881,-5.7881,-5.7881,-5.7881,-5.7881,-5.7881,-5.7881,-5.7881,-5.7881,-5.7881,-5.7881,-5.7881,-5.7881,-5.7881,-5.7881,-5.7983,-5.8355,-5.8423,-5.8524,-5.8863,-5.8626,-5.8423,-5.8423,-5.8118,-5.8287,-5.9404,-5.9505,-6.0038,-6.1447,-6.1503,-6.1514,-6.1837,-6.1628,-6.1547,-6.1547,-6.1417,-6.1417,-6.1417,-6.1465,-6.1999,-6.2846,-6.2031,-6.2676,-6.4829,-6.4133,-6.4365,-6.5425,-6.5425,-6.5425,-6.5425,-6.5425,-6.5425,-6.5425,-6.5425,-6.5425,-6.5425,-6.5425,-6.5425,-6.5425,-6.5425,-6.5425,-6.5425,-5.3313,-5.3566,-5.4074,-5.5269,-5.5631,-5.5957,-5.6573,-5.6681,-5.6717,-5.6899,-5.6899,-5.6899,-5.6899,-5.6355,-5.5584,-5.4469,-5.4099,-5.2962,-5.0693,-5.0968,-5.1454,-5.2029,-5.2063,-5.2503,-5.3484,-5.2536,-5.2536,-5.3518,-5.3518,-5.3518,-5.3518,-5.3518,-5.3518,-5.3518,-5.3518,-5.3518,-5.3518,-5.3518,-5.3518,-5.3551,-5.4296,-5.4499,-5.4431,-5.5175,-5.5818,-5.6325,-5.6494,-5.7036,-5.7645,-5.7814,-5.7881,-5.7881,-5.7881,-5.7881,-5.7881,-5.7881,-5.7881,-5.7881,-5.7881,-5.7881,-5.7881,-5.7881,-5.7881,-5.7881,-5.7881,-5.7881,-5.7881,-5.7881,-5.7881,-5.7881,-5.7881,-5.7881,-5.7881,-5.7881,-5.7881,-5.7881,-5.7881,-5.7881,-5.8186,-5.8856,-5.8957,-5.9389,-6.0438,-6.0662,-6.0918,-6.1327,-6.1365,-6.1301,-6.1301,-6.1169,-6.1119,-6.1119,-6.1252,-6.1584,-6.2146,-6.145,-6.2179,-6.4299,-6.3603,-6.4034,-6.5425,-6.5425,-6.5425,-6.5425,-6.5425,-6.5425,-6.5425,-6.5425,-6.5425,-6.5425,-6.5425,-6.5425,-6.5425,-6.5425,-6.5425,-6.5425,-5.2589,-5.3204,-5.3748,-5.3856,-5.4508,-5.5015,-5.5051,-5.5088,-5.5305,-5.5993,-5.6066,-5.6066,-5.6066,-5.6029,-5.5654,-5.4918,-5.3762,-5.2678,-5.1815,-5.1398,-5.1251,-5.1285,-5.1285,-5.1995,-5.3484,-5.2063,-5.2029,-5.3518,-5.3518,-5.3518,-5.3518,-5.3518,-5.3518,-5.3518,-5.3518,-5.3518,-5.3518,-5.3518,-5.3518,-5.3551,-5.4296,-5.4194,-5.3653,-5.4397,-5.4702,-5.4837,-5.5547,-5.6258,-5.7002,-5.7645,-5.7881,-5.7881,-5.7881,-5.7881,-5.7881,-5.7881,-5.7881,-5.7881,-5.7881,-5.7881,-5.7881,-5.7881,-5.7881,-5.7881,-5.7881,-5.7881,-5.7881,-5.7881,-5.7881,-5.7881,-5.7881,-5.7881,-5.7881,-5.7881,-5.7881,-5.7881,-5.7881,-5.7881,-5.8079,-5.8631,-5.8698,-5.8925,-5.9577,-6.0044,-6.0365,-6.0431,-6.0853,-6.1119,-6.1119,-6.1119,-6.1119,-6.1119,-6.1119,-6.145,-6.2179,-6.145,-6.2179,-6.4299,-6.3603,-6.4034,-6.5425,-6.5425,-6.5425,-6.5425,-6.5425,-6.5425,-6.5425,-6.5425,-6.5425,-6.5425,-6.5425,-6.5425,-6.5425,-6.5425,-6.5425,-6.5425,-5.248,-5.2733,-5.3096,-5.3603,-5.3965,-5.4327,-5.4834,-5.4907,-5.5015,-5.5269,-5.5703,-5.5993,-5.5993,-5.5993,-5.5785,-5.5143,-5.3725,-5.2802,-5.267,-5.2062,-5.1833,-5.186,-5.1454,-5.1928,-5.3484,-5.1995,-5.1961,-5.3518,-5.3518,-5.3518,-5.3518,-5.3518,-5.3518,-5.3518,-5.3518,-5.3518,-5.3518,-5.3518,-5.3518,-5.3518,-5.3822,-5.3754,-5.3551,-5.3822,-5.4194,-5.4634,-5.4905,-5.5784,-5.6833,-5.7137,-5.7509,-5.7881,-5.7881,-5.7881,-5.7881,-5.7881,-5.7881,-5.7881,-5.7881,-5.7881,-5.7881,-5.7881,-5.7881,-5.7881,-5.7881,-5.7881,-5.7881,-5.7881,-5.7881,-5.7881,-5.7881,-5.7808,-5.7735,-5.7735,-5.7588,-5.7514,-5.7514,-5.7514,-5.7614,-5.7842,-5.7876,-5.8068,-5.8575,-5.9264,-5.9738,-6.0122,-6.0771,-6.1119,-6.1119,-6.1119,-6.1119,-6.1119,-6.1119,-6.1218,-6.1516,-6.1251,-6.198,-6.367,-6.3405,-6.4034,-6.5425,-6.5425,-6.5425,-6.5425,-6.5425,-6.5425,-6.5425,-6.5425,-6.5425,-6.5425,-6.5425,-6.5425,-6.5425,-6.5425,-6.5425,-6.5425,-5.248,-5.248,-5.2661,-5.3241,-5.3313,-5.3494,-5.4074,-5.4146,-5.4255,-5.4508,-5.4943,-5.5377,-5.5631,-5.5631,-5.5591,-5.545,-5.4025,-5.314,-5.3092,-5.2295,-5.1936,-5.2266,-5.1826,-5.2063,-5.3112,-5.2097,-5.2198,-5.3518,-5.3518,-5.3518,-5.3518,-5.3518,-5.3518,-5.3518,-5.3518,-5.3518,-5.3518,-5.3518,-5.3518,-5.3518,-5.3518,-5.3518,-5.3518,-5.3518,-5.3822,-5.4262,-5.4499,-5.5412,-5.6494,-5.6731,-5.7273,-5.7881,-5.7881,-5.7881,-5.7881,-5.7881,-5.7881,-5.7881,-5.7881,-5.7881,-5.7881,-5.7881,-5.7881,-5.7881,-5.7881,-5.7881,-5.7881,-5.7808,-5.7808,-5.7808,-5.7735,-5.7588,-5.7514,-5.7514,-5.7364,-5.7289,-5.7289,-5.7289,-5.7289,-5.7214,-5.7214,-5.7339,-5.7609,-5.8341,-5.9026,-5.9595,-6.0357,-6.0854,-6.1086,-6.1119,-6.1119,-6.1119,-6.1119,-6.1119,-6.1119,-6.1119,-6.1848,-6.3272,-6.3272,-6.4034,-6.5425,-6.5425,-6.5425,-6.5425,-6.5425,-6.5425,-6.5425,-6.5425,-6.5425,-6.5425,-6.5425,-6.5425,-6.5425,-6.5425,-6.5425,-6.5425,-5.248,-5.248,-5.248,-5.248,-5.248,-5.248,-5.248,-5.248,-5.277,-5.3603,-5.3711,-5.4001,-5.4798,-5.4907,-5.5196,-5.5921,-5.4697,-5.3655,-5.3127,-5.1905,-5.1555,-5.2266,-5.23,-5.23,-5.23,-5.23,-5.2706,-5.3518,-5.3518,-5.3518,-5.3518,-5.3518,-5.3518,-5.3518,-5.3518,-5.3518,-5.3518,-5.3518,-5.3518,-5.3518,-5.3518,-5.3518,-5.3518,-5.3518,-5.3518,-5.3585,-5.4329,-5.5074,-5.5818,-5.6562,-5.7273,-5.7881,-5.7881,-5.7881,-5.7881,-5.7881,-5.7881,-5.7881,-5.7881,-5.7881,-5.7881,-5.7881,-5.7881,-5.7881,-5.7881,-5.7881,-5.7808,-5.7662,-5.7588,-5.7514,-5.7364,-5.7289,-5.7289,-5.7289,-5.7289,-5.7289,-5.7289,-5.7289,-5.7214,-5.6987,-5.6987,-5.6911,-5.668,-5.7342,-5.8104,-5.8833,-5.9595,-6.0324,-6.1086,-6.1119,-6.1119,-6.1119,-6.1119,-6.1119,-6.1119,-6.1119,-6.1848,-6.3272,-6.3272,-6.4034,-6.5425,-6.5425,-6.5425,-6.5425,-6.5425,-6.5425,-6.5425,-6.5425,-6.5425,-6.5425,-6.5425,-6.5425,-6.5425,-6.5425,-6.5425,-6.5425,-5.1756,-5.2118,-5.248,-5.248,-5.248,-5.248,-5.248,-5.248,-5.2589,-5.2842,-5.3349,-5.3784,-5.4037,-5.4581,-5.4979,-5.5196,-5.4327,-5.3325,-5.2298,-5.2916,-5.2804,-5.1555,-5.2029,-5.257,-5.3145,-5.2604,-5.2706,-5.3518,-5.3518,-5.3518,-5.3518,-5.3518,-5.3518,-5.3518,-5.3518,-5.3518,-5.3518,-5.3518,-5.3518,-5.3518,-5.3518,-5.3518,-5.3518,-5.3518,-5.3518,-5.3551,-5.3754,-5.4296,-5.4972,-5.5175,-5.575,-5.6461,-5.6968,-5.7403,-5.7662,-5.7662,-5.7588,-5.7514,-5.7514,-5.7514,-5.7514,-5.7662,-5.7662,-5.7662,-5.7514,-5.7514,-5.7439,-5.7439,-5.7364,-5.7364,-5.7289,-5.7214,-5.7063,-5.7063,-5.6987,-5.6911,-5.6911,-5.6911,-5.6834,-5.6757,-5.6757,-5.6757,-5.668,-5.7342,-5.8104,-5.8833,-6.0059,-6.0887,-6.1086,-6.1119,-6.1119,-6.1119,-6.1119,-6.1119,-6.1119,-6.1119,-6.1848,-6.3272,-6.3272,-6.4034,-6.5425,-6.5425,-6.5425,-6.5425,-6.5425,-6.5425,-6.5425,-6.5425,-6.5425,-6.5425,-6.5425,-6.5425,-6.5425,-6.5425,-6.5425,-6.5492,-5.1466,-5.1937,-5.2408,-5.2082,-5.2299,-5.248,-5.248,-5.248,-5.248,-5.248,-5.2915,-5.3241,-5.3241,-5.3675,-5.4074,-5.4399,-5.3504,-5.2571,-5.159,-5.223,-5.2337,-5.1623,-5.2063,-5.2536,-5.301,-5.2875,-5.301,-5.3518,-5.3518,-5.3348,-5.3044,-5.3348,-5.3348,-5.3044,-5.3382,-5.3518,-5.3518,-5.3518,-5.3518,-5.3518,-5.3518,-5.3518,-5.3518,-5.3518,-5.3518,-5.3518,-5.3518,-5.3957,-5.46,-5.46,-5.5004,-5.5677,-5.6419,-5.6886,-5.707,-5.7446,-5.7364,-5.7289,-5.7289,-5.7289,-5.7289,-5.7364,-5.7439,-5.7439,-5.7364,-5.7289,-5.7289,-5.7214,-5.7214,-5.7139,-5.7063,-5.6987,-5.6911,-5.6911,-5.6757,-5.668,-5.668,-5.668,-5.668,-5.668,-5.668,-5.668,-5.668,-5.7077,-5.7674,-5.8403,-6.0092,-6.0986,-6.0688,-6.0953,-6.1119,-6.1119,-6.1119,-6.1119,-6.1119,-6.1119,-6.1848,-6.3272,-6.3272,-6.4034,-6.5425,-6.5425,-6.5425,-6.5425,-6.5425,-6.5425,-6.5425,-6.5425,-6.5425,-6.5425,-6.5425,-6.5425,-6.5425,-6.5425,-6.5425,-6.5402,-5.1466,-5.1937,-5.2263,-5.1538,-5.2009,-5.248,-5.248,-5.248,-5.248,-5.248,-5.2444,-5.2371,-5.2371,-5.2335,-5.2625,-5.3422,-5.2462,-5.1479,-5.0818,-5.0264,-5.057,-5.186,-5.2029,-5.2097,-5.2097,-5.2942,-5.345,-5.3518,-5.345,-5.301,-5.2334,-5.3112,-5.3078,-5.2334,-5.3145,-5.3518,-5.3518,-5.3518,-5.3518,-5.3518,-5.3518,-5.3518,-5.3518,-5.3518,-5.3518,-5.3518,-5.3518,-5.3923,-5.4499,-5.443,-5.4833,-5.54,-5.6073,-5.6264,-5.6244,-5.6921,-5.7189,-5.7181,-5.7147,-5.7181,-5.7214,-5.6987,-5.7139,-5.7214,-5.7214,-5.7214,-5.7214,-5.6987,-5.6987,-5.6911,-5.6757,-5.668,-5.668,-5.668,-5.668,-5.668,-5.668,-5.668,-5.668,-5.668,-5.668,-5.668,-5.668,-5.6746,-5.7077,-5.774,-5.9794,-6.0721,-6.0026,-6.0721,-6.1119,-6.1119,-6.1119,-6.1119,-6.1119,-6.1119,-6.1815,-6.3173,-6.3239,-6.4001,-6.5326,-6.5392,-6.5425,-6.5425,-6.5425,-6.5425,-6.5425,-6.5425,-6.5425,-6.5425,-6.5425,-6.5425,-6.5425,-6.5425,-6.5303,-6.5123,-5.1282,-5.1891,-5.2444,-5.2263,-5.2371,-5.248,-5.248,-5.248,-5.248,-5.248,-5.1937,-5.1538,-5.1538,-5.0995,-5.0923,-5.1756,-5.1203,-5.0287,-4.903,-4.902,-4.9017,-4.8849,-4.9965,-5.0574,-5.0574,-5.1894,-5.2875,-5.3518,-5.2875,-5.2469,-5.2334,-5.3112,-5.3078,-5.2334,-5.3145,-5.3518,-5.3518,-5.3518,-5.3518,-5.3518,-5.3518,-5.3518,-5.3518,-5.3518,-5.3518,-5.3518,-5.3518,-5.3518,-5.3483,-5.3276,-5.371,-5.4313,-5.4481,-5.5208,-5.5896,-5.5462,-5.6012,-5.6701,-5.617,-5.6402,-5.6834,-5.6757,-5.6757,-5.6834,-5.6834,-5.6834,-5.6834,-5.6757,-5.6757,-5.6757,-5.668,-5.668,-5.668,-5.668,-5.668,-5.668,-5.668,-5.668,-5.668,-5.668,-5.668,-5.668,-5.668,-5.721,-5.7608,-5.7773,-5.9297,-6.0191,-6.0026,-6.0721,-6.1119,-6.1119,-6.1119,-6.1119,-6.1119,-6.1119,-6.155,-6.2411,-6.3007,-6.3736,-6.463,-6.516,-6.5425,-6.5425,-6.5425,-6.5425,-6.5425,-6.5425,-6.5425,-6.5425,-6.5425,-6.5425,-6.5425,-6.5425,-6.4943,-6.4081,-5.1164,-5.1752,-5.2232,-5.1973,-5.218,-5.247,-5.248,-5.248,-5.248,-5.248,-5.2118,-5.1719,-5.1321,-5.1249,-5.1122,-5.089,-5.0018,-4.9078,-4.8084,-4.7898,-4.7851,-4.7902,-4.8646,-4.939,-5.0067,-5.0168,-5.0947,-5.2401,-5.1623,-5.1082,-5.0744,-5.1522,-5.1454,-5.0777,-5.1522,-5.2063,-5.2435,-5.2773,-5.2942,-5.2976,-5.3281,-5.3416,-5.3518,-5.3416,-5.3348,-5.3348,-5.3348,-5.3212,-5.3041,-5.2903,-5.3101,-5.3398,-5.3732,-5.4222,-5.4708,-5.4675,-5.5132,-5.5653,-5.562,-5.5885,-5.6249,-5.6614,-5.668,-5.668,-5.668,-5.668,-5.668,-5.668,-5.668,-5.668,-5.668,-5.668,-5.668,-5.668,-5.668,-5.668,-5.668,-5.668,-5.668,-5.668,-5.668,-5.668,-5.668,-5.7342,-5.7806,-5.7806,-5.8833,-5.9628,-5.9993,-6.0357,-6.0755,-6.1086,-6.1119,-6.1119,-6.1119,-6.145,-6.1815,-6.2179,-6.2941,-6.3835,-6.4895,-6.526,-6.5425,-6.5425,-6.5425,-6.5425,-6.5425,-6.5425,-6.5425,-6.5336,-6.4852,-6.4669,-6.4636,-6.4142,-6.326,-6.2288,-5.0973,-5.1549,-5.1802,-5.1483,-5.1953,-5.234,-5.2434,-5.2516,-5.248,-5.248,-5.2371,-5.2045,-5.1357,-5.1756,-5.1607,-5.0329,-4.8968,-4.7945,-4.7458,-4.6794,-4.6752,-4.7496,-4.753,-4.8173,-4.9492,-4.8206,-4.868,-5.1014,-5.027,-4.9526,-4.8849,-4.9695,-4.9627,-4.8849,-4.9593,-5.0236,-5.0879,-5.1488,-5.1826,-5.193,-5.2573,-5.2977,-5.318,-5.3145,-5.311,-5.3179,-5.3044,-5.284,-5.2667,-5.28,-5.2694,-5.2653,-5.3252,-5.3446,-5.35,-5.3997,-5.4427,-5.4792,-5.5156,-5.5521,-5.5918,-5.6382,-5.6614,-5.668,-5.668,-5.668,-5.668,-5.668,-5.668,-5.668,-5.668,-5.668,-5.668,-5.668,-5.668,-5.668,-5.668,-5.668,-5.668,-5.668,-5.668,-5.668,-5.668,-5.7243,-5.7641,-5.7773,-5.8369,-5.9098,-5.996,-5.9993,-6.0357,-6.1086,-6.1119,-6.1119,-6.1119,-6.1815,-6.2245,-6.2378,-6.3107,-6.41,-6.5227,-6.5359,-6.5425,-6.5425,-6.5425,-6.5425,-6.5425,-6.5425,-6.5336,-6.5033,-6.4175,-6.38,-6.3483,-6.2386,-6.1489,-6.0701,-5.0593,-5.1034,-5.138,-5.191,-5.2268,-5.2434,-5.2376,-5.2423,-5.248,-5.248,-5.19,-5.1393,-5.1285,-5.0778,-5.0164,-4.9424,-4.819,-4.7229,-4.6665,-4.5533,-4.5229,-4.5974,-4.6007,-4.638,-4.7225,-4.6447,-4.7394,-5.0236,-4.9492,-4.8781,-4.8105,-4.9458,-4.9357,-4.8105,-4.8815,-4.9221,-4.9323,-4.939,-4.9767,-5.025,-5.0991,-5.1597,-5.2101,-5.2738,-5.2972,-5.2905,-5.2235,-5.1864,-5.1758,-5.2283,-5.2445,-5.2478,-5.2544,-5.2937,-5.3334,-5.2804,-5.3997,-5.5222,-5.403,-5.509,-5.6415,-5.5885,-5.6216,-5.668,-5.668,-5.668,-5.668,-5.668,-5.668,-5.668,-5.668,-5.668,-5.668,-5.668,-5.668,-5.668,-5.668,-5.668,-5.668,-5.668,-5.668,-5.668,-5.668,-5.6779,-5.7111,-5.774,-5.7873,-5.8535,-5.9926,-5.9993,-6.0357,-6.1086,-6.1119,-6.1119,-6.1119,-6.1815,-6.2477,-6.314,-6.3868,-6.4332,-6.4531,-6.5127,-6.5425,-6.5425,-6.5425,-6.5425,-6.5425,-6.5425,-6.4852,-6.4081,-6.3988,-6.3292,-6.2386,-6.1286,-6.0774,-6.0598,-5.0438,-5.0737,-5.1036,-5.1958,-5.2198,-5.2246,-5.2198,-5.2293,-5.2423,-5.2423,-5.2098,-5.1519,-5.0705,-4.951,-4.9025,-4.9631,-4.821,-4.6981,-4.6342,-4.5973,-4.5771,-4.5703,-4.5703,-4.6041,-4.6786,-4.5669,-4.5848,-4.7477,-4.7233,-4.6989,-4.6684,-4.7327,-4.7293,-4.6684,-4.7022,-4.7394,-4.78,-4.8146,-4.863,-4.9342,-4.9888,-5.0526,-5.1196,-5.1395,-5.1528,-5.1528,-5.1491,-5.1722,-5.2018,-5.1848,-5.2042,-5.2307,-5.191,-5.2241,-5.2771,-5.2473,-5.3334,-5.4262,-5.3599,-5.4427,-5.5487,-5.5587,-5.5852,-5.6183,-5.6614,-5.668,-5.668,-5.668,-5.668,-5.668,-5.668,-5.668,-5.668,-5.668,-5.668,-5.668,-5.668,-5.668,-5.668,-5.668,-5.668,-5.668,-5.668,-5.668,-5.7011,-5.774,-5.7806,-5.8436,-5.9926,-5.9993,-6.0357,-6.1086,-6.1119,-6.1119,-6.1119,-6.2212,-6.2941,-6.3272,-6.4432,-6.4962,-6.4962,-6.5293,-6.5425,-6.5425,-6.5425,-6.5033,-6.4577,-6.4577,-6.3988,-6.2972,-6.2386,-6.1489,-6.0494,-6.0,-6.0031,-6.0257]}]]